[[{"header":{"parameterUnit":"m.s-1","parameterCategory":1,"la1":30.6,"la2":29.2853,"lo1":-89.7004,"lo2":-87.6739,"dy":0.0162,"dx":0.0183,"nx":112,"ny":82,"refTime":"2023-04-03T18:00:00:Z","depth":0,"parameterNumber":2,"parameterNumberName":"U-component_of_WINDS"},"data":[0.0,0.0,0.0,0.0,0.0,0.0,0.0,0.0,0.0,0.0,0.0,0.0,0.0,0.0,0.0,0.0,0.0,0.0,0.0,0.0,0.0,0.0,0.0,0.0,0.0,0.0,0.0,0.0,0.0,0.0,0.0,0.0,0.0,0.0,0.0,0.0,0.0,0.0,0.0,0.0,0.0,0.0,0.0,0.0,0.0,0.0,0.0,0.0,0.0,0.0,0.0,0.0,0.0,0.0,0.0,0.0,0.0,0.0,0.0,0.0,0.0,0.0,0.0,0.0,0.0,0.0,0.0,0.0,0.0,0.0,0.0,0.0,0.0,0.0,0.0,0.0,0.0,0.0,0.0,0.0,0.0,0.0,0.0,0.0,0.0,0.0,0.0,0.0,0.0,0.0,-5.5374,-5.7616,-6.3328,-6.5831,-6.2956,-6.2787,-5.9671,-5.2334,0.0,0.0,0.0,0.0,0.0,0.0,0.0,0.0,0.0,0.0,0.0,0.0,0.0,0.0,0.0,0.0,0.0,0.0,0.0,0.0,0.0,0.0,0.0,0.0,0.0,0.0,0.0,0.0,0.0,0.0,0.0,0.0,0.0,0.0,0.0,0.0,0.0,0.0,0.0,0.0,0.0,0.0,0.0,0.0,0.0,0.0,0.0,0.0,0.0,0.0,0.0,0.0,0.0,0.0,0.0,0.0,0.0,0.0,0.0,0.0,0.0,0.0,0.0,0.0,0.0,0.0,0.0,0.0,0.0,0.0,0.0,0.0,0.0,0.0,0.0,0.0,0.0,0.0,0.0,0.0,0.0,0.0,0.0,0.0,0.0,0.0,0.0,0.0,0.0,0.0,0.0,0.0,0.0,0.0,0.0,0.0,0.0,0.0,0.0,0.0,0.0,0.0,0.0,0.0,-5.6602,-6.1907,-6.5628,-6.6779,-6.4478,-6.1467,-5.8355,-5.5208,0.0,0.0,0.0,0.0,0.0,0.0,0.0,0.0,0.0,0.0,0.0,0.0,0.0,0.0,0.0,0.0,0.0,0.0,0.0,0.0,0.0,0.0,0.0,0.0,0.0,0.0,0.0,0.0,0.0,0.0,0.0,0.0,0.0,0.0,0.0,0.0,0.0,0.0,0.0,0.0,0.0,0.0,0.0,0.0,0.0,0.0,0.0,0.0,0.0,0.0,0.0,0.0,0.0,0.0,0.0,0.0,0.0,0.0,0.0,0.0,0.0,0.0,0.0,0.0,0.0,0.0,0.0,0.0,0.0,0.0,0.0,0.0,0.0,0.0,0.0,0.0,0.0,0.0,0.0,0.0,0.0,0.0,0.0,0.0,0.0,0.0,0.0,0.0,0.0,0.0,0.0,0.0,0.0,0.0,0.0,0.0,0.0,0.0,0.0,0.0,0.0,0.0,0.0,-5.5209,-5.8084,-6.4072,-6.6271,-6.6271,-6.3632,-6.1061,-5.7949,-5.4126,-5.1792,0.0,0.0,0.0,0.0,0.0,0.0,0.0,0.0,0.0,0.0,0.0,0.0,0.0,0.0,0.0,0.0,0.0,0.0,0.0,0.0,0.0,0.0,0.0,0.0,0.0,0.0,0.0,0.0,0.0,0.0,0.0,0.0,0.0,0.0,0.0,0.0,0.0,0.0,0.0,0.0,0.0,0.0,0.0,0.0,0.0,0.0,0.0,0.0,0.0,0.0,0.0,0.0,0.0,0.0,0.0,0.0,0.0,0.0,0.0,0.0,0.0,0.0,0.0,0.0,0.0,0.0,0.0,0.0,0.0,0.0,0.0,0.0,0.0,0.0,0.0,0.0,0.0,0.0,0.0,0.0,0.0,0.0,0.0,0.0,0.0,0.0,0.0,0.0,0.0,0.0,0.0,0.0,0.0,0.0,0.0,0.0,0.0,0.0,0.0,0.0,0.0,0.0,-5.8389,-6.0114,-6.5392,-6.6609,-6.5865,-6.2888,-6.0452,-5.7205,-5.2875,-4.983,0.0,0.0,0.0,0.0,0.0,0.0,0.0,0.0,0.0,0.0,0.0,0.0,0.0,0.0,0.0,0.0,0.0,0.0,0.0,0.0,0.0,0.0,0.0,0.0,0.0,0.0,0.0,0.0,0.0,0.0,0.0,0.0,0.0,0.0,0.0,0.0,0.0,0.0,0.0,0.0,0.0,0.0,0.0,0.0,0.0,0.0,0.0,0.0,0.0,0.0,0.0,0.0,0.0,0.0,0.0,0.0,0.0,0.0,0.0,0.0,0.0,0.0,0.0,0.0,0.0,0.0,0.0,0.0,0.0,0.0,0.0,0.0,0.0,0.0,0.0,0.0,0.0,0.0,0.0,0.0,0.0,0.0,0.0,0.0,0.0,0.0,0.0,0.0,0.0,0.0,0.0,0.0,0.0,0.0,0.0,0.0,0.0,0.0,0.0,0.0,0.0,0.0,-6.0317,-6.3226,-6.6406,-6.7387,-6.6643,-6.3666,-5.8896,-5.5277,-5.3551,-4.8714,0.0,0.0,0.0,0.0,0.0,0.0,0.0,0.0,0.0,0.0,0.0,0.0,0.0,0.0,0.0,0.0,0.0,0.0,0.0,0.0,0.0,0.0,0.0,0.0,0.0,0.0,0.0,0.0,0.0,0.0,0.0,0.0,0.0,0.0,0.0,0.0,0.0,0.0,0.0,0.0,0.0,0.0,0.0,0.0,0.0,0.0,0.0,0.0,0.0,0.0,0.0,0.0,0.0,0.0,0.0,0.0,0.0,0.0,0.0,0.0,0.0,0.0,0.0,0.0,0.0,0.0,0.0,0.0,0.0,0.0,0.0,0.0,0.0,0.0,0.0,0.0,0.0,0.0,0.0,0.0,0.0,0.0,0.0,0.0,0.0,0.0,0.0,0.0,0.0,0.0,0.0,0.0,0.0,0.0,0.0,0.0,0.0,0.0,0.0,0.0,0.0,0.0,-5.9302,-6.1975,-6.6339,-6.6643,-6.5527,-6.3024,-5.9302,-5.6055,-5.3653,0.0,0.0,0.0,0.0,0.0,0.0,0.0,0.0,0.0,0.0,0.0,0.0,0.0,0.0,0.0,0.0,0.0,0.0,0.0,0.0,0.0,0.0,0.0,0.0,0.0,0.0,0.0,0.0,0.0,0.0,0.0,0.0,0.0,0.0,0.0,0.0,0.0,0.0,0.0,0.0,0.0,0.0,0.0,0.0,0.0,0.0,0.0,0.0,0.0,0.0,0.0,0.0,0.0,0.0,0.0,0.0,0.0,0.0,0.0,0.0,0.0,0.0,0.0,0.0,0.0,0.0,0.0,0.0,0.0,0.0,0.0,0.0,0.0,0.0,0.0,0.0,0.0,0.0,0.0,0.0,0.0,0.0,0.0,0.0,0.0,0.0,0.0,0.0,0.0,0.0,0.0,0.0,0.0,0.0,0.0,0.0,0.0,0.0,0.0,0.0,0.0,0.0,-5.6934,-5.8829,-6.1366,-6.5662,-6.5865,-6.458,-6.1907,-5.849,-5.5446,-5.2942,0.0,0.0,0.0,0.0,0.0,0.0,0.0,0.0,0.0,0.0,0.0,0.0,0.0,0.0,0.0,0.0,0.0,0.0,0.0,0.0,0.0,0.0,0.0,0.0,0.0,0.0,0.0,0.0,0.0,0.0,0.0,0.0,0.0,0.0,0.0,0.0,0.0,0.0,0.0,0.0,0.0,0.0,0.0,0.0,0.0,0.0,0.0,0.0,0.0,0.0,0.0,0.0,0.0,0.0,0.0,0.0,0.0,0.0,0.0,0.0,0.0,0.0,0.0,0.0,0.0,0.0,0.0,0.0,0.0,0.0,0.0,0.0,0.0,0.0,0.0,0.0,0.0,0.0,0.0,0.0,0.0,0.0,0.0,0.0,0.0,0.0,0.0,0.0,0.0,0.0,0.0,0.0,0.0,0.0,0.0,0.0,0.0,0.0,0.0,0.0,0.0,0.0,-5.6325,-5.9438,-6.2144,-6.4377,-6.5222,-6.414,-6.0419,-5.6055,-5.2841,0.0,0.0,0.0,0.0,0.0,0.0,0.0,0.0,0.0,0.0,0.0,0.0,0.0,0.0,0.0,0.0,0.0,0.0,0.0,0.0,0.0,0.0,0.0,0.0,0.0,0.0,0.0,0.0,0.0,0.0,0.0,0.0,0.0,0.0,0.0,0.0,0.0,0.0,0.0,0.0,0.0,0.0,0.0,0.0,0.0,0.0,0.0,0.0,0.0,0.0,0.0,0.0,0.0,0.0,0.0,0.0,0.0,0.0,0.0,0.0,0.0,0.0,0.0,0.0,0.0,0.0,0.0,0.0,0.0,0.0,0.0,0.0,0.0,0.0,0.0,0.0,0.0,0.0,0.0,0.0,0.0,0.0,0.0,0.0,0.0,0.0,0.0,0.0,0.0,0.0,0.0,0.0,0.0,0.0,0.0,0.0,0.0,0.0,0.0,0.0,0.0,0.0,0.0,-5.7036,-5.8829,-6.096,-6.4241,-6.3869,-6.2482,-6.0283,-5.6055,-5.3078,-5.2063,0.0,0.0,0.0,0.0,0.0,0.0,0.0,0.0,0.0,0.0,0.0,0.0,0.0,0.0,0.0,0.0,0.0,0.0,0.0,0.0,0.0,0.0,0.0,0.0,0.0,0.0,0.0,0.0,0.0,0.0,0.0,0.0,0.0,0.0,0.0,0.0,0.0,0.0,0.0,0.0,0.0,0.0,0.0,0.0,0.0,0.0,0.0,0.0,0.0,0.0,0.0,0.0,0.0,0.0,0.0,0.0,0.0,0.0,0.0,0.0,0.0,0.0,0.0,0.0,0.0,0.0,0.0,0.0,0.0,0.0,0.0,0.0,0.0,0.0,0.0,0.0,0.0,0.0,0.0,0.0,0.0,0.0,0.0,0.0,0.0,0.0,0.0,0.0,0.0,0.0,0.0,0.0,0.0,0.0,0.0,0.0,0.0,0.0,0.0,0.0,0.0,0.0,-5.6968,-5.8118,-5.9877,-6.3362,-6.2651,-6.1197,-5.937,-5.5987,-5.3213,-5.1522,0.0,0.0,0.0,0.0,0.0,0.0,0.0,0.0,0.0,0.0,0.0,0.0,0.0,0.0,0.0,0.0,0.0,0.0,0.0,0.0,0.0,0.0,0.0,0.0,0.0,0.0,0.0,0.0,0.0,0.0,0.0,0.0,0.0,0.0,0.0,0.0,0.0,0.0,0.0,0.0,0.0,0.0,0.0,0.0,0.0,0.0,0.0,0.0,0.0,0.0,0.0,0.0,0.0,0.0,0.0,0.0,0.0,0.0,0.0,0.0,0.0,0.0,0.0,0.0,0.0,0.0,0.0,0.0,0.0,0.0,0.0,0.0,0.0,0.0,0.0,0.0,0.0,0.0,0.0,0.0,0.0,0.0,0.0,0.0,0.0,0.0,0.0,0.0,0.0,0.0,0.0,0.0,0.0,0.0,0.0,0.0,0.0,0.0,0.0,0.0,0.0,0.0,-5.6528,-5.7408,-5.893,-6.1975,-6.1569,-6.0182,-5.7983,-5.575,-5.3247,-5.027,0.0,0.0,0.0,0.0,0.0,0.0,0.0,0.0,0.0,0.0,0.0,0.0,0.0,0.0,0.0,0.0,0.0,0.0,0.0,0.0,0.0,0.0,0.0,0.0,0.0,0.0,0.0,0.0,0.0,0.0,0.0,0.0,0.0,0.0,0.0,0.0,0.0,0.0,0.0,0.0,0.0,0.0,0.0,0.0,0.0,0.0,0.0,0.0,0.0,0.0,0.0,0.0,0.0,0.0,0.0,0.0,0.0,0.0,0.0,0.0,-6.4781,-6.5622,0.0,0.0,0.0,0.0,0.0,0.0,0.0,0.0,0.0,0.0,0.0,0.0,0.0,0.0,0.0,0.0,0.0,0.0,0.0,0.0,0.0,0.0,0.0,0.0,0.0,0.0,0.0,0.0,0.0,0.0,0.0,0.0,0.0,0.0,0.0,0.0,0.0,0.0,0.0,0.0,-5.7205,-5.7306,-5.8186,-6.1197,-6.0317,-5.8829,-5.7171,-5.5006,-5.2706,-5.0236,-4.8883,0.0,0.0,0.0,0.0,0.0,0.0,0.0,0.0,0.0,0.0,0.0,0.0,0.0,0.0,0.0,0.0,0.0,0.0,0.0,0.0,0.0,0.0,0.0,0.0,0.0,0.0,0.0,0.0,0.0,0.0,0.0,0.0,0.0,0.0,0.0,0.0,0.0,0.0,0.0,0.0,0.0,0.0,0.0,0.0,0.0,0.0,0.0,0.0,0.0,0.0,0.0,0.0,0.0,0.0,0.0,0.0,0.0,0.0,0.0,-6.6508,-6.5898,0.0,0.0,0.0,0.0,0.0,0.0,0.0,0.0,0.0,0.0,0.0,0.0,0.0,0.0,0.0,0.0,0.0,0.0,0.0,0.0,0.0,0.0,0.0,0.0,0.0,0.0,0.0,0.0,0.0,0.0,0.0,0.0,0.0,0.0,0.0,0.0,0.0,0.0,0.0,0.0,-5.6968,-5.6731,-5.7408,-6.0419,-5.9066,-5.7645,-5.6867,-5.4769,-5.2536,-5.0236,-4.9052,0.0,0.0,0.0,0.0,0.0,0.0,0.0,0.0,0.0,0.0,0.0,0.0,0.0,0.0,0.0,0.0,0.0,0.0,0.0,0.0,0.0,0.0,0.0,0.0,0.0,0.0,0.0,0.0,0.0,0.0,0.0,0.0,0.0,0.0,0.0,0.0,0.0,0.0,0.0,0.0,0.0,0.0,0.0,0.0,0.0,0.0,0.0,0.0,0.0,0.0,0.0,0.0,0.0,-7.1244,-7.2225,-7.3883,-7.4018,-7.3747,-7.3003,-6.9925,-6.7421,-6.5628,-6.6474,0.0,0.0,0.0,0.0,0.0,0.0,0.0,0.0,0.0,0.0,0.0,0.0,0.0,0.0,0.0,0.0,0.0,0.0,0.0,0.0,0.0,0.0,-6.008,-6.0757,-6.0486,-5.9235,-5.6055,0.0,0.0,0.0,0.0,0.0,0.0,0.0,0.0,0.0,0.0,0.0,-5.6359,-5.6089,-5.6731,-5.9438,-5.7983,-5.6697,-5.6427,-5.4735,-5.2706,-5.0439,-4.9593,-4.8578,0.0,0.0,0.0,0.0,0.0,0.0,0.0,0.0,0.0,0.0,0.0,0.0,0.0,0.0,0.0,0.0,0.0,0.0,0.0,0.0,0.0,0.0,0.0,0.0,0.0,0.0,0.0,0.0,0.0,0.0,0.0,0.0,-6.4889,-6.5164,0.0,0.0,0.0,0.0,0.0,0.0,0.0,0.0,0.0,0.0,0.0,0.0,0.0,-7.0481,-7.2873,-7.3344,-7.3747,-7.4052,-7.5371,-7.5811,-7.5439,-7.6115,-7.6386,-7.6284,-7.5777,0.0,-6.9316,-6.7557,0.0,0.0,0.0,0.0,0.0,0.0,0.0,0.0,0.0,0.0,0.0,0.0,0.0,0.0,0.0,0.0,0.0,0.0,0.0,0.0,0.0,0.0,-5.9167,-5.9302,-5.9708,-5.981,-5.866,-5.7577,-5.6562,-5.5716,-5.46,-5.3754,0.0,0.0,0.0,0.0,0.0,0.0,-5.5649,-5.5784,-5.6359,-5.8017,-5.734,-5.6292,-5.5006,-5.46,-5.3484,-5.1217,-5.0371,-4.956,-4.8748,-4.8003,0.0,0.0,0.0,0.0,0.0,0.0,0.0,0.0,0.0,0.0,0.0,0.0,0.0,0.0,0.0,0.0,0.0,0.0,0.0,0.0,0.0,0.0,0.0,0.0,0.0,0.0,0.0,0.0,0.0,-6.6442,-6.8105,-6.7239,-6.9097,-7.0346,0.0,0.0,0.0,0.0,0.0,0.0,0.0,0.0,0.0,-7.2345,-7.2585,-7.3164,-7.4229,-7.5336,-7.6521,-7.7773,-7.845,-7.8991,-7.9498,-7.9837,-8.0006,-8.0006,-8.0006,-7.8416,-7.554,-7.2022,-6.9823,-6.8538,0.0,0.0,0.0,0.0,-6.6576,-6.6576,-6.7557,-6.7624,-6.7286,-6.7387,0.0,0.0,0.0,0.0,0.0,0.0,0.0,-5.9573,-5.937,-6.0419,-6.1637,-6.2042,-6.2719,-6.2922,-6.1806,-6.0385,-5.8727,-5.6731,-5.5818,-5.5243,-5.4837,-5.4059,0.0,0.0,0.0,-5.4025,-5.5478,-5.5681,-5.6122,-5.7171,-5.663,-5.575,-5.4668,-5.4228,-5.3179,-5.132,-5.0507,-4.9593,-4.8443,-4.8041,-4.8176,0.0,0.0,0.0,0.0,0.0,0.0,0.0,0.0,0.0,0.0,0.0,0.0,0.0,0.0,0.0,0.0,0.0,0.0,0.0,0.0,0.0,0.0,0.0,0.0,0.0,0.0,0.0,0.0,-6.8597,-7.0126,-6.8482,-7.0693,-7.2049,0.0,0.0,0.0,0.0,0.0,0.0,-7.2355,-7.1953,-7.2586,-7.4822,-7.5625,-7.6115,-7.6318,-7.7638,-7.9228,-8.1054,-8.1054,-8.1731,-8.2983,-8.2983,-8.2983,-8.2983,-8.2983,-8.2137,-8.0412,-7.5912,-7.2969,-7.121,-7.0094,-6.9417,-6.9113,-6.9722,-6.9688,-6.9519,-7.0838,-7.0939,-7.0331,-6.935,-6.803,-6.6305,-6.3565,0.0,0.0,0.0,0.0,-6.0825,-6.1434,-6.255,-6.3734,-6.4647,-6.5425,-6.5561,-6.4106,-6.2787,-6.0994,-5.7949,-5.707,-5.6562,-5.5852,-5.4634,0.0,-5.3991,-5.389,-5.4194,-5.5277,-5.575,-5.6122,-5.6494,-5.6055,-5.5344,-5.4397,-5.3822,-5.2942,-5.1589,-5.0777,-4.9796,-4.8545,-4.8277,-4.8274,-4.8477,0.0,0.0,0.0,0.0,0.0,0.0,0.0,0.0,0.0,0.0,0.0,0.0,0.0,0.0,0.0,0.0,0.0,0.0,0.0,0.0,0.0,0.0,0.0,0.0,0.0,0.0,0.0,0.0,0.0,-6.7683,-7.2932,0.0,0.0,0.0,0.0,-7.2504,-7.306,-7.3688,-7.4407,-7.5046,-7.6163,-7.7735,-7.9176,-8.0242,-8.0953,-8.1731,-8.2543,-8.3321,-8.3321,-8.3761,-8.4505,-8.4505,-8.4505,-8.4505,-8.4505,-8.3659,-8.1934,-7.7435,-7.51,-7.4187,-7.2022,-7.1582,-7.2191,-7.2225,-7.2631,-7.3003,-7.1751,-7.1278,-7.1345,-7.1988,-7.1176,-6.9519,-6.7218,-6.6,0.0,0.0,-6.2279,-6.2279,-6.2313,-6.2922,-6.3869,-6.529,-6.6203,-6.6339,-6.485,-6.3937,-6.2516,-5.9505,-5.778,-5.6562,-5.5852,0.0,-5.4059,-5.2638,-5.3619,-5.4566,-5.4634,-5.5886,-5.6494,-5.5852,-5.575,-5.5141,-5.3687,-5.3518,-5.3145,-5.23,-5.1555,-5.0811,-4.9999,-4.9323,-4.9255,-4.9965,-4.9323,0.0,0.0,0.0,0.0,0.0,0.0,0.0,0.0,0.0,0.0,0.0,0.0,0.0,0.0,0.0,0.0,0.0,0.0,0.0,0.0,0.0,0.0,0.0,0.0,0.0,0.0,0.0,0.0,-7.2206,-7.5435,0.0,-7.5539,-7.4564,-7.4265,-7.4774,-7.4943,-7.5761,-7.7401,-7.8213,-7.9295,-8.0784,-8.1799,-8.2441,-8.2712,-8.3456,-8.3964,-8.4234,-8.4234,-8.437,-8.464,-8.464,-8.464,-8.464,-8.464,-8.4031,-8.2949,-8.0885,-7.8754,-7.6589,-7.483,-7.4289,-7.4525,-7.4525,-7.4695,-7.483,-7.4322,-7.351,-7.236,-7.0195,-6.8504,-6.7049,-6.5764,-6.5189,-6.4918,-6.4613,-6.4174,-6.4038,-6.4986,-6.5087,-6.5155,-6.617,-6.6237,-6.5831,-6.4816,-6.4038,-6.3057,-6.1501,-5.9573,-5.7983,-5.7239,-5.6494,-5.5818,-5.5277,-5.5277,-5.548,-5.5953,-5.6461,-5.6528,-5.5784,-5.5681,-5.5108,-5.3619,-5.3044,-5.2401,-5.1657,-5.0913,-5.0168,-4.9424,-4.9154,-4.912,-4.939,-4.912,-4.9221,0.0,0.0,0.0,0.0,0.0,0.0,0.0,0.0,0.0,0.0,0.0,0.0,0.0,0.0,0.0,0.0,0.0,0.0,0.0,0.0,0.0,0.0,0.0,0.0,0.0,-7.2574,-7.4722,-7.5959,-7.8223,-7.9248,-7.8072,-7.6846,-7.6469,-7.7354,-7.753,-7.8483,-8.0479,-8.1054,-8.1866,-8.3118,-8.3625,-8.3862,-8.3862,-8.437,-8.464,-8.464,-8.464,-8.464,-8.464,-8.464,-8.464,-8.464,-8.464,-8.4336,-8.3795,-8.2813,-8.1257,-7.9329,-7.7807,-7.7063,-7.686,-7.686,-7.686,-7.6758,-7.598,-7.4559,-7.2699,-7.0229,-6.8571,-6.7455,-6.6711,-6.6305,-6.617,-6.6373,-6.5899,-6.5561,-6.6576,-6.644,-6.6136,-6.6373,-6.6068,-6.5425,-6.4444,-6.3869,-6.3294,-6.2516,-6.0757,-5.9133,-5.8389,-5.7442,-5.6799,-5.6799,-5.6393,-5.6359,-5.707,-5.6934,-5.6528,-5.5784,-5.548,-5.4735,-5.3213,-5.2875,-5.2164,-5.0913,-5.0608,-5.0033,-4.9052,-4.9255,-4.9357,-4.9357,-4.912,-4.9255,-4.9729,0.0,0.0,0.0,0.0,0.0,0.0,0.0,0.0,0.0,0.0,0.0,0.0,0.0,0.0,0.0,0.0,0.0,0.0,0.0,0.0,0.0,0.0,0.0,-6.9347,-7.4114,-7.7761,-7.8415,-8.1263,-8.2279,-7.9879,-7.9459,-7.9634,-8.0276,-8.1021,-8.2035,-8.3456,-8.3524,-8.3862,-8.4606,-8.464,-8.464,-8.464,-8.464,-8.464,-8.464,-8.464,-8.464,-8.464,-8.464,-8.464,-8.464,-8.464,-8.4606,-8.4437,-8.3016,-8.2374,-8.2205,-8.075,-7.9769,-7.916,-7.9126,-7.9058,-7.8686,-7.6454,-7.4221,-7.2394,-7.236,-7.1887,-7.1176,-7.0432,-6.9722,-6.9011,-6.8199,-6.7455,-6.688,-6.6846,-6.6812,-6.6609,-6.5865,-6.5662,-6.5222,-6.3835,-6.3497,-6.326,-6.2516,-6.1163,-5.9911,-5.9167,-5.7848,-5.69,-5.6833,-5.6833,0.0,-5.778,-5.7239,-5.6528,-5.5784,-5.5074,-5.3991,-5.2469,-5.3044,-5.2503,-5.0236,-5.0744,-5.0507,-4.9052,-4.9695,-5.0067,-5.0067,-4.939,-4.9052,-4.9052,0.0,0.0,0.0,0.0,0.0,0.0,0.0,0.0,0.0,0.0,0.0,0.0,0.0,0.0,0.0,0.0,0.0,0.0,0.0,0.0,0.0,-7.0932,-7.2896,-7.239,-7.5513,-7.8524,-8.0266,-8.3211,-8.4573,-8.3313,-8.4122,-8.4403,-8.349,-8.4133,-8.4471,-8.4336,-8.4302,-8.4403,-8.4553,-8.464,-8.464,-8.464,-8.464,-8.464,-8.464,-8.464,-8.464,-8.464,-8.464,-8.464,-8.464,-8.464,-8.3998,-8.2983,-8.2577,-8.1765,-8.075,-8.0344,-8.0073,-7.9837,-7.9295,-7.8044,-7.6487,-7.5303,-7.3815,-7.2326,-7.1785,-7.1481,-7.1278,-7.1075,-7.0872,-7.0534,-6.9755,-6.9045,-6.8335,-6.776,-6.6812,-6.5933,-6.573,-6.4884,-6.4005,-6.3599,-6.3091,-6.2618,-6.2415,-6.1637,-6.0723,-5.9945,-5.9471,-5.8829,-5.7746,-5.7577,-5.7476,-5.7137,-5.6934,-5.6528,-5.5784,-5.5547,-5.4803,-5.3315,-5.2841,-5.1894,-5.0202,-4.9796,-4.9424,-4.9018,-4.9187,-4.9289,-4.9289,-4.9627,-4.9796,0.0,0.0,0.0,0.0,0.0,0.0,0.0,0.0,0.0,0.0,0.0,0.0,0.0,0.0,0.0,0.0,0.0,0.0,0.0,0.0,0.0,0.0,-7.3456,-7.5982,-7.6651,-7.8517,-8.0648,-8.2915,-8.5012,-8.6095,-8.5621,-8.6095,-8.6061,-8.5182,-8.5215,-8.5114,-8.464,-8.464,-8.464,-8.464,-8.464,-8.464,-8.464,-8.464,-8.464,-8.464,-8.464,-8.464,-8.464,-8.464,-8.464,-8.464,-8.464,-8.3964,-8.2847,-8.2543,-8.1731,-8.0615,0.0,0.0,0.0,0.0,-7.6758,-7.4695,-7.4289,-7.3172,-7.1887,-7.1447,-7.1312,-7.1312,-7.1312,-7.0872,-7.0297,-6.9857,-6.8977,-6.803,-6.7557,-6.6812,-6.6068,-6.5764,-6.5053,-6.4241,-6.3632,-6.3159,-6.2753,-6.2448,-6.1806,0.0,-6.025,-5.9844,-5.937,-5.849,-5.8084,-5.7746,-5.7306,-5.6731,-5.6055,-5.531,-5.4972,-5.4296,-5.3112,-5.2875,0.0,0.0,0.0,-5.0236,-4.9932,-4.9932,0.0,0.0,0.0,-4.9932,-4.9627,-4.9627,0.0,0.0,-4.8376,-4.797,0.0,0.0,0.0,0.0,0.0,0.0,0.0,0.0,0.0,0.0,0.0,0.0,0.0,0.0,0.0,0.0,-7.6083,-7.8483,-8.1257,-8.2475,-8.3727,-8.5554,-8.6433,-8.6941,-8.7042,-8.6501,-8.6095,-8.5926,-8.5283,-8.4809,-8.464,-8.464,0.0,0.0,0.0,-8.464,-8.464,-8.464,-8.464,-8.464,-8.464,-8.464,-8.464,-8.464,-8.464,-8.464,-8.464,-8.4133,-8.3321,-8.2678,-8.1866,-8.0987,-8.031,-7.9566,-7.8686,-7.7299,-7.5371,-7.3477,-7.3375,0.0,0.0,-7.1312,-7.1312,-7.1312,-7.1312,-7.0331,-6.9214,-6.9113,-6.8064,-6.6914,-6.6846,-6.6745,-6.6508,-6.5865,-6.5561,-6.5087,-6.3802,-6.3463,-6.3193,-6.2516,-6.1873,-6.1129,-6.025,-5.9505,-5.8998,-5.8896,-5.8321,-5.7848,-5.778,-5.6562,-5.5446,-5.4769,-5.4059,0.0,-5.2503,-5.3078,-5.2841,-5.1286,-5.1826,-5.1894,-5.1251,-5.1185,-5.0913,-5.0236,-5.0202,-4.9864,-4.912,-4.912,-4.9086,-4.9018,-4.9018,-4.8646,0.0,0.0,0.0,0.0,0.0,0.0,0.0,0.0,0.0,0.0,0.0,0.0,0.0,0.0,0.0,-7.6571,-7.9546,-8.1968,-8.3727,-8.5689,-8.6636,-8.5858,-8.6433,-8.7144,-8.7719,-8.8192,-8.7955,-8.6771,-8.6535,-8.5926,-8.4708,-8.464,-8.464,-8.464,-8.464,-8.464,-8.464,-8.464,-8.464,-8.464,-8.464,0.0,-8.464,-8.464,-8.464,-8.464,-8.464,-8.3862,-8.2611,-8.2475,-8.1257,-7.9532,-7.9397,-7.8517,-7.7232,-7.6284,-7.4897,-7.3409,-7.28,-7.2056,-7.1312,-7.1312,-7.1312,-7.1312,-7.1312,-7.0703,0.0,-6.9282,-6.8436,-6.7557,-6.6948,-6.6373,-6.5865,-6.573,-6.4783,-6.3869,-6.3565,-6.3024,-6.255,-6.2415,-6.2279,-6.1738,-6.0351,-5.9505,-5.8795,-5.8186,-5.7983,-5.7679,-5.7103,-5.6258,-5.5683,-5.5513,-5.4837,-5.4093,-5.3348,-5.3416,-5.2841,-5.1286,-5.1352,-5.1352,-5.1217,-5.1185,-5.1117,-5.1014,-5.1014,-5.0642,-4.9864,-4.9864,-4.9593,-4.9018,-4.9018,-4.8917,0.0,0.0,0.0,0.0,0.0,0.0,0.0,0.0,0.0,0.0,0.0,-6.8741,-6.9451,0.0,-7.7164,-7.9769,-8.2069,-8.393,-8.5046,-8.5824,-8.6332,-8.6332,-8.7313,-8.8158,-8.8497,-8.8531,-8.8091,-8.7008,-8.6569,-8.5858,-8.4674,-8.464,-8.464,-8.464,-8.464,-8.464,-8.464,-8.464,-8.464,-8.464,-8.464,-8.464,-8.464,-8.464,-8.464,-8.4606,-8.4234,-8.3422,-8.2306,-8.1224,-7.9667,-7.7976,-7.757,-7.6961,-7.6149,-7.4999,-7.3883,-7.2902,-7.2529,-7.1921,-7.1312,-7.1312,-7.1312,-7.1312,-7.1312,-7.0534,-6.9553,-6.9214,-6.8267,-6.7252,-6.6914,-6.6542,-6.617,-6.5764,-6.5121,-6.441,-6.3666,-6.3226,-6.2854,-6.2448,-6.211,-6.1467,-6.0317,-5.9505,-5.8761,-5.8017,-5.7881,-5.7611,-5.69,-5.6156,-5.5581,-5.5209,-5.4499,-5.389,-5.3551,-5.3518,-5.3179,-5.2401,-5.2367,-5.2198,-5.1792,-5.1758,-5.1589,-5.1217,-5.1185,-5.1014,-5.0642,-5.027,-4.9898,-4.956,-4.956,-4.9357,0.0,0.0,0.0,0.0,0.0,0.0,0.0,0.0,-6.6373,-6.7996,-7.05,-7.28,-7.4119,-7.7807,-8.1122,-8.2611,-8.4099,-8.5215,-8.5723,-8.5384,-8.5486,-8.6569,-8.7854,-8.8734,-8.8869,-8.8328,-8.7685,-8.6974,-8.623,-8.552,-8.4877,-8.4708,-8.464,-8.464,-8.464,-8.464,-8.464,-8.464,-8.464,-8.464,-8.464,-8.464,-8.464,-8.464,-8.4539,-8.437,-8.3456,-8.2746,-8.2035,-7.9972,-7.8314,-7.6995,-7.5912,-7.5405,-7.51,-7.3781,-7.2902,-7.2394,-7.2225,-7.1819,-7.1312,-7.1312,-7.1312,-7.1312,-7.1312,-7.0263,-6.9113,-6.9113,-6.7996,-6.6812,-6.6812,-6.6812,-6.6609,-6.5865,-6.5561,-6.5121,-6.3802,-6.3396,-6.3125,-6.2516,-6.1907,-6.1264,-6.0452,-5.9844,-5.9099,-5.8051,-5.7881,-5.7679,-5.7103,-5.6393,-5.5649,-5.4871,-5.416,-5.3653,-5.3518,-5.3518,-5.3518,-5.3518,-5.3518,-5.3213,-5.257,-5.2536,-5.2266,-5.1691,-5.1657,-5.1589,-5.1388,-5.0811,-5.0439,-5.0304,-5.0304,-4.983,-6.3565,-6.2212,-6.1298,-6.3734,-6.4005,-6.4986,0.0,0.0,-7.1176,-7.3308,-7.51,-7.6521,-7.7333,-8.004,-8.2644,-8.4133,-8.5655,-8.6467,-8.5858,-8.6298,-8.6467,-8.596,-8.6636,-8.7414,-8.8057,-8.8057,-8.7685,-8.6974,-8.623,-8.5757,-8.5655,-8.5012,-8.464,-8.464,-8.464,-8.464,-8.464,-8.464,-8.464,-8.464,-8.464,-8.464,-8.464,-8.464,-8.4268,-8.3558,-8.2137,-8.1494,-8.1291,-7.9735,-7.8619,-7.7671,-7.554,-7.4322,-7.3646,-7.2834,-7.2462,-7.2326,-7.165,-7.1379,-7.1312,-7.1312,-7.1312,-7.1312,-7.1312,-7.0263,-6.9113,-6.9113,-6.7996,-6.6812,-6.6812,-6.6812,-6.6609,-6.5865,-6.5189,-6.4512,-6.37,-6.299,-6.2482,-6.2415,-6.2313,-6.2042,-6.1298,-6.1095,-6.0317,-5.822,-5.7881,-5.7848,-5.778,-5.7137,-5.6393,-5.5683,-5.4905,-5.4194,-5.3551,-5.3518,-5.3518,-5.3518,-5.3518,-5.345,-5.3382,-5.3382,-5.3348,-5.3247,-5.3247,-5.2909,-5.2198,-5.2097,-5.1725,-5.1082,-5.1082,-5.0338,-6.2618,-6.3091,-6.3903,0.0,-6.5392,-6.8267,-7.165,-7.2496,-7.3341,-7.6014,-7.8111,-7.9667,-8.0412,-8.2644,-8.4708,-8.579,-8.6129,-8.6298,-8.6433,-8.5926,-8.5317,-8.4539,-8.552,-8.6535,-8.7279,-8.7753,-8.7516,-8.6332,-8.6366,-8.6061,-8.5148,-8.4809,-8.464,-8.464,-8.464,-8.464,-8.464,-8.464,-8.464,-8.464,-8.464,-8.464,-8.464,-8.464,-8.3964,-8.2847,-8.2205,-8.0953,-7.9329,-7.872,-7.7502,-7.5879,-7.4492,-7.351,-7.2766,-7.2022,-7.1751,-7.1718,-7.1413,-7.1312,-7.1312,-7.1312,-7.1312,-7.1244,-7.0804,-6.9925,-6.9011,-6.8538,-6.7624,-6.6812,-6.6812,-6.6812,-6.6609,-6.5865,-6.5121,-6.4512,-6.4208,-6.3226,-6.2516,-6.2956,-6.2685,-6.2144,-6.1434,-6.1298,-6.0689,-5.8829,-5.8558,-5.8389,-5.7949,-5.7273,-5.6359,-5.5175,-5.4769,-5.4296,-5.3551,-5.3518,-5.3518,-5.3518,-5.3518,-5.3518,-5.3518,-5.3518,-5.3518,-5.3518,-5.3518,-5.3348,-5.301,-5.2536,-5.2131,-5.186,-5.186,-5.1285,-6.1873,0.0,0.0,-6.458,-6.7692,-7.1616,-7.351,-7.4661,-7.6082,-7.8686,-8.0479,-8.1832,-8.2577,-8.4234,-8.579,-8.6738,-8.6264,-8.6061,-8.6805,-8.5249,-8.3828,-8.3253,-8.3625,-8.4403,-8.5554,-8.6704,-8.6941,-8.5858,-8.6095,-8.5892,-8.4979,-8.4742,-8.464,-8.464,-8.464,-8.464,-8.464,-8.464,-8.464,-8.464,-8.464,-8.464,-8.4606,-8.42,-8.3422,-8.2374,-8.1765,-8.0276,-7.8247,-7.7841,-7.6589,-7.483,-7.3849,-7.3037,-7.2326,-7.1582,-7.1312,-7.1312,-7.1312,-7.1312,-7.1312,-7.1312,-7.1312,-7.121,-7.0669,-6.9992,-6.9248,-6.8436,-6.7692,-6.7083,-6.688,-6.6812,-6.6609,-6.5865,-6.529,-6.485,-6.4647,-6.3768,-6.3091,-6.3463,-6.3091,-6.2482,-6.1738,-6.1603,-6.1163,-5.9844,-5.9471,-5.8964,-5.8017,-5.7273,-5.6325,-5.504,-5.4702,-5.4296,-5.3551,-5.3518,-5.3518,-5.3518,-5.3518,-5.3518,-5.3518,-5.3518,-5.3518,-5.3518,-5.3518,-5.3518,-5.3518,-5.2909,-5.2638,-5.2638,-5.2638,-5.2334,0.0,0.0,-6.5358,-6.8199,-7.1176,-7.4153,-7.713,-7.8957,-8.0445,-8.1968,-8.234,-8.2611,-8.3321,-8.4133,-8.5148,-8.667,-8.6264,-8.6061,-8.6805,-8.4336,-8.2475,-8.2441,-8.0581,-8.0175,-8.234,-8.4539,-8.5824,-8.579,-8.5114,-8.5012,-8.5723,-8.5046,-8.464,-8.464,-8.464,-8.464,-8.464,-8.464,-8.464,-8.464,-8.464,-8.464,-8.4573,-8.3118,-8.2441,-8.2306,-8.0141,-7.916,-7.8957,-7.7536,-7.642,-7.5506,-7.4052,-7.3037,-7.2326,-7.1582,-7.1312,-7.1312,-7.1312,-7.1312,-7.1312,-7.1312,-7.1312,-7.1312,-7.1278,-7.0737,-6.9992,-6.9282,-6.8504,-6.7692,-6.7015,-6.6812,-6.6609,-6.5865,-6.5662,-6.5459,-6.4749,-6.4546,-6.4343,-6.3632,-6.3497,-6.3226,-6.2482,-6.2347,-6.211,-6.1332,-6.0554,-5.9539,-5.8084,-5.7273,-5.6528,-5.575,-5.504,-5.4296,-5.3551,-5.3518,-5.3518,-5.3518,-5.3518,-5.3518,-5.3518,-5.3518,-5.3518,-5.3518,-5.3518,-5.3518,-5.3518,-5.3484,-5.345,-5.345,-5.345,-5.345,0.0,0.0,-7.0263,-7.2259,-7.5371,-7.8585,-8.1088,-8.2035,-8.2408,-8.2408,-8.1629,-8.0716,-7.9972,-8.0445,-8.146,-8.2949,-8.42,-8.5283,-8.6061,-8.5723,-8.4099,-8.0648,-8.1291,0.0,-7.9634,-8.1934,-8.3964,-8.4945,-8.5723,-8.5824,-8.5046,-8.5249,-8.5148,-8.464,-8.464,-8.464,-8.464,-8.464,-8.464,-8.464,-8.464,-8.437,-8.3862,-8.3355,-8.2611,-8.1596,-8.0378,-7.9261,-7.8247,-7.6724,-7.5371,-7.4119,-7.3138,-7.2326,-7.165,-7.1413,-7.1312,-7.1312,-7.1312,-7.1312,-7.1312,-7.1312,-7.1312,-7.121,-7.0737,-7.0398,-6.9925,-6.8673,-6.8098,-6.7726,-6.7015,-6.6812,-6.6745,-6.6508,-6.6068,-6.5764,-6.6,-6.529,-6.4546,-6.4275,-6.3835,-6.3294,-6.2516,-6.2381,-6.1975,-6.0689,-5.9877,-5.8998,-5.8017,-5.7679,-5.7239,-5.6528,-5.5784,-5.504,-5.4296,-5.3788,-5.3518,-5.3518,-5.3518,-5.3518,-5.3518,-5.3518,-5.3518,-5.3518,-5.3518,-5.3518,-5.3518,-5.3518,-5.3518,-5.3518,-5.3518,-5.3518,0.0,-7.006,-7.4424,-7.6183,-7.9025,-8.1697,-8.2847,-8.3118,-8.2678,-8.1156,-7.9634,-7.8145,-7.6657,-7.6115,-7.6758,-7.9295,-8.0479,-8.1968,-8.4606,-8.4708,-8.3558,-8.0987,-8.1426,-8.1291,0.0,-8.0818,-8.234,-8.4099,-8.5384,-8.5655,-8.4674,-8.5114,-8.5148,-8.464,-8.464,-8.464,-8.464,-8.464,-8.464,-8.464,-8.4336,-8.3964,-8.349,-8.2949,-8.2171,-8.1224,-7.9938,-7.8855,-7.7841,-7.6048,-7.4593,-7.3409,-7.2699,-7.1954,-7.1312,-7.1312,-7.1312,-7.1312,-7.1312,-7.1312,-7.1312,-7.1312,-7.1312,-7.121,-7.0737,-7.0601,-7.0263,-6.8774,-6.8335,-6.8098,-6.7083,-6.6812,-6.6812,-6.6812,-6.644,-6.6203,-6.6711,-6.6068,-6.5324,-6.5053,-6.441,-6.3666,-6.2922,-6.255,-6.1975,-6.0723,-6.0148,-5.937,-5.8051,-5.8118,-5.7915,-5.69,-5.6393,-5.5784,-5.5074,-5.4329,-5.389,-5.389,-5.3653,-5.3518,-5.3518,-5.3518,-5.3518,-5.3518,-5.3518,-5.3518,-5.3518,-5.3518,-5.3518,-5.3518,-5.3518,-5.3518,-7.0534,-7.4289,-7.7638,-7.9837,-8.1934,-8.3321,-8.2577,-8.2306,-8.1393,-7.8382,-7.6487,-7.4897,0.0,0.0,-7.1582,-7.6014,-7.5743,-7.7029,-8.2813,-8.1866,-8.1325,-8.3253,-8.1054,-8.0209,-8.2205,-8.1156,-8.1257,-8.3389,-8.42,-8.464,-8.464,-8.4674,-8.4674,-8.464,-8.464,-8.464,-8.464,-8.464,-8.464,-8.4606,-8.3862,-8.349,-8.3389,-8.1934,-8.1257,-8.1054,-7.8923,-7.7942,-7.7705,-7.5473,-7.4119,-7.3341,-7.2631,-7.1921,-7.1312,-7.1312,-7.1312,-7.1312,-7.1312,-7.1312,-7.1312,-7.1312,-7.1312,-7.1312,-7.1312,-7.1312,-7.1007,-6.9519,-6.9113,-6.8741,-6.7218,-6.6812,-6.6812,-6.6812,-6.6812,-6.6812,-6.6812,-6.6812,-6.6576,-6.5831,-6.5053,-6.4343,-6.3632,-6.2888,-6.2144,-6.14,-6.1332,-6.052,-5.8254,-5.8558,-5.8457,-5.7002,-5.6833,-5.6528,-5.5818,-5.5074,-5.4668,-5.4668,-5.3991,-5.3619,-5.3551,-5.3551,-5.3551,-5.3518,-5.3518,-5.3518,-5.3518,-5.3518,-5.3518,-5.3518,-5.3518,-5.3518,-7.3713,-7.7299,-8.0581,-8.2238,-8.3084,-8.3321,-8.2577,-8.1122,-7.8923,-7.5371,-7.2597,-6.9992,0.0,0.0,0.0,-7.3815,-7.7773,0.0,-8.4742,-8.5655,0.0,-8.3693,-8.3321,-8.3016,-8.2475,-8.2577,-8.3118,-8.4268,-8.4505,-8.464,-8.464,-8.5182,-8.5215,-8.464,-8.464,-8.464,-8.464,-8.464,-8.464,-8.4606,-8.3862,-8.3219,-8.2644,-8.1697,-8.0682,-7.96,-7.8483,-7.7333,-7.6149,-7.4458,-7.3341,-7.2597,-7.1887,-7.1481,-7.1312,-7.1312,-7.1312,-7.1312,-7.1312,-7.1312,-7.1312,-7.1312,-7.1312,-7.1312,-7.1312,-7.1312,-7.1007,-6.9519,-6.9113,-6.8741,-6.7218,-6.6812,-6.6812,-6.6812,-6.6812,-6.6812,-6.6812,-6.6812,-6.6576,-6.5831,-6.4647,-6.3734,-6.3531,-6.2888,-6.2144,-6.14,-6.1772,-6.1298,-5.9032,-5.8896,-5.866,-5.7712,-5.7137,-5.6731,-5.6562,-5.5852,-5.5446,-5.5446,-5.5243,-5.4905,-5.4329,-5.4329,-5.4059,-5.3518,-5.3518,-5.3518,-5.3518,-5.3518,-5.3518,-5.3518,-5.3518,-5.3518,-7.7367,-8.0175,-8.2543,-8.3693,-8.3727,-8.2881,-8.0513,-7.8517,-7.5777,-7.1041,-6.8233,-6.5933,-6.3599,-6.4546,-6.6846,0.0,0.0,0.0,-8.3659,-8.5283,-8.5892,0.0,-8.5554,0.0,-8.4471,-8.4471,-8.4809,-8.5554,-8.5012,-8.464,-8.464,-8.5046,-8.508,-8.464,-8.464,-8.464,-8.464,-8.464,-8.464,-8.4606,-8.3524,-8.2813,-8.2374,-8.1291,-8.0175,-7.9058,-7.8314,-7.713,-7.5574,-7.4086,-7.3071,-7.2326,-7.1616,-7.1312,-7.1312,-7.1312,-7.1312,-7.1312,-7.1312,-7.1312,-7.1312,-7.1312,-7.1312,-7.1312,-7.1312,-7.1312,-7.1075,-6.9925,-6.935,-6.891,-6.803,-6.7557,-6.7387,-6.7726,-6.7827,-6.7827,-6.7827,-6.7523,-6.6981,-6.5899,-6.5019,-6.4377,-6.4038,-6.3632,-6.3125,-6.2381,-6.2618,-6.2178,-6.0283,-6.0013,-5.9607,-5.849,-5.8017,-5.7645,-5.7306,-5.6596,-5.619,-5.619,-5.5886,-5.5513,-5.5108,-5.4769,-5.4397,-5.3991,-5.3653,-5.3518,-5.3518,-5.3518,-5.3518,-5.3518,-5.3518,-5.3518,-8.0987,-8.2746,-8.3964,-8.4606,-8.3896,-8.1934,-7.7705,-7.5168,-7.209,-6.6406,0.0,-6.2482,-6.1095,-6.1163,-6.2956,-6.759,0.0,-7.4593,-8.1832,-8.349,-8.4945,-8.7685,-8.7448,-8.7076,-8.7177,-8.6433,-8.623,-8.7008,-8.5554,-8.4674,-8.4776,-8.4674,-8.464,-8.464,-8.464,-8.464,-8.464,-8.464,-8.4573,-8.4471,-8.3084,-8.2374,-8.2205,-8.0818,-7.9735,-7.8923,-7.828,-7.7063,-7.5439,-7.4052,-7.3071,-7.2326,-7.1616,-7.1312,-7.1312,-7.1312,-7.1312,-7.1312,-7.1312,-7.1312,-7.1312,-7.1312,-7.1312,-7.1312,-7.1312,-7.1312,-7.1142,-7.0398,-6.9722,-6.9214,-6.9113,-6.8571,-6.8233,-6.8944,-6.9113,-6.9113,-6.9113,-6.8538,-6.7658,-6.6237,-6.5899,-6.5595,-6.4884,-6.4647,-6.4377,-6.3768,-6.3565,-6.3057,-6.1772,-6.1434,-6.0757,-5.9302,-5.9167,-5.8863,-5.8084,-5.7442,-5.707,-5.6934,-5.6359,-5.5953,-5.5852,-5.5243,-5.4837,-5.4735,-5.4126,-5.3788,-5.3788,-5.3788,-5.3788,-5.3788,-5.3788,-5.3754,-8.3592,-8.4708,-8.5418,-8.5554,-8.3152,-7.9904,-7.6657,-7.236,0.0,0.0,-6.1264,-5.9539,-5.866,-6.052,-6.4072,-6.9789,-7.3646,-7.8111,-8.4336,-8.5858,-8.6738,0.0,-8.7888,-8.8057,-8.8632,-8.7516,-8.7008,-8.7753,-8.5824,-8.4911,-8.5554,-8.4979,-8.464,-8.464,-8.464,-8.464,-8.464,-8.464,-8.4302,-8.3693,-8.2813,-8.2069,-8.146,-8.0581,-7.9464,-7.8179,-7.8044,-7.6792,-7.4728,-7.3849,-7.3071,-7.2326,-7.1616,-7.1312,-7.1312,-7.1312,-7.1312,-7.1312,-7.1312,-7.1312,-7.1312,-7.1312,-7.1312,-7.1312,-7.1312,-7.1312,-7.1142,-7.0398,-7.0094,-6.9857,-6.9248,-6.9011,-6.8944,-6.9079,-6.9113,-6.9113,-6.9113,-6.8977,-6.8605,-6.7692,-6.7049,-6.6373,-6.5628,-6.4986,-6.4546,-6.4444,-6.3903,-6.3429,-6.3159,-6.2076,-6.0926,-6.0013,-5.9911,-5.9607,-5.8863,-5.8693,-5.8355,-5.7746,-5.7577,-5.7239,-5.663,-5.6494,-5.6122,-5.5547,-5.5412,-5.5344,-5.5344,-5.5344,-5.5344,-5.5344,-5.5344,-5.5006,-8.4911,-8.579,-8.6264,-8.5892,-8.3253,-7.9464,-7.4525,0.0,0.0,0.0,-5.8863,-5.7881,-5.7881,-6.0047,-6.3125,-6.7151,-7.0297,-7.4593,-8.1359,-8.2949,-8.4539,-8.7617,-8.8328,-8.87,-8.9038,-8.8463,-8.8023,-8.7989,-8.6636,-8.579,-8.579,-8.5046,-8.464,-8.464,-8.464,-8.464,-8.464,-8.464,-8.4437,-8.4065,-8.2949,-8.2205,-8.1832,-8.0716,-7.9397,-7.7976,-7.7976,-7.669,-7.4593,-7.4221,-7.3646,-7.2902,-7.2157,-7.1887,-7.1853,-7.1447,-7.1312,-7.1312,-7.1312,-7.1312,-7.1312,-7.1312,-7.1312,-7.1312,-7.1312,-7.1312,-7.1244,-7.0872,-7.05,-7.0195,-7.0229,-6.9958,-6.9755,-7.0161,-7.0263,-7.0161,-6.9755,-6.9654,-6.9451,-6.8673,-6.8233,-6.776,-6.6981,-6.6542,-6.6068,-6.529,-6.4884,-6.4512,-6.414,-6.3463,-6.2448,-6.0892,-6.0723,-6.0419,-5.9641,-5.9235,-5.8863,-5.849,-5.8118,-5.7712,-5.7374,-5.7002,-5.663,-5.6292,-5.5919,-5.5681,-5.5681,-5.5681,-5.5681,-5.5681,-5.5681,-5.5513,-8.5824,-8.6569,-8.6974,-8.6196,-8.3287,-7.8957,-7.2732,-6.7895,0.0,0.0,-5.7171,-5.6833,-5.7712,-5.9471,-6.1637,0.0,-6.6474,-7.0466,-7.7841,-7.9904,-8.2441,0.0,-8.8531,0.0,-8.9072,-8.8801,-8.8429,-8.8023,-8.7177,-8.6332,-8.5587,-8.4945,-8.464,-8.464,-8.464,-8.464,-8.464,-8.464,-8.4471,-8.4133,-8.2983,-8.2238,-8.19,-8.0547,-7.9228,-7.7976,-7.7807,-7.6657,-7.483,-7.4695,-7.4255,-7.3646,-7.2732,-7.2394,-7.2326,-7.1582,-7.1312,-7.1312,-7.1312,-7.1312,-7.1312,-7.1312,-7.1312,-7.1312,-7.1312,-7.1312,-7.1312,-7.1312,-7.0872,-7.0567,-7.1142,-7.0872,-7.0567,-7.1176,-7.1312,-7.1142,-7.0567,-7.0432,-7.0229,-6.9485,-6.935,-6.9079,-6.8301,-6.8166,-6.776,-6.6576,-6.6136,-6.573,-6.5155,-6.4816,-6.3937,-6.2178,-6.1873,-6.1467,-6.0655,-5.9911,-5.937,-5.9032,-5.8457,-5.8118,-5.8118,-5.7442,-5.7103,-5.7273,-5.6562,-5.619,-5.619,-5.619,-5.619,-5.619,-5.619,-5.6089,-8.6602,-8.7347,-8.7719,-8.6974,-8.2509,-7.7063,-7.2394,0.0,0.0,-5.8423,-5.6799,-5.6258,-5.7645,-5.8626,-6.0419,-6.4005,-6.6474,-7.0297,-7.713,-8.0479,-8.3389,-8.6636,0.0,0.0,-8.9072,-8.7888,-8.7347,-8.7955,-8.6704,-8.5554,-8.4776,-8.4674,-8.464,-8.464,-8.464,-8.464,-8.464,-8.464,-8.3964,-8.2611,-8.2475,-8.1697,-8.0378,-7.9566,-7.8754,-7.7942,-7.7299,-7.6454,-7.554,-7.4897,-7.4559,-7.4356,-7.2935,-7.2394,-7.2326,-7.1582,-7.1312,-7.1312,-7.1312,-7.1312,-7.1312,-7.1312,-7.1312,-7.1312,-7.1312,-7.1312,-7.1312,-7.1312,-7.1278,-7.121,-7.1312,-7.1278,-7.1244,-7.1312,-7.1312,-7.1312,-7.121,-7.121,-7.0973,-7.0229,-7.0094,-6.9857,-6.9113,-6.8977,-6.8944,-6.8808,-6.759,-6.6677,-6.6609,-6.5425,-6.4512,-6.4309,-6.37,-6.3024,-6.2245,-6.1501,-6.0486,-5.9099,-5.8964,-5.893,-5.893,-5.8186,-5.8118,-5.8795,-5.8084,-5.7679,-5.7679,-5.7679,-5.7679,-5.7679,-5.7679,-5.734,-8.623,-8.7753,-8.8361,-8.7211,-8.2746,-7.7367,-7.2428,0.0,-6.1197,-5.8457,-5.707,-5.6697,-5.7712,-5.8118,-5.8964,-6.0926,0.0,0.0,-7.0432,-7.3071,-7.6657,-8.2813,-8.4809,-8.6602,0.0,-8.8158,-8.7313,-8.6704,-8.5689,-8.4945,-8.464,-8.464,-8.464,-8.464,-8.464,-8.464,-8.464,-8.464,-8.4099,-8.305,-8.2611,-8.1866,-8.0818,-8.0107,-7.9126,-7.7976,-7.7671,-7.686,-7.5676,-7.5371,-7.4999,-7.4525,-7.3443,-7.28,-7.2326,-7.1582,-7.1312,-7.1312,-7.1312,-7.1312,-7.1312,-7.1312,-7.1312,-7.1312,-7.1312,-7.1312,-7.1312,-7.1312,-7.1312,-7.1312,-7.1312,-7.1312,-7.1312,-7.1312,-7.1312,-7.1312,-7.1312,-7.1312,-7.121,-7.0939,-7.0872,-7.0635,-6.9891,-6.9755,-6.962,-6.918,-6.8166,-6.7455,-6.7455,-6.6576,-6.5933,-6.5933,-6.4478,-6.3396,-6.3091,-6.1975,-6.1028,-6.0419,-5.9945,-5.9674,-5.9674,-5.937,-5.937,-5.9674,-5.937,-5.9201,-5.9201,-5.9201,-5.8998,-5.8558,-5.8558,-5.8152,-8.4403,-8.6805,-8.8091,-8.6602,-8.2306,-7.7198,0.0,0.0,-6.1332,-5.8761,-5.7476,-5.7036,-5.7746,-5.7881,-5.8051,0.0,0.0,-6.1366,-6.6136,-6.8504,-7.2293,-7.916,0.0,-8.3321,-8.7076,-8.7583,-8.7042,-8.5554,-8.4945,-8.464,-8.464,-8.464,-8.464,-8.464,-8.464,-8.464,-8.464,-8.4403,-8.393,-8.3186,-8.2441,-8.1697,-8.0953,-8.0209,-7.9194,-7.7976,-7.7773,-7.6927,-7.5709,-7.5709,-7.527,-7.4525,-7.3781,-7.3037,-7.2326,-7.1582,-7.1312,-7.1312,-7.1312,-7.1312,-7.1312,-7.1312,-7.1312,-7.1312,-7.1312,-7.1312,-7.1312,-7.1312,-7.1312,-7.1312,-7.1312,-7.1312,-7.1312,-7.1312,-7.1312,-7.1312,-7.1312,-7.1312,-7.1312,-7.1312,-7.1312,-7.1142,-7.0601,-7.0534,-7.0331,-6.9823,-6.9079,-6.8571,-6.8571,-6.7726,-6.7151,-6.7151,-6.5358,-6.4072,-6.3869,-6.2685,-6.1772,-6.1332,-6.0757,-6.0452,-6.0452,-6.0216,-6.0216,-6.0452,-6.0216,-6.0114,-6.0114,-6.0114,-5.9844,-5.9336,-5.9336,-5.893,-8.0953,-8.4065,-8.6569,-8.5046,-8.075,-7.5946,0.0,0.0,-6.0892,-5.9336,-5.7814,-5.7036,-5.7746,-5.7881,-5.7881,-5.7915,-5.981,0.0,-6.6305,-6.9383,-7.2699,0.0,-7.7604,-7.9498,-8.3186,-8.5587,-8.6298,-8.4742,-8.464,-8.464,-8.464,-8.464,-8.464,-8.464,-8.464,-8.464,-8.464,-8.3896,-8.3152,-8.2408,-8.1663,-8.0919,-8.0175,-7.9464,-7.872,-7.7942,-7.7232,-7.6454,-7.5709,-7.5709,-7.527,-7.4525,-7.3781,-7.3037,-7.2326,-7.1582,-7.1312,-7.1312,-7.1312,-7.1312,-7.1312,-7.1312,-7.1312,-7.1312,-7.1312,-7.1312,-7.1312,-7.1312,-7.1312,-7.1312,-7.1312,-7.1312,-7.1312,-7.1312,-7.1312,-7.1312,-7.1312,-7.1312,-7.1312,-7.1312,-7.1312,-7.1312,-7.1312,-7.1312,-7.1312,-7.1312,-7.0635,-7.0161,-7.0161,-6.8842,-6.7895,-6.7895,-6.6542,-6.5358,-6.4647,-6.3903,-6.2854,-6.14,-6.1298,-6.1298,-6.1298,-6.052,-6.0486,-6.1264,-6.052,-6.0114,-6.0114,-6.0114,-6.0114,-6.008,-6.008,-5.9708,-7.6657,-7.8754,-7.9938,-7.9464,-7.5811,-7.1718,-6.9485,0.0,-6.0858,-5.9336,-5.822,-5.7611,-5.7848,-5.7881,-5.8389,-5.9979,-6.0825,0.0,0.0,0.0,0.0,-7.6386,-8.2035,-8.5621,-8.5824,-8.6501,-8.6264,-8.4742,-8.464,-8.464,-8.464,-8.464,-8.464,-8.464,-8.464,-8.437,-8.3862,-8.4133,-8.3389,-8.1629,-8.1934,-8.1393,-8.0175,-7.9972,-7.9464,-7.872,-7.7976,-7.7198,-7.6487,-7.5912,-7.4965,-7.3815,-7.3578,-7.2732,-7.1616,-7.1413,-7.1312,-7.1312,-7.1312,-7.1312,-7.1312,-7.1312,-7.1312,-7.1312,-7.1312,-7.1312,-7.1312,-7.1312,-7.1312,-7.1312,-7.1312,-7.1312,-7.1312,-7.1312,-7.1312,-7.1312,-7.1312,-7.1312,-7.1312,-7.1312,-7.1312,-7.1312,-7.1312,-7.1312,-7.1312,-7.1312,-7.0669,-7.0195,-7.0195,-6.9316,-6.8504,-6.7963,-6.7489,-6.6711,-6.5459,-6.4681,-6.4038,-6.3599,-6.3091,-6.2821,-6.2821,-6.2076,-6.1772,-6.2042,-6.1806,-6.167,-6.167,-6.167,-6.14,-6.0926,-6.0351,-5.9708,0.0,-7.5033,-7.6048,-7.6048,-7.2868,0.0,0.0,-6.4478,-6.1028,-6.008,-5.8829,-5.8051,-5.8626,-5.849,-5.8795,-6.0216,-6.0926,-6.1975,0.0,0.0,-7.1548,-7.6318,-8.2847,-8.6399,-8.4945,-8.6061,-8.6264,-8.4742,-8.464,-8.464,-8.464,-8.464,-8.464,-8.464,-8.464,-8.4268,-8.349,-8.3693,-8.2949,-8.1291,-8.1494,-8.0953,-7.9769,-7.9769,-7.9228,-7.8247,-7.7773,-7.713,0.0,-7.5608,-7.4559,-7.3443,-7.3172,-7.236,-7.1312,-7.1312,-7.1312,-7.1312,-7.1312,-7.1312,-7.1312,-7.1312,-7.1312,-7.1312,-7.1312,-7.1312,-7.1312,-7.1312,-7.1312,-7.1312,-7.1312,-7.1312,-7.1312,-7.1312,-7.1312,-7.1312,-7.1312,-7.1312,-7.1312,-7.1312,-7.1312,-7.1312,-7.1312,-7.1312,-7.1312,-7.1312,-7.0906,-7.0601,-7.0601,-6.9958,-6.9316,-6.8808,-6.8233,-6.7523,-6.6609,-6.5595,-6.4884,-6.4613,-6.4174,-6.3937,-6.3937,-6.3463,-6.3226,-6.3226,-6.2956,-6.2821,-6.2821,-6.2516,-6.2144,-6.1704,-6.1197,-6.0554,0.0,-7.2428,0.0,0.0,0.0,0.0,0.0,-6.4275,0.0,-6.1231,-5.9438,-5.8355,-5.9844,-5.9505,-5.9099,-5.9302,-6.0486,-6.1941,-6.3531,-6.7151,-7.1582,-7.6758,-8.1122,-8.3152,-8.1596,-8.4708,-8.623,-8.4742,-8.464,-8.464,-8.464,-8.464,-8.4606,-8.4539,-8.4539,-8.42,-8.3422,-8.2746,-8.1968,-8.1122,-8.0479,-7.9803,-7.9025,-7.9025,-7.828,-7.6961,-7.686,-7.6386,-7.5642,-7.4864,-7.4086,-7.3341,-7.2665,-7.1954,-7.1312,-7.1312,-7.1312,-7.1312,-7.1312,-7.1312,-7.1312,-7.1312,-7.1312,-7.1312,-7.1312,-7.1312,-7.1312,-7.1312,-7.1312,-7.1312,-7.1312,-7.1312,-7.1312,-7.1312,-7.1312,-7.1312,-7.1312,-7.1312,-7.1312,-7.1312,-7.1312,-7.1312,-7.1312,-7.1312,-7.1312,-7.1312,-7.1312,-7.1312,-7.1312,-7.0703,-7.0263,-7.0195,-6.891,-6.803,-6.7996,-6.6677,-6.5527,-6.4816,-6.4749,-6.4749,-6.4681,-6.4647,-6.4613,-6.4613,-6.3937,-6.3599,-6.3599,-6.2888,-6.2516,-6.2482,-6.2482,-6.2042,-6.7455,0.0,-6.7218,-6.8368,-6.6271,-6.4072,0.0,-6.2381,-6.0385,-6.0385,-5.9066,-5.8355,-5.9844,-5.9505,-5.9776,-6.2076,-6.2279,-6.3057,-6.5662,-7.1244,-7.6792,-8.1393,-8.4403,-8.5283,-8.3186,-8.4843,-8.5655,-8.4708,-8.464,-8.464,-8.464,-8.464,-8.437,-8.3795,-8.3761,-8.3389,-8.2678,-8.2509,-8.146,-7.9634,-8.0006,-7.9498,-7.8247,-7.8247,-7.8044,-7.7671,-7.6487,-7.5879,-7.5608,-7.4289,-7.3308,-7.2631,-7.2462,-7.1954,-7.1312,-7.1312,-7.1312,-7.1312,-7.1312,-7.1312,-7.1312,-7.1312,-7.1312,-7.1312,-7.1312,-7.1312,-7.1312,-7.1312,-7.1312,-7.1312,-7.1312,-7.1312,-7.1312,-7.1312,-7.1312,-7.1312,-7.1312,-7.1312,-7.1312,-7.1312,-7.1312,-7.1312,-7.1312,-7.1312,-7.1312,-7.1312,-7.1312,-7.1312,-7.1312,-7.1142,-7.0838,-7.0263,-6.9857,-6.9417,-6.8876,-6.7929,-6.7083,-6.6339,-6.6305,-6.6034,-6.5459,-6.4884,-6.4613,-6.4613,-6.4444,-6.4343,-6.4343,-6.4174,-6.3802,-6.326,-6.326,-6.255,-6.6711,-6.5967,-6.529,-6.6102,-6.458,-6.2922,-6.299,-6.1501,-6.0114,-6.0114,-5.893,-5.8355,-5.9844,-5.9505,-5.9674,-6.1637,-6.2212,-6.3903,-6.8267,-7.3206,-7.801,-8.2475,-8.437,-8.5114,-8.4606,-8.5283,-8.5452,-8.4674,-8.464,-8.464,-8.464,-8.4302,-8.393,-8.3524,-8.2847,-8.2306,-8.19,-8.1562,-8.0615,-7.9126,-7.916,-7.8585,-7.7468,-7.7096,-7.6758,-7.6352,-7.5202,-7.4695,-7.4593,-7.3443,-7.2766,-7.236,-7.2022,-7.165,-7.1312,-7.1312,-7.1312,-7.1312,-7.1312,-7.1312,-7.1312,-7.1312,-7.1312,-7.1312,-7.1312,-7.1312,-7.1312,-7.1312,-7.1312,-7.1312,-7.1312,-7.1312,-7.1312,-7.1312,-7.1312,-7.1312,-7.1312,-7.1312,-7.1312,-7.1312,-7.1312,-7.1312,-7.1312,-7.1312,-7.1312,-7.1312,-7.1312,-7.1312,-7.1312,-7.1312,-7.1142,-7.0737,-7.0398,-7.0026,-6.962,-6.9214,-6.8639,-6.7895,-6.7861,-6.7692,-6.7286,-6.6508,-6.5797,-6.5121,-6.5087,-6.4918,-6.4613,-6.4613,-6.441,-6.4005,-6.3666,-6.326,-6.6812,-6.644,-6.6,-6.5899,-6.4681,-6.3362,-6.2719,-6.1298,-6.0114,-6.0114,-5.893,-5.8355,-5.9844,-5.9708,-5.9641,-6.0486,-6.2279,-6.5628,-7.1515,-7.4559,-7.7773,-8.1934,-8.3152,-8.4099,-8.5182,-8.5486,-8.5317,-8.4674,-8.464,-8.464,-8.464,-8.3896,-8.3456,-8.3321,-8.19,-8.1054,-8.0953,-8.0344,-7.96,-7.8788,-7.8111,-7.7367,-7.6521,-7.5845,-7.5134,-7.439,-7.3646,-7.3308,-7.3274,-7.2529,-7.2225,-7.2157,-7.1548,-7.1312,-7.1312,-7.1312,-7.1312,-7.1312,-7.1312,-7.1312,-7.1312,-7.1312,-7.1312,-7.1312,-7.1312,-7.1312,-7.1312,-7.1312,-7.1312,-7.1312,-7.1312,-7.1312,-7.1312,-7.1312,-7.1312,-7.1312,-7.1312,-7.1312,-7.1312,-7.1312,-7.1312,-7.1312,-7.1312,-7.1312,-7.1312,-7.1312,-7.1312,-7.1312,-7.1312,-7.1312,-7.1312,-7.1312,-7.0737,-7.0364,-7.0364,-7.0364,-7.0094,-6.9485,-6.9316,-6.9214,-6.9113,-6.8335,-6.7354,-6.6237,-6.6102,-6.573,-6.5087,-6.5087,-6.4986,-6.4749,-6.414,-6.4106,-6.6812,-6.7184,-6.7421,-6.6812,-6.5053,-6.3497,-6.3362,-6.167,-6.0114,-6.0114,-5.893,-5.8355,-5.9844,-6.0554,-6.14,-6.2787,-6.6373,-7.0872,-7.6217,-7.7908,-7.9532,-8.2103,-8.3625,-8.4065,-8.3016,-8.4065,-8.4742,-8.464,-8.464,-8.464,-8.464,-8.3896,-8.3219,-8.2611,-8.1156,-8.0073,-7.9464,-7.9329,-7.8585,-7.7232,-7.713,-7.6318,-7.4965,-7.483,-7.4356,-7.3612,-7.2868,-7.2563,-7.2496,-7.1785,-7.1481,-7.1481,-7.1345,-7.1312,-7.1312,-7.1312,-7.1312,-7.1312,-7.1312,-7.1312,-7.1312,-7.1312,-7.1312,-7.1312,-7.1312,-7.1312,-7.1312,-7.1312,-7.1312,-7.1312,-7.1312,-7.1312,-7.1312,-7.1312,-7.1312,-7.1312,-7.1312,-7.1312,-7.1312,-7.1312,-7.1312,-7.1312,-7.1312,-7.1312,-7.1312,-7.1312,-7.1312,-7.1312,-7.1312,-7.1312,-7.1312,-7.1312,-7.121,-7.1142,-7.1142,-7.1142,-7.1109,-7.0973,-7.0364,-6.9755,-6.9113,-6.8335,-6.8098,-6.8571,-6.7895,-6.7523,-6.7387,-6.7387,-6.6745,-6.5527,-6.5392,-6.5087,-6.6812,-6.6779,-6.6711,-6.6812,-6.5459,-6.3666,-6.2042,-6.0554,-5.9641,-6.0013,-5.893,-5.8355,-5.9844,-6.0757,-6.2584,-6.6474,-7.0195,-7.3713,-7.6893,-7.801,-7.9329,-8.1528,-8.2408,-8.3016,-8.3558,-8.4234,-8.464,-8.464,-8.4234,-8.4031,-8.4031,-8.2915,-8.1968,-8.1224,-8.0175,-7.8855,-7.7299,-7.7705,-7.7367,-7.6251,-7.5845,-7.5067,-7.3984,-7.3612,-7.324,-7.2868,-7.2124,-7.1819,-7.1785,-7.1447,-7.1312,-7.1312,-7.1312,-7.1312,-7.1312,-7.1312,-7.1312,-7.1312,-7.1312,-7.1312,-7.1312,-7.1312,-7.1312,-7.1312,-7.1312,-7.1312,-7.1312,-7.1312,-7.1312,-7.1312,-7.1312,-7.1312,-7.1312,-7.1312,-7.1312,-7.1312,-7.1312,-7.1312,-7.1312,-7.1312,-7.1312,-7.1312,-7.1312,-7.1312,-7.1312,-7.1312,-7.1312,-7.1312,-7.1312,-7.1312,-7.1312,-7.1312,-7.1312,-7.1312,-7.1312,-7.1312,-7.1312,-7.1312,-7.0973,-7.0466,-6.9722,-6.935,-6.9113,-6.9113,-6.8741,-6.8538,-6.8538,-6.8098,-6.7557,-6.6846,-6.6068,-6.5493,-6.6609,-6.6271,-6.5933,-6.5797,-6.5053,-6.3869,-6.2076,-6.0825,-6.0317,-6.1231,-6.0385,-5.9742,-6.0723,-6.211,-6.4918,-7.0331,-7.3713,-7.6318,-7.8145,-7.8889,-7.9972,-8.1832,-8.2069,-8.2746,-8.4471,-8.464,-8.464,-8.464,-8.393,-8.349,-8.349,-8.1934,-8.0784,-8.0209,-7.916,-7.7671,-7.5709,-7.6149,-7.598,-7.5168,-7.4796,-7.4119,-7.3206,-7.2665,-7.2326,-7.2124,-7.1548,-7.1312,-7.1312,-7.1312,-7.1312,-7.1312,-7.1312,-7.1312,-7.1312,-7.1312,-7.1312,-7.1312,-7.1312,-7.1312,-7.1312,-7.1312,-7.1312,-7.1312,-7.1312,-7.1312,-7.1312,-7.1312,-7.1312,-7.1312,-7.1312,-7.1312,-7.1312,-7.1312,-7.1312,-7.1312,-7.1312,-7.1312,-7.1312,-7.1312,-7.1312,-7.1312,-7.1312,-7.1312,-7.1312,-7.1312,-7.1312,-7.1312,-7.1312,-7.1312,-7.1312,-7.1312,-7.1312,-7.1312,-7.1312,-7.1312,-7.1312,-7.1312,-7.1312,-7.1075,-7.0466,-7.0297,-7.0026,-6.962,-6.9451,-6.935,-6.935,-6.8741,-6.8233,-6.7861,-6.6745,-6.6034,-6.5967,-6.6237,-6.6102,-6.3396,-6.3159,-6.4072,-6.5899,-6.4715,-6.3599,-6.4986,-6.4647,-6.3937,-6.3362,-6.617,-6.9789,-7.368,-7.6826,-7.9769,-8.2611,-8.305,-8.3422,-8.4268,-8.437,-8.4437,-8.4606,-8.464,-8.464,-8.464,-8.393,-8.349,-8.349,-8.146,-8.0242,-8.0209,-7.8145,-7.6623,-7.5709,-7.51,-7.439,-7.3646,-7.4289,-7.3883,-7.2462,-7.2428,-7.2022,-7.1379,-7.1345,-7.1312,-7.1312,-7.1312,-7.1312,-7.1312,-7.1312,-7.1312,-7.1312,-7.1312,-7.1312,-7.1312,-7.1312,-7.1312,-7.1312,-7.1312,-7.1312,-7.1312,-7.1312,-7.1312,-7.1312,-7.1312,-7.1312,-7.1312,-7.1312,-7.1312,-7.1312,-7.1312,-7.1312,-7.1312,-7.1312,-7.1312,-7.1312,-7.1312,-7.1312,-7.1312,-7.1312,-7.1312,-7.1312,-7.1312,-7.1312,-7.1312,-7.1312,-7.1312,-7.1312,-7.1312,-7.1312,-7.1312,-7.1312,-7.1312,-7.1312,-7.1312,-7.1312,-7.1278,-7.1244,-7.0567,-7.05,-7.1142,-7.0466,-7.0094,-7.0094,-7.006,-6.9282,-6.7895,-6.7793,-6.7015,-6.5899,-6.5899,-6.573,-6.4174,-6.3632,-6.3869,-6.5155,-6.4783,-6.4749,-6.6677,-6.6474,-6.5899,-6.5628,-6.8267,-7.1548,-7.4762,-7.8213,-8.119,-8.3219,-8.3896,-8.4302,-8.4606,-8.464,-8.464,-8.464,-8.42,-8.393,-8.393,-8.2374,-8.146,-8.146,-7.9769,-7.8382,-7.7435,-7.6589,-7.5337,-7.3646,-7.3815,-7.3308,-7.2157,-7.2902,-7.2699,-7.1718,-7.1718,-7.1582,-7.1312,-7.1312,-7.1312,-7.1312,-7.1312,-7.1312,-7.1312,-7.1312,-7.1312,-7.1312,-7.1312,-7.1312,-7.1312,-7.1312,-7.1312,-7.1312,-7.1312,-7.1312,-7.1312,-7.1312,-7.1312,-7.1312,-7.1312,-7.1312,-7.1312,-7.1312,-7.1312,-7.1312,-7.1312,-7.1312,-7.1312,-7.1312,-7.1312,-7.1312,-7.1312,-7.1312,-7.1312,-7.1312,-7.1312,-7.1312,-7.1312,-7.1312,-7.1312,-7.1312,-7.1312,-7.1312,-7.1312,-7.1312,-7.1312,-7.1312,-7.1312,-7.1312,-7.1312,-7.1312,-7.1312,-7.1312,-7.1041,-7.1041,-7.1312,-7.1041,-7.0872,-7.0872,-7.0398,-6.9891,-6.9316,-6.8335,-6.7354,-6.4918,-6.4478,-6.4174,-6.3666,-6.3362,-6.3666,-6.5595,-6.6034,-6.6711,-6.9147,-6.8707,-6.803,-6.8504,-7.006,-7.2293,-7.5236,-7.8855,-8.1731,-8.2983,-8.3998,-8.4437,-8.3964,-8.4133,-8.4167,-8.3964,-8.3456,-8.305,-8.2813,-8.119,-8.0006,-7.9532,-7.8077,-7.669,-7.5405,-7.5134,-7.4153,-7.2428,-7.2902,-7.2529,-7.1312,-7.1819,-7.1785,-7.1312,-7.1312,-7.1312,-7.1312,-7.1312,-7.1312,-7.1312,-7.1312,-7.1312,-7.1312,-7.1312,-7.1312,-7.1312,-7.1312,-7.1312,-7.1312,-7.1312,-7.1312,-7.1312,-7.1312,-7.1312,-7.1312,-7.1312,-7.1312,-7.1312,-7.1312,-7.1312,-7.1312,-7.1312,-7.1312,-7.1312,-7.1312,-7.1312,-7.1312,-7.1312,-7.1312,-7.1312,-7.1312,-7.1312,-7.1312,-7.1312,-7.1312,-7.1312,-7.1312,-7.1312,-7.1312,-7.1312,-7.1312,-7.1312,-7.1312,-7.1312,-7.1312,-7.1312,-7.1312,-7.1312,-7.1312,-7.1312,-7.1312,-7.1312,-7.1312,-7.1312,-7.1312,-7.1312,-7.1312,-7.1312,-7.0804,-7.0432,-7.0161,-6.9113,-6.7963,-6.2787,-6.1873,-6.1332,-6.1332,-6.1873,-6.3599,-6.8098,-6.9113,-6.9958,-7.2902,-7.1751,-7.0669,-7.2124,-7.1819,-7.2293,-7.5202,-7.8822,-8.1528,-8.2306,-8.3659,-8.4065,-8.2577,-8.305,-8.3186,-8.2475,-8.2408,-8.2069,-8.1325,-8.0581,-7.9498,-7.8044,-7.6521,-7.5337,-7.4627,-7.3883,-7.3138,-7.2394,-7.2394,-7.2022,-7.1312,-7.1312,-7.1312,-7.1312,-7.1312,-7.1312,-7.1312,-7.1312,-7.1312,-7.1312,-7.1312,-7.1312,-7.1312,-7.1312,-7.1312,-7.1312,-7.1312,-7.1312,-7.1312,-7.1312,-7.1312,-7.1312,-7.1312,-7.1312,-7.1312,-7.1312,-7.1312,-7.1312,-7.1312,-7.1312,-7.1312,-7.1312,-7.1312,-7.1312,-7.1312,-7.1312,-7.1312,-7.1312,-7.1312,-7.1312,-7.1312,-7.1312,-7.1312,-7.1312,-7.1312,-7.1312,-7.1312,-7.1312,-7.1312,-7.1312,-7.1312,-7.1312,-7.1312,-7.1312,-7.1312,-7.1312,-7.1312,-7.1312,-7.1312,-7.1312,-7.1312,-7.1312,-7.1312,-7.1312,-7.1312,-7.1312,-7.1312,-7.1312,-7.1312,-7.0939,-7.0195,-7.0195,-6.8977,-6.3565,-6.3024,-6.2854,-6.2854,-6.3396,-6.485,-6.8301,-6.9485,-7.0838,-7.4322,-7.368,-7.2496,-7.2394,-7.2631,-7.3308,-7.4695,-7.7638,-8.0175,-8.1426,-8.2441,-8.2915,-8.2475,-8.2611,-8.2441,-8.1697,-8.1156,-8.0547,-7.9803,-7.8077,-7.6826,-7.642,-7.4965,-7.3815,-7.3071,-7.2834,-7.236,-7.165,-7.165,-7.1548,-7.1312,-7.1312,-7.1312,-7.1312,-7.1312,-7.1312,-7.1312,-7.1312,-7.1312,-7.1312,-7.1312,-7.1312,-7.1312,-7.1312,-7.1312,-7.1312,-7.1312,-7.1312,-7.1312,-7.1312,-7.1312,-7.1312,-7.1312,-7.1312,-7.1312,-7.1312,-7.1312,-7.1312,-7.1312,-7.1312,-7.1312,-7.1312,-7.1312,-7.1312,-7.1312,-7.1312,-7.1312,-7.1312,-7.1312,-7.1312,-7.1312,-7.1312,-7.1312,-7.1312,-7.1312,-7.1312,-7.1312,-7.1312,-7.1312,-7.1312,-7.1312,-7.1312,-7.1312,-7.1312,-7.1312,-7.1312,-7.1312,-7.1312,-7.1312,-7.1312,-7.1312,-7.1312,-7.1312,-7.1312,-7.1312,-7.1312,-7.1312,-7.1312,-7.1312,-7.121,-7.0973,-7.0432,-6.9823,-6.2212,-6.1738,-6.1941,-6.2854,-6.3835,-6.5459,-6.8774,-7.1007,-7.3172,-7.6014,-7.4695,-7.3206,-7.3646,-7.3105,-7.3172,-7.4762,-7.7096,-7.8957,-7.9837,-8.0885,-8.1325,-8.0716,-8.0919,-8.0818,-8.004,-7.9329,-7.8585,-7.7807,-7.6217,-7.4999,-7.4424,-7.3544,-7.2732,-7.1988,-7.1954,-7.1751,-7.1312,-7.1312,-7.1312,-7.1312,-7.1312,-7.1312,-7.1312,-7.1312,-7.1312,-7.1312,-7.1312,-7.1312,-7.1312,-7.1312,-7.1312,-7.1312,-7.1312,-7.1312,-7.1312,-7.1312,-7.1312,-7.1312,-7.1312,-7.1312,-7.1312,-7.1312,-7.1312,-7.1312,-7.1312,-7.1312,-7.1312,-7.1312,-7.1312,-7.1312,-7.1312,-7.1312,-7.1312,-7.1312,-7.1312,-7.1312,-7.1312,-7.1312,-7.1312,-7.1312,-7.1312,-7.1312,-7.1312,-7.1548,-7.165,-7.1345,-7.1312,-7.1312,-7.1312,-7.1312,-7.1312,-7.1312,-7.1312,-7.1312,-7.1312,-7.1312,-7.1312,-7.1312,-7.1312,-7.1312,-7.1312,-7.1312,-7.1312,-7.1312,-7.1312,-7.1312,-7.1312,-7.1312,-7.1312,-7.1312,-7.0838,-7.0466,-5.9776,-5.9235,-5.9776,-6.2009,-6.3903,-6.6136,-6.9586,-7.3037,-7.5879,-7.7299,-7.4965,-7.3274,-7.5134,-7.3308,-7.2394,-7.5067,-7.6724,-7.7705,-7.7773,-7.8991,-7.9363,-7.7942,-7.845,-7.8585,-7.7773,-7.7063,-7.6352,-7.5574,-7.483,-7.3815,-7.2462,-7.2326,-7.1988,-7.1345,-7.1312,-7.1312,-7.1312,-7.1244,-7.1244,-7.1312,-7.1244,-7.1244,-7.1312,-7.1312,-7.1312,-7.1312,-7.1312,-7.1312,-7.1312,-7.1312,-7.1312,-7.1312,-7.1312,-7.1312,-7.1312,-7.1312,-7.1312,-7.1312,-7.1312,-7.1312,-7.1312,-7.1312,-7.1312,-7.1312,-7.1312,-7.1312,-7.1312,-7.1312,-7.1312,-7.1312,-7.1312,-7.1312,-7.1312,-7.1312,-7.1312,-7.1312,-7.1312,-7.1312,-7.1312,-7.1312,-7.1312,-7.1312,-7.1312,-7.1853,-7.209,-7.1413,-7.1379,-7.1413,-7.1413,-7.1481,-7.1481,-7.1413,-7.1413,-7.1379,-7.1312,-7.1312,-7.1312,-7.1312,-7.1312,-7.1312,-7.1312,-7.1312,-7.1312,-7.1312,-7.1312,-7.1312,-7.1312,-7.1312,-7.1312,-7.1312,-7.1312,-7.0939,-6.0926,-6.0825,-6.1332,-6.3565,-6.7015,-7.0229,-7.1616,-7.2969,-7.4052,-7.439,-7.4728,-7.4762,-7.4086,-7.3443,-7.3206,-7.3849,-7.4728,-7.554,-7.6115,-7.6995,-7.7266,-7.6318,-7.6893,-7.6826,-7.5473,-7.5202,-7.4796,-7.4018,-7.3274,-7.2732,-7.2428,-7.1853,-7.1481,-7.1312,-7.1312,-7.1312,-7.1312,-7.0737,-7.0737,-7.1312,-7.0703,-7.0737,-7.1312,-7.1312,-7.1312,-7.1312,-7.1312,-7.1312,-7.1312,-7.1312,-7.1312,-7.1312,-7.1312,-7.1312,-7.1312,-7.1312,-7.1312,-7.1312,-7.1312,-7.1312,-7.1312,-7.1312,-7.1312,-7.1312,-7.1312,-7.1312,-7.1312,-7.1312,-7.1312,-7.1312,-7.1312,-7.1312,-7.1312,-7.1312,-7.1312,-7.1312,-7.1312,-7.1312,-7.1312,-7.1312,-7.1312,-7.1312,-7.1312,-7.1447,-7.1481,-7.1345,-7.1785,-7.2157,-7.2157,-7.2665,-7.28,-7.2225,-7.2157,-7.1921,-7.1379,-7.1312,-7.1312,-7.1312,-7.1312,-7.1312,-7.1312,-7.1312,-7.1312,-7.1312,-7.1312,-7.1312,-7.1312,-7.1312,-7.1312,-7.1312,-7.1312,-7.1244,-5.9979,-6.0452,-6.2076,-6.5358,-6.8774,-7.1413,-7.1785,-7.2428,-7.2868,-7.2529,-7.3341,-7.3984,-7.3578,-7.3206,-7.3071,-7.3443,-7.3815,-7.4221,-7.4593,-7.4999,-7.51,-7.4695,-7.4999,-7.4965,-7.4153,-7.3747,-7.3409,-7.3003,-7.2293,-7.1887,-7.1887,-7.1515,-7.1312,-7.1312,-7.0973,-7.077,-7.077,-7.0026,-6.9857,-7.0263,-7.0195,-7.0601,-7.1312,-7.1312,-7.1312,-7.1312,-7.1312,-7.1312,-7.1312,-7.1312,-7.1312,-7.1312,-7.1312,-7.1312,-7.1312,-7.1312,-7.1312,-7.1312,-7.1312,-7.1312,-7.1312,-7.1312,-7.1312,-7.1312,-7.1312,-7.1312,-7.1312,-7.1312,-7.1312,-7.1312,-7.1312,-7.1312,-7.1312,-7.1312,-7.1312,-7.1312,-7.1312,-7.1312,-7.1312,-7.1312,-7.1312,-7.1312,-7.1312,-7.1616,-7.1954,-7.2293,-7.2665,-7.2935,-7.2935,-7.324,-7.3341,-7.2969,-7.2935,-7.2631,-7.1887,-7.1853,-7.1684,-7.1345,-7.1312,-7.1312,-7.1312,-7.1312,-7.1312,-7.1312,-7.1312,-7.1312,-7.1312,-7.1312,-7.1312,-7.1312,-7.1312,-7.1312,-5.8795,-5.9945,-6.2685,-6.6846,-6.9519,-7.1142,-7.1278,-7.1785,-7.2056,-7.1447,-7.1887,-7.2563,-7.3003,-7.2631,-7.2428,-7.3003,-7.3105,-7.3105,-7.3105,-7.3206,-7.324,-7.3138,-7.3206,-7.324,-7.3105,-7.2563,-7.2225,-7.2225,-7.165,-7.1312,-7.1312,-7.1176,-7.1109,-7.1109,-7.0398,-6.9992,-6.9992,-6.9282,-6.8977,-6.9113,-6.9857,-7.0601,-7.1312,-7.1312,-7.1312,-7.1312,-7.1312,-7.1312,-7.1312,-7.1312,-7.1312,-7.1312,-7.1312,-7.1312,-7.1312,-7.1312,-7.1312,-7.1312,-7.1312,-7.1312,-7.1312,-7.1312,-7.1312,-7.1312,-7.1312,-7.1312,-7.1312,-7.1312,-7.1312,-7.1312,-7.1312,-7.1312,-7.1312,-7.1312,-7.1312,-7.1312,-7.1312,-7.1312,-7.1312,-7.1312,-7.1312,-7.1312,-7.1312,-7.1819,-7.2462,-7.3206,-7.3409,-7.3544,-7.3646,-7.3781,-7.3815,-7.368,-7.368,-7.3341,-7.2462,-7.2529,-7.2225,-7.1379,-7.1447,-7.1447,-7.1312,-7.1312,-7.1312,-7.1312,-7.1312,-7.1312,-7.1312,-7.1312,-7.1312,-7.1312,-7.1312,-7.1312,-5.9877,0.0,-6.3971,0.0,-6.9113,-7.05,0.0,0.0,-7.1447,-7.1345,-7.1887,-7.2225,-7.1684,-7.1515,-7.1481,-7.1582,-7.1616,-7.1616,-7.1616,-7.2157,-7.2326,-7.1684,-7.2157,-7.2293,-7.1684,-7.1515,-7.1447,-7.1447,-7.1379,-7.1312,-7.1312,-7.0703,-7.0331,-7.0331,-6.962,-6.9248,-6.9248,-6.847,-6.8402,-6.9113,-6.9857,-7.0601,-7.1312,-7.1312,-7.1312,-7.1312,-7.1312,-7.1312,-7.1312,-7.1312,-7.1312,-7.1312,-7.1312,-7.1312,-7.1312,-7.1312,-7.1312,-7.1312,-7.1312,-7.1312,-7.1312,-7.1312,-7.1312,-7.1312,-7.1312,-7.1312,-7.1312,-7.1312,-7.1312,-7.1312,-7.1312,-7.1312,-7.1312,-7.1312,-7.1312,-7.1312,-7.1312,-7.1312,-7.1312,-7.1312,-7.1312,-7.1312,-7.1312,-7.1379,-7.1718,-7.2428,-7.3071,-7.3713,-7.439,-7.4999,-7.5168,-7.4525,-7.4458,-7.3916,-7.2529,-7.2969,-7.2766,-7.1413,-7.1921,-7.1988,-7.1345,-7.1312,-7.1312,-7.1312,-7.1312,-7.1312,-7.1312,-7.1312,-7.1312,-7.1312,-7.1312,-7.1312,-6.0892,-6.1163,-6.2415,0.0,-6.7489,-6.8605,-6.9789,-7.006,-7.006,-7.006,-7.0331,-7.0703,-7.121,-7.1312,-7.1312,-7.1312,-7.1312,-7.1312,-7.1312,-7.1582,-7.1684,-7.1345,-7.1616,-7.1684,-7.1345,-7.1312,-7.1312,-7.1312,-7.1312,-7.1142,-7.0703,-7.0364,-6.9992,-6.9586,-6.8842,-6.8436,-6.8436,-6.7658,-6.7895,-6.9113,-6.9857,-7.0601,-7.1312,-7.1312,-7.1312,-7.1312,-7.0872,-7.0669,-7.0669,-7.0669,-7.0669,-7.0737,-7.1142,-7.1312,-7.1312,-7.1312,-7.1312,-7.1312,-7.1312,-7.1312,-7.1312,-7.1312,-7.1312,-7.1312,-7.1312,-7.1312,-7.1312,-7.1312,-7.1312,-7.1312,-7.1312,-7.1312,-7.1312,-7.1312,-7.1312,-7.1312,-7.1312,-7.1312,-7.1312,-7.1312,-7.165,-7.1785,-7.1379,-7.165,-7.2157,-7.2902,-7.3646,-7.439,-7.5134,-7.5506,-7.5574,-7.527,-7.5236,-7.4796,-7.3713,-7.3916,-7.3646,-7.2597,-7.2834,-7.2868,-7.2563,-7.2157,-7.1921,-7.1921,-7.1515,-7.1312,-7.1312,-7.1312,-7.1312,-7.1312,-7.1312,-7.1312,0.0,0.0,-6.1061,-6.3869,-6.529,-6.6373,0.0,0.0,-6.8571,-6.8774,-6.8977,-6.9383,-7.0263,-7.0601,-7.0737,-7.0737,-7.0737,-7.0737,-7.0737,-7.0906,-7.0973,-7.077,-7.1075,-7.1176,-7.0804,-7.1109,-7.1142,-7.077,-7.0906,-7.0703,-6.9958,-6.9722,-6.935,-6.8808,-6.803,-6.7624,-6.7624,-6.7252,-6.7861,-6.9383,-6.9925,-7.0601,-7.1312,-7.1312,-7.1312,-7.1278,-7.05,-7.0195,-7.0161,-6.9992,-7.0026,-7.0229,-7.0804,-7.1142,-7.1312,-7.1312,-7.1312,-7.1312,-7.1312,-7.1312,-7.1312,-7.1312,-7.1312,-7.1312,-7.1312,-7.1312,-7.1312,-7.1312,-7.1312,-7.1312,-7.1312,-7.1312,-7.1379,-7.1548,-7.1447,-7.1379,-7.1548,-7.1582,-7.165,-7.1819,-7.2293,-7.2496,-7.1954,-7.2157,-7.2699,-7.3646,-7.4086,-7.4661,-7.5574,-7.5709,-7.5709,-7.5709,-7.5709,-7.5405,-7.4661,-7.4796,-7.4492,-7.3544,-7.368,-7.3612,-7.324,-7.2699,-7.2326,-7.2124,-7.1582,-7.1312,-7.1312,-7.1312,-7.1312,-7.1312,-7.1312,-7.1312,0.0,-6.0182,0.0,-6.1467,-6.2618,-6.4072,0.0,0.0,-6.7117,-6.7827,-6.8571,-6.8876,-6.8199,-6.8707,-6.9214,-6.9214,-6.9214,-6.9214,-6.9214,-6.9823,-6.9992,-6.9316,-7.0466,-7.077,-6.935,-7.05,-7.0737,-6.9316,-6.9857,-6.9925,-6.9214,-6.8436,-6.7996,-6.7963,-6.7252,-6.688,-6.688,-6.7523,-6.8605,-7.0128,-7.0161,-7.0601,-7.1312,-7.1312,-7.1312,-7.1278,-7.05,-7.0195,-7.0128,-6.9451,-6.9553,-7.0195,-7.0229,-7.0669,-7.1312,-7.1312,-7.1312,-7.1312,-7.1312,-7.1312,-7.1312,-7.1312,-7.1312,-7.1312,-7.1312,-7.1312,-7.1312,-7.1312,-7.1312,-7.1312,-7.1312,-7.1312,-7.1481,-7.2191,-7.1819,-7.1515,-7.2191,-7.2326,-7.2563,-7.324,-7.3409,-7.3409,-7.3375,-7.2834,-7.2902,-7.4356,-7.3984,-7.4052,-7.5506,-7.5709,-7.5709,-7.5709,-7.5709,-7.5405,-7.4661,-7.5236,-7.5033,-7.3578,-7.4153,-7.3916,-7.2529,-7.2428,-7.209,-7.1379,-7.1345,-7.1312,-7.1312,-7.1312,-7.1312,-7.1312,-7.1312,-7.1312,0.0,0.0,0.0,-6.1061,-6.1332,-6.1738,-6.3226,-6.414,-6.4783,-6.5019,-6.5696,-6.6136,-6.5831,-6.7184,-6.8335,-6.8335,-6.7929,-6.7963,-6.8977,-6.847,-6.8301,-6.9011,-6.9113,-6.9113,-6.9113,-6.9586,-6.9688,-6.9147,-6.935,-6.9147,-6.8368,-6.8064,-6.7692,-6.7218,-6.6948,-6.7049,-6.7489,-6.8267,-6.918,-7.0195,-7.0669,-7.1041,-7.1312,-7.1312,-7.1041,-7.0534,-6.9823,-6.9485,-6.9417,-6.8639,-6.8504,-6.8808,-6.9789,-7.0364,-7.0635,-7.1142,-7.1312,-7.1312,-7.1312,-7.1312,-7.1312,-7.1312,-7.1312,-7.1312,-7.1312,-7.1312,-7.1312,-7.1312,-7.1312,-7.1312,-7.1312,-7.1312,-7.1515,-7.2225,-7.2191,-7.236,-7.3544,-7.3443,-7.3172,-7.3443,-7.3883,-7.4052,-7.3578,-7.3274,-7.3443,-7.4458,-7.439,-7.4559,-7.5574,-7.5709,-7.5709,-7.5709,-7.5709,-7.5574,-7.5337,-7.554,-7.5473,-7.4931,-7.5168,-7.5067,-7.4525,-7.4052,-7.3713,-7.3443,-7.2496,-7.1785,-7.1312,-7.1312,-7.1312,-7.1312,-7.1312,-7.1312,-6.1941,0.0,0.0,0.0,-6.0317,-6.0013,-6.1028,-6.1839,-6.2381,-6.2381,-6.3159,-6.3802,-6.3531,-6.4681,-6.5933,-6.6677,-6.617,-6.6136,-6.7421,-6.6914,-6.6711,-6.7489,-6.7557,-6.7658,-6.7929,-6.8402,-6.8504,-6.7996,-6.8402,-6.8233,-6.7218,-6.7387,-6.732,-6.6846,-6.6812,-6.7151,-6.7895,-6.8707,-6.9451,-7.0195,-7.0973,-7.1312,-7.1312,-7.1312,-7.0906,-7.0161,-6.9417,-6.8944,-6.8673,-6.8132,-6.8064,-6.8436,-6.9688,-7.0331,-7.0635,-7.1142,-7.1312,-7.1312,-7.1312,-7.1312,-7.1312,-7.1312,-7.1312,-7.1312,-7.1312,-7.1312,-7.1312,-7.1312,-7.1312,-7.1312,-7.1312,-7.1684,-7.209,-7.2326,-7.2766,-7.3409,-7.439,-7.4221,-7.3916,-7.4187,-7.4627,-7.483,-7.4322,-7.4018,-7.4119,-7.4864,-7.4762,-7.4864,-7.5608,-7.5709,-7.5709,-7.5709,-7.5709,-7.5709,-7.5709,-7.5709,-7.5709,-7.5709,-7.5709,-7.5574,-7.5337,-7.4627,-7.4119,-7.3883,-7.2902,-7.2157,-7.1684,-7.1684,-7.1548,-7.1312,-7.1548,-7.1548,0.0,0.0,0.0,0.0,0.0,0.0,-5.9032,0.0,-6.008,-6.008,-6.1264,-6.211,-6.14,-6.1231,-6.1907,-6.4106,-6.3869,-6.3666,-6.4444,-6.5121,-6.529,-6.4647,-6.5831,-6.6406,-6.573,-6.6948,-6.7218,-6.5764,-6.7015,-6.7218,-6.5764,-6.6406,-6.6812,-6.6812,-6.6812,-6.7151,-6.7895,-6.8707,-6.9451,-7.0195,-7.0973,-7.1312,-7.1312,-7.1312,-7.0872,-7.0128,-6.9383,-6.8605,-6.7895,-6.7895,-6.8368,-6.9147,-6.9891,-7.0635,-7.1278,-7.1312,-7.1312,-7.1312,-7.1312,-7.1312,-7.1312,-7.1312,-7.1312,-7.1312,-7.1312,-7.1312,-7.1312,-7.1312,-7.1312,-7.1312,-7.1312,-7.2394,-7.3274,-7.2597,-7.3544,-7.4627,-7.4661,-7.4661,-7.4864,-7.5574,-7.5709,-7.5709,-7.5709,-7.51,-7.4897,-7.5574,-7.51,-7.4897,-7.5608,-7.5709,-7.5709,-7.5743,-7.5709,-7.5709,-7.5743,-7.5709,-7.5709,-7.5709,-7.5709,-7.5371,-7.4661,-7.395,-7.3206,-7.2496,-7.2462,-7.2462,-7.2462,-7.2428,-7.2022,-7.1379,-7.2056,-7.1988,-6.4377,0.0,0.0,0.0,0.0,0.0,0.0,0.0,-5.9302,-5.9302,-6.008,-6.0655,-6.0452,-5.9573,-5.937,-6.1061,-6.1163,-6.1501,-6.2821,-6.2212,-6.2178,-6.3632,-6.37,-6.3971,-6.4816,-6.5256,-6.5358,-6.4918,-6.5764,-6.6102,-6.5696,-6.6406,-6.6812,-6.6812,-6.6812,-6.7151,-6.7895,-6.8707,-6.9451,-7.0195,-7.0973,-7.1312,-7.1312,-7.0737,-7.0094,-6.935,-6.8571,-6.8098,-6.7895,-6.7895,-6.803,-6.8368,-6.9688,-7.0297,-7.0567,-7.1109,-7.1312,-7.1312,-7.1312,-7.1312,-7.1312,-7.1312,-7.1312,-7.1312,-7.1312,-7.1312,-7.1312,-7.1312,-7.1312,-7.1312,-7.1312,-7.1988,-7.28,-7.3105,-7.3916,-7.4762,-7.527,-7.5405,-7.5473,-7.5676,-7.5709,-7.5709,-7.5709,-7.554,-7.5473,-7.5676,-7.554,-7.5473,-7.5676,-7.5709,-7.5912,-7.6521,-7.6048,-7.5946,-7.6521,-7.6048,-7.5709,-7.5709,-7.5709,-7.5608,-7.5405,-7.5202,-7.4999,-7.4796,-7.4255,-7.3984,-7.3984,-7.2935,-7.2293,-7.209,-7.1751,-7.1515,-6.6305,-6.5121,-6.4072,-6.3463,0.0,0.0,-5.9235,-5.9032,-5.8761,-5.7777,-5.822,-5.8626,-5.8321,-5.7577,-5.7374,-5.8524,-5.8727,-5.937,-6.1163,-6.0655,-6.0588,-6.1941,-6.1704,-6.1907,-6.3125,-6.3497,-6.3666,-6.3666,-6.4918,-6.5831,-6.6136,-6.6576,-6.6812,-6.6812,-6.6812,-6.7015,-6.7455,-6.8199,-6.8977,-6.9755,-7.05,-7.1007,-7.1312,-7.0872,-7.0094,-6.9079,-6.8605,-6.8199,-6.7929,-6.8267,-6.8571,-6.8977,-7.0195,-7.0669,-7.0703,-7.1142,-7.1312,-7.1312,-7.1312,-7.1312,-7.1312,-7.1312,-7.1312,-7.1312,-7.1312,-7.1312,-7.1312,-7.1312,-7.1312,-7.1379,-7.1684,-7.2326,-7.3037,-7.3781,-7.4525,-7.5168,-7.5608,-7.5709,-7.5709,-7.5709,-7.5709,-7.5709,-7.5709,-7.5709,-7.5709,-7.5709,-7.5709,-7.5709,-7.5709,-7.5709,-7.6014,-7.6826,-7.6183,-7.6014,-7.6826,-7.6149,-7.5709,-7.5709,-7.5709,-7.5709,-7.5709,-7.5405,-7.5236,-7.5236,-7.483,-7.4627,-7.4627,-7.3747,-7.3172,-7.2834,-7.209,-7.1616,-6.8233,-6.7489,-6.6609,-6.5189,-6.3734,0.0,-5.9877,-5.9336,-5.866,-5.6528,-5.6596,-5.6833,-5.6089,-5.5886,-5.6089,-5.6799,-5.6867,-5.7509,-5.9573,-5.9844,-5.9877,-5.9979,-5.9979,-6.0283,-6.1095,-6.1839,-6.2279,-6.2279,-6.4309,-6.5933,-6.6779,-6.6812,-6.6812,-6.6812,-6.6812,-6.6812,-6.6812,-6.7523,-6.8267,-6.8977,-6.9722,-7.0466,-7.1176,-7.1007,-7.0297,-6.9214,-6.9045,-6.8605,-6.8098,-6.8876,-6.962,-7.0263,-7.1007,-7.1312,-7.1312,-7.1312,-7.1312,-7.1312,-7.1312,-7.1312,-7.1312,-7.1312,-7.1312,-7.1312,-7.1312,-7.1312,-7.1312,-7.1312,-7.1312,-7.1481,-7.2225,-7.2935,-7.368,-7.4424,-7.51,-7.5608,-7.5676,-7.5642,-7.5608,-7.5676,-7.5709,-7.5709,-7.5709,-7.5709,-7.5709,-7.5709,-7.5709,-7.5709,-7.5709,-7.5709,-7.6048,-7.6927,-7.6318,-7.6149,-7.6961,-7.6284,-7.5811,-7.5709,-7.5709,-7.5709,-7.5709,-7.5067,-7.4728,-7.4728,-7.4728,-7.4728,-7.4728,-7.4661,-7.4221,-7.3477,-7.2732,-7.2056,-6.9079,-6.8301,-6.7489,-6.6609,-6.5256,0.0,-6.211,-6.1264,-6.0385,-5.8727,-5.849,-5.8355,-5.7611,-5.7002,-5.6833,-5.7577,-5.7171,-5.7171,-5.8186,-5.8321,-5.8558,-5.9167,-5.9235,-5.9505,-6.025,-6.1061,-6.1501,-6.1501,-6.3565,-6.5392,-6.6745,-6.6812,-6.6812,-6.6812,-6.6812,-6.6812,-6.6812,-6.7523,-6.7996,-6.8132,-6.8944,-6.9688,-7.0364,-6.9113,-6.9079,-6.9891,-6.8673,-6.8402,-6.891,-6.9688,-7.006,-7.0263,-7.1007,-7.1312,-7.1312,-7.1312,-7.1312,-7.1312,-7.1312,-7.1312,-7.1312,-7.1312,-7.1312,-7.1312,-7.1312,-7.1312,-7.1312,-7.1312,-7.1312,-7.1481,-7.2225,-7.2935,-7.368,-7.4424,-7.4728,-7.4999,-7.5574,-7.5236,-7.4999,-7.5574,-7.5709,-7.5709,-7.5709,-7.5709,-7.5709,-7.5709,-7.5709,-7.5709,-7.5709,-7.5709,-7.6217,-7.7638,-7.7096,-7.6961,-7.7705,-7.7096,-7.6386,-7.5743,-7.5709,-7.5709,-7.5709,-7.5574,-7.5473,-7.5473,-7.5473,-7.5473,-7.5473,-7.4897,-7.4221,-7.3477,-7.2732,-7.2326,-7.0297,-6.962,-6.8876,-6.8132,-6.6812,0.0,0.0,-6.2651,-6.1298,-5.9404,-5.8727,-5.8118,-5.7002,-5.6494,-5.6494,-5.7239,-5.7036,-5.707,-5.778,-5.7881,-5.8017,-5.8423,-5.8457,-5.8592,-5.8964,-6.0047,-6.1332,-6.2821,-6.4309,-6.5628,-6.6745,-6.6812,-6.6812,-6.6812,-6.6812,-6.6812,-6.6812,-6.7184,-6.7557,-6.7895,-6.8301,-6.891,-6.962,-6.8842,-6.8707,-6.9011,-6.8233,-6.8368,-6.9113,-6.9079,-6.9485,-7.0263,-7.1007,-7.1075,-7.0804,-7.1176,-7.1312,-7.1312,-7.1312,-7.1312,-7.1312,-7.1312,-7.1312,-7.1312,-7.1312,-7.1312,-7.1312,-7.1312,-7.1312,-7.1481,-7.2225,-7.2935,-7.368,-7.4424,-7.4897,-7.5236,-7.5608,-7.5405,-7.527,-7.5642,-7.5709,-7.5709,-7.5709,-7.5709,-7.5709,-7.5709,-7.5709,-7.5709,-7.5709,-7.5709,-7.6149,-7.7333,-7.6758,-7.6758,-7.7874,-7.6961,-7.6284,-7.6284,-7.5912,-7.5709,-7.5709,-7.5709,-7.5709,-7.5709,-7.5709,-7.5709,-7.5709,-7.5337,-7.4762,-7.4018,-7.3274,-7.2732,-7.1312,-7.0872,-7.0229,-6.9485,-6.8267,-6.6846,0.0,0.0,0.0,-6.0114,0.0,0.0,0.0,0.0,0.0,-5.6731,0.0,0.0,0.0,-5.7814,0.0,-5.7881,-5.7881,-5.7949,-5.8084,-5.9302,-6.1298,-6.4174,-6.4816,-6.5493,-6.6542,-6.6474,-6.6508,-6.6812,-6.6677,-6.6677,-6.6812,-6.6812,-6.7117,-6.7692,-6.7692,-6.8199,-6.9079,-6.8944,-6.8673,-6.8335,-6.8199,-6.8402,-6.8842,-6.8335,-6.8774,-6.9823,-7.0737,-7.0737,-7.0297,-7.1041,-7.1312,-7.1312,-7.1312,-7.1312,-7.1312,-7.1312,-7.1312,-7.1312,-7.1312,-7.1312,-7.1312,-7.1312,-7.1312,-7.1481,-7.2225,-7.2935,-7.368,-7.4424,-7.5067,-7.554,-7.5676,-7.5574,-7.554,-7.5676,-7.5709,-7.5709,-7.5709,-7.5709,-7.5709,-7.5709,-7.5709,-7.5709,-7.5709,-7.5709,-7.6014,-7.6826,-7.6318,-7.6487,-7.7874,-7.686,-7.6352,-7.686,-7.6284,-7.5845,-7.5709,-7.5709,-7.5777,-7.5912,-7.5777,-7.5709,-7.5709,-7.5709,-7.5405,-7.4796,-7.4052,-7.3375,-7.1312,-7.1244,-7.1007,-7.0263,-6.9451,-6.8436,-6.6914,0.0,-6.4681,-6.2448,0.0,0.0,0.0,0.0,0.0,0.0,0.0,0.0,-5.7002,-5.7476,-5.7881,-5.7881,-5.7881,-5.8152,-5.8829,-5.9607,-6.1095,-6.3463,-6.3091,-6.3666,-6.5696,-6.5222,-6.5459,-6.6779,-6.617,-6.6136,-6.6812,-6.6812,-6.6846,-6.6948,-6.6948,-6.7692,-6.9079,-6.8368,-6.8741,-6.9891,-6.9248,-6.8605,-6.8098,-6.8707,-6.8639,-6.8301,-6.9755,-7.0263,-7.0297,-7.1041,-7.1312,-7.1312,-7.1312,-7.1312,-7.1312,-7.1312,-7.1312,-7.1312,-7.1312,-7.1312,-7.1312,-7.1312,-7.1312,-7.1481,-7.2225,-7.2935,-7.368,-7.4424,-7.4661,-7.4897,-7.5574,-7.5202,-7.4931,-7.5574,-7.5709,-7.5709,-7.5709,-7.5709,-7.5709,-7.5709,-7.5709,-7.5709,-7.5709,-7.5709,-7.6014,-7.6826,-7.6826,-7.7096,-7.7908,-7.7841,-7.7502,-7.6927,-7.6826,-7.6454,-7.5743,-7.5709,-7.6048,-7.6758,-7.6048,-7.5709,-7.5709,-7.5709,-7.5676,-7.5574,-7.483,-7.4458,-7.1312,-7.1312,-7.1244,-7.0939,-6.9958,-6.8944,-6.8301,-6.688,-6.529,-6.3937,0.0,0.0,0.0,0.0,0.0,0.0,-5.8355,0.0,0.0,0.0,-5.7881,-5.7881,0.0,0.0,-5.9539,-6.0351,-6.1569,-6.3362,-6.3599,-6.4275,-6.5628,-6.5392,-6.5527,-6.6136,-6.5865,-6.5831,-6.617,-6.6609,-6.6812,-6.6812,-6.7252,-6.7793,-6.8402,-6.8538,-6.8944,-6.9519,-6.8741,-6.847,-6.8538,-6.7996,-6.8098,-6.8673,-6.9316,-6.9823,-7.0297,-7.1041,-7.1312,-7.1312,-7.1312,-7.1312,-7.1312,-7.1312,-7.1312,-7.1312,-7.1312,-7.1312,-7.1312,-7.1312,-7.1312,-7.1379,-7.1684,-7.2631,-7.3578,-7.3883,-7.4627,-7.5337,-7.5642,-7.5473,-7.5337,-7.5642,-7.5709,-7.5709,-7.5709,-7.5709,-7.5709,-7.5709,-7.5709,-7.5709,-7.5709,-7.5709,-7.5845,-7.6183,-7.6183,-7.6521,-7.7299,-7.6927,-7.6724,-7.6893,-7.6893,-7.6758,-7.642,-7.6792,-7.7198,-7.7536,-7.7198,-7.6826,-7.6386,-7.6826,-7.6133,-7.4489,-7.4551,-7.4627,-7.1312,-7.1312,-7.1312,-7.1312,-7.0364,-6.9383,-6.9383,-6.7963,-6.6339,-6.5392,-6.4038,0.0,0.0,0.0,0.0,0.0,0.0,-5.8693,0.0,-5.7746,0.0,0.0,0.0,0.0,0.0,-6.0317,-6.1298,-6.2787,-6.3193,-6.3869,-6.5019,-6.5087,-6.5256,-6.5662,-6.5696,-6.5797,-6.6,-6.6542,-6.6812,-6.6812,-6.7557,-6.803,-6.8267,-6.9045,-6.9383,-6.935,-6.8571,-6.8436,-6.8673,-6.7557,-6.7895,-6.9113,-6.9316,-6.9857,-7.0567,-7.1109,-7.1312,-7.1312,-7.1312,-7.1312,-7.1312,-7.1312,-7.1312,-7.1312,-7.1312,-7.1312,-7.1222,-7.0837,-7.1007,-7.1222,-7.0837,-7.182,-7.3023,-7.3384,-7.4357,-7.5209,-7.5628,-7.5709,-7.5709,-7.5709,-7.5709,-7.5777,-7.598,-7.6014,-7.6014,-7.6014,-7.6014,-7.6014,-7.6014,-7.5845,-7.5709,-7.5709,-7.5709,-7.6115,-7.713,-7.6487,-7.6352,-7.7164,-7.6995,-7.7096,-7.7502,-7.7807,-7.8077,-7.828,-7.7908,-7.7435,-7.6893,-7.6822,-7.5706,-7.365,-7.4713,-7.4911,-7.1312,-7.1312,-7.1312,-7.1312,-7.0737,-7.0161,-7.0161,-6.9553,-6.8571,-6.7049,-6.5561,-6.4072,-6.2618,0.0,0.0,0.0,0.0,0.0,0.0,0.0,0.0,0.0,0.0,0.0,0.0,-5.9066,-5.9708,-6.1264,-6.0655,-6.1231,-6.3463,-6.3599,-6.4241,-6.5628,-6.5696,-6.6034,-6.6779,-6.6812,-6.6812,-6.6812,-6.7557,-6.8301,-6.9079,-6.9823,-7.0161,-7.0094,-6.9383,-6.8639,-6.7929,-6.7895,-6.8335,-6.918,-6.9891,-7.0635,-7.1278,-7.1312,-7.1312,-7.1312,-7.1312,-7.1312,-7.1312,-7.1312,-7.1312,-7.1312,-7.1312,-7.1312,-7.1007,-6.9633,-7.0263,-7.1007,-6.9633,-7.0304,-7.1737,-7.3164,-7.3618,-7.4023,-7.5436,-7.5709,-7.5709,-7.5709,-7.5709,-7.5946,-7.6724,-7.686,-7.686,-7.686,-7.686,-7.686,-7.686,-7.6183,-7.5709,-7.5709,-7.5709,-7.6318,-7.7841,-7.7299,-7.7164,-7.7908,-7.7299,-7.7536,-7.8991,-7.8348,-7.8348,-7.9058,-7.7671,-7.6927,-7.6893,-7.4789,-7.3701,-7.3617,-7.5836,-7.5719,-7.1312,-7.1312,-7.1312,-7.1312,-7.0398,-6.9451,-6.9451,-6.8876,-6.803,-6.7015,-6.6,-6.5019,0.0,0.0,0.0,0.0,0.0,0.0,0.0,0.0,0.0,0.0,0.0,0.0,0.0,0.0,-5.9438,-6.0419,-6.0757,-6.1434,-6.2685,-6.37,-6.4478,-6.4952,-6.5425,-6.5797,-6.6068,-6.6576,-6.6812,-6.6846,-6.8098,-6.8842,-6.9147,-7.0364,-7.0669,-7.0161,-6.9417,-6.8639,-6.7895,-6.7895,-6.8368,-6.918,-6.9891,-7.0635,-7.1312,-7.1312,-7.1312,-7.1312,-7.1312,-7.1312,-7.1312,-7.1312,-7.1312,-7.1312,-7.1312,-7.1312,-7.1222,-7.0745,-7.0263,-6.9907,-6.9859,-6.9938,-7.0447,-7.2333,-7.2452,-7.2546,-7.3972,-7.4306,-7.4306,-7.4306,-7.5064,-7.5777,-7.6048,-7.6961,-7.7638,-7.7638,-7.7198,-7.7063,-7.757,-7.6487,-7.6082,-7.7096,-7.6792,-7.6893,-7.7908,-7.7773,-7.7536,-7.7299,-7.7942,-7.8348,-7.8382,-7.9058,-7.9329,-7.9126,-7.9092,-7.8119,-7.6136,-7.5922,-7.4019,-7.0727,-7.2994,-7.3862,-7.1312,-7.1312,-7.1312,-7.1312,-7.0601,-6.9823,-6.9553,-6.9079,-6.8504,-6.7793,-6.6812,-6.5865,0.0,0.0,0.0,0.0,0.0,0.0,0.0,-5.8457,0.0,0.0,0.0,0.0,0.0,-5.8761,-5.893,-5.9641,-6.0182,-6.0926,-6.1941,-6.3396,-6.4343,-6.458,-6.5561,-6.6102,-6.6102,-6.6576,-6.6812,-6.6846,-6.8064,-6.8808,-6.9147,-7.0094,-7.0398,-7.0161,-6.9417,-6.8808,-6.8335,-6.8605,-6.9011,-6.9553,-7.0297,-7.0872,-7.1312,-7.1312,-7.1312,-7.1312,-7.1312,-7.1312,-7.1312,-7.1312,-7.1312,-7.1312,-7.1312,-7.1312,-7.1098,-7.0123,-6.9537,-6.9107,-6.8798,-6.8627,-6.9041,-7.1142,-7.1145,-7.1004,-7.2494,-7.3225,-7.3464,-7.2914,-7.4356,-7.5633,-7.5399,-7.6601,-7.7423,-7.691,-7.7073,-7.6956,-7.6154,-7.5851,-7.6005,-7.6726,-7.6837,-7.7198,-7.7942,-7.8247,-7.8179,-7.7705,-7.8585,-7.8889,-7.8416,-7.9566,-7.982,-7.8953,-7.8755,-7.7647,-7.568,-7.4636,-7.2421,-6.9201,-7.0639,-7.1584]},{"header":{"parameterUnit":"m.s-1","parameterCategory":1,"la1":30.6,"la2":29.2853,"lo1":-89.7004,"lo2":-87.6739,"dy":0.0162,"dx":0.0183,"nx":112,"ny":82,"refTime":"2023-04-03T18:00:00:Z","depth":0,"parameterNumber":3,"parameterNumberName":"V-component_of_WINDS"},"data":[0.0,0.0,0.0,0.0,0.0,0.0,0.0,0.0,0.0,0.0,0.0,0.0,0.0,0.0,0.0,0.0,0.0,0.0,0.0,0.0,0.0,0.0,0.0,0.0,0.0,0.0,0.0,0.0,0.0,0.0,0.0,0.0,0.0,0.0,0.0,0.0,0.0,0.0,0.0,0.0,0.0,0.0,0.0,0.0,0.0,0.0,0.0,0.0,0.0,0.0,0.0,0.0,0.0,0.0,0.0,0.0,0.0,0.0,0.0,0.0,0.0,0.0,0.0,0.0,0.0,0.0,0.0,0.0,0.0,0.0,0.0,0.0,0.0,0.0,0.0,0.0,0.0,0.0,0.0,0.0,0.0,0.0,0.0,0.0,0.0,0.0,0.0,0.0,0.0,0.0,3.0144,3.3097,3.6562,3.8008,3.6348,3.625,3.4538,3.0291,0.0,0.0,0.0,0.0,0.0,0.0,0.0,0.0,0.0,0.0,0.0,0.0,0.0,0.0,0.0,0.0,0.0,0.0,0.0,0.0,0.0,0.0,0.0,0.0,0.0,0.0,0.0,0.0,0.0,0.0,0.0,0.0,0.0,0.0,0.0,0.0,0.0,0.0,0.0,0.0,0.0,0.0,0.0,0.0,0.0,0.0,0.0,0.0,0.0,0.0,0.0,0.0,0.0,0.0,0.0,0.0,0.0,0.0,0.0,0.0,0.0,0.0,0.0,0.0,0.0,0.0,0.0,0.0,0.0,0.0,0.0,0.0,0.0,0.0,0.0,0.0,0.0,0.0,0.0,0.0,0.0,0.0,0.0,0.0,0.0,0.0,0.0,0.0,0.0,0.0,0.0,0.0,0.0,0.0,0.0,0.0,0.0,0.0,0.0,0.0,0.0,0.0,0.0,0.0,3.2351,3.5742,3.7891,3.8555,3.7226,3.5488,3.3691,3.1955,0.0,0.0,0.0,0.0,0.0,0.0,0.0,0.0,0.0,0.0,0.0,0.0,0.0,0.0,0.0,0.0,0.0,0.0,0.0,0.0,0.0,0.0,0.0,0.0,0.0,0.0,0.0,0.0,0.0,0.0,0.0,0.0,0.0,0.0,0.0,0.0,0.0,0.0,0.0,0.0,0.0,0.0,0.0,0.0,0.0,0.0,0.0,0.0,0.0,0.0,0.0,0.0,0.0,0.0,0.0,0.0,0.0,0.0,0.0,0.0,0.0,0.0,0.0,0.0,0.0,0.0,0.0,0.0,0.0,0.0,0.0,0.0,0.0,0.0,0.0,0.0,0.0,0.0,0.0,0.0,0.0,0.0,0.0,0.0,0.0,0.0,0.0,0.0,0.0,0.0,0.0,0.0,0.0,0.0,0.0,0.0,0.0,0.0,0.0,0.0,0.0,0.0,0.0,3.1875,3.3535,3.6992,3.8262,3.8262,3.6738,3.5254,3.3457,3.125,2.9902,0.0,0.0,0.0,0.0,0.0,0.0,0.0,0.0,0.0,0.0,0.0,0.0,0.0,0.0,0.0,0.0,0.0,0.0,0.0,0.0,0.0,0.0,0.0,0.0,0.0,0.0,0.0,0.0,0.0,0.0,0.0,0.0,0.0,0.0,0.0,0.0,0.0,0.0,0.0,0.0,0.0,0.0,0.0,0.0,0.0,0.0,0.0,0.0,0.0,0.0,0.0,0.0,0.0,0.0,0.0,0.0,0.0,0.0,0.0,0.0,0.0,0.0,0.0,0.0,0.0,0.0,0.0,0.0,0.0,0.0,0.0,0.0,0.0,0.0,0.0,0.0,0.0,0.0,0.0,0.0,0.0,0.0,0.0,0.0,0.0,0.0,0.0,0.0,0.0,0.0,0.0,0.0,0.0,0.0,0.0,0.0,0.0,0.0,0.0,0.0,0.0,0.0,3.3711,3.4707,3.7754,3.8457,3.8027,3.6309,3.4902,3.3027,3.0527,2.8769,0.0,0.0,0.0,0.0,0.0,0.0,0.0,0.0,0.0,0.0,0.0,0.0,0.0,0.0,0.0,0.0,0.0,0.0,0.0,0.0,0.0,0.0,0.0,0.0,0.0,0.0,0.0,0.0,0.0,0.0,0.0,0.0,0.0,0.0,0.0,0.0,0.0,0.0,0.0,0.0,0.0,0.0,0.0,0.0,0.0,0.0,0.0,0.0,0.0,0.0,0.0,0.0,0.0,0.0,0.0,0.0,0.0,0.0,0.0,0.0,0.0,0.0,0.0,0.0,0.0,0.0,0.0,0.0,0.0,0.0,0.0,0.0,0.0,0.0,0.0,0.0,0.0,0.0,0.0,0.0,0.0,0.0,0.0,0.0,0.0,0.0,0.0,0.0,0.0,0.0,0.0,0.0,0.0,0.0,0.0,0.0,0.0,0.0,0.0,0.0,0.0,0.0,3.4824,3.6504,3.834,3.8906,3.8476,3.6758,3.4004,3.1914,3.0918,2.8125,0.0,0.0,0.0,0.0,0.0,0.0,0.0,0.0,0.0,0.0,0.0,0.0,0.0,0.0,0.0,0.0,0.0,0.0,0.0,0.0,0.0,0.0,0.0,0.0,0.0,0.0,0.0,0.0,0.0,0.0,0.0,0.0,0.0,0.0,0.0,0.0,0.0,0.0,0.0,0.0,0.0,0.0,0.0,0.0,0.0,0.0,0.0,0.0,0.0,0.0,0.0,0.0,0.0,0.0,0.0,0.0,0.0,0.0,0.0,0.0,0.0,0.0,0.0,0.0,0.0,0.0,0.0,0.0,0.0,0.0,0.0,0.0,0.0,0.0,0.0,0.0,0.0,0.0,0.0,0.0,0.0,0.0,0.0,0.0,0.0,0.0,0.0,0.0,0.0,0.0,0.0,0.0,0.0,0.0,0.0,0.0,0.0,0.0,0.0,0.0,0.0,0.0,3.4238,3.5781,3.8301,3.8476,3.7832,3.6387,3.4238,3.2363,3.0976,0.0,0.0,0.0,0.0,0.0,0.0,0.0,0.0,0.0,0.0,0.0,0.0,0.0,0.0,0.0,0.0,0.0,0.0,0.0,0.0,0.0,0.0,0.0,0.0,0.0,0.0,0.0,0.0,0.0,0.0,0.0,0.0,0.0,0.0,0.0,0.0,0.0,0.0,0.0,0.0,0.0,0.0,0.0,0.0,0.0,0.0,0.0,0.0,0.0,0.0,0.0,0.0,0.0,0.0,0.0,0.0,0.0,0.0,0.0,0.0,0.0,0.0,0.0,0.0,0.0,0.0,0.0,0.0,0.0,0.0,0.0,0.0,0.0,0.0,0.0,0.0,0.0,0.0,0.0,0.0,0.0,0.0,0.0,0.0,0.0,0.0,0.0,0.0,0.0,0.0,0.0,0.0,0.0,0.0,0.0,0.0,0.0,0.0,0.0,0.0,0.0,0.0,3.2871,3.3965,3.543,3.791,3.8027,3.7285,3.5742,3.3769,3.2012,3.0566,0.0,0.0,0.0,0.0,0.0,0.0,0.0,0.0,0.0,0.0,0.0,0.0,0.0,0.0,0.0,0.0,0.0,0.0,0.0,0.0,0.0,0.0,0.0,0.0,0.0,0.0,0.0,0.0,0.0,0.0,0.0,0.0,0.0,0.0,0.0,0.0,0.0,0.0,0.0,0.0,0.0,0.0,0.0,0.0,0.0,0.0,0.0,0.0,0.0,0.0,0.0,0.0,0.0,0.0,0.0,0.0,0.0,0.0,0.0,0.0,0.0,0.0,0.0,0.0,0.0,0.0,0.0,0.0,0.0,0.0,0.0,0.0,0.0,0.0,0.0,0.0,0.0,0.0,0.0,0.0,0.0,0.0,0.0,0.0,0.0,0.0,0.0,0.0,0.0,0.0,0.0,0.0,0.0,0.0,0.0,0.0,0.0,0.0,0.0,0.0,0.0,0.0,3.2519,3.4316,3.5879,3.7168,3.7656,3.7031,3.4883,3.2363,3.0508,0.0,0.0,0.0,0.0,0.0,0.0,0.0,0.0,0.0,0.0,0.0,0.0,0.0,0.0,0.0,0.0,0.0,0.0,0.0,0.0,0.0,0.0,0.0,0.0,0.0,0.0,0.0,0.0,0.0,0.0,0.0,0.0,0.0,0.0,0.0,0.0,0.0,0.0,0.0,0.0,0.0,0.0,0.0,0.0,0.0,0.0,0.0,0.0,0.0,0.0,0.0,0.0,0.0,0.0,0.0,0.0,0.0,0.0,0.0,0.0,0.0,0.0,0.0,0.0,0.0,0.0,0.0,0.0,0.0,0.0,0.0,0.0,0.0,0.0,0.0,0.0,0.0,0.0,0.0,0.0,0.0,0.0,0.0,0.0,0.0,0.0,0.0,0.0,0.0,0.0,0.0,0.0,0.0,0.0,0.0,0.0,0.0,0.0,0.0,0.0,0.0,0.0,0.0,3.293,3.3965,3.5195,3.709,3.6875,3.6074,3.4805,3.2363,3.0644,3.0059,0.0,0.0,0.0,0.0,0.0,0.0,0.0,0.0,0.0,0.0,0.0,0.0,0.0,0.0,0.0,0.0,0.0,0.0,0.0,0.0,0.0,0.0,0.0,0.0,0.0,0.0,0.0,0.0,0.0,0.0,0.0,0.0,0.0,0.0,0.0,0.0,0.0,0.0,0.0,0.0,0.0,0.0,0.0,0.0,0.0,0.0,0.0,0.0,0.0,0.0,0.0,0.0,0.0,0.0,0.0,0.0,0.0,0.0,0.0,0.0,0.0,0.0,0.0,0.0,0.0,0.0,0.0,0.0,0.0,0.0,0.0,0.0,0.0,0.0,0.0,0.0,0.0,0.0,0.0,0.0,0.0,0.0,0.0,0.0,0.0,0.0,0.0,0.0,0.0,0.0,0.0,0.0,0.0,0.0,0.0,0.0,0.0,0.0,0.0,0.0,0.0,0.0,3.2891,3.3555,3.457,3.6582,3.6172,3.5332,3.4277,3.2324,3.0723,2.9746,0.0,0.0,0.0,0.0,0.0,0.0,0.0,0.0,0.0,0.0,0.0,0.0,0.0,0.0,0.0,0.0,0.0,0.0,0.0,0.0,0.0,0.0,0.0,0.0,0.0,0.0,0.0,0.0,0.0,0.0,0.0,0.0,0.0,0.0,0.0,0.0,0.0,0.0,0.0,0.0,0.0,0.0,0.0,0.0,0.0,0.0,0.0,0.0,0.0,0.0,0.0,0.0,0.0,0.0,0.0,0.0,0.0,0.0,0.0,0.0,0.0,0.0,0.0,0.0,0.0,0.0,0.0,0.0,0.0,0.0,0.0,0.0,0.0,0.0,0.0,0.0,0.0,0.0,0.0,0.0,0.0,0.0,0.0,0.0,0.0,0.0,0.0,0.0,0.0,0.0,0.0,0.0,0.0,0.0,0.0,0.0,0.0,0.0,0.0,0.0,0.0,0.0,3.2637,3.3144,3.4023,3.5781,3.5547,3.4746,3.3476,3.2187,3.0742,2.9023,0.0,0.0,0.0,0.0,0.0,0.0,0.0,0.0,0.0,0.0,0.0,0.0,0.0,0.0,0.0,0.0,0.0,0.0,0.0,0.0,0.0,0.0,0.0,0.0,0.0,0.0,0.0,0.0,0.0,0.0,0.0,0.0,0.0,0.0,0.0,0.0,0.0,0.0,0.0,0.0,0.0,0.0,0.0,0.0,0.0,0.0,0.0,0.0,0.0,0.0,0.0,0.0,0.0,0.0,0.0,0.0,0.0,0.0,0.0,0.0,3.5817,3.4252,0.0,0.0,0.0,0.0,0.0,0.0,0.0,0.0,0.0,0.0,0.0,0.0,0.0,0.0,0.0,0.0,0.0,0.0,0.0,0.0,0.0,0.0,0.0,0.0,0.0,0.0,0.0,0.0,0.0,0.0,0.0,0.0,0.0,0.0,0.0,0.0,0.0,0.0,0.0,0.0,3.3027,3.3086,3.3594,3.5332,3.4824,3.3965,3.3008,3.1758,3.043,2.9004,2.8223,0.0,0.0,0.0,0.0,0.0,0.0,0.0,0.0,0.0,0.0,0.0,0.0,0.0,0.0,0.0,0.0,0.0,0.0,0.0,0.0,0.0,0.0,0.0,0.0,0.0,0.0,0.0,0.0,0.0,0.0,0.0,0.0,0.0,0.0,0.0,0.0,0.0,0.0,0.0,0.0,0.0,0.0,0.0,0.0,0.0,0.0,0.0,0.0,0.0,0.0,0.0,0.0,0.0,0.0,0.0,0.0,0.0,0.0,0.0,3.8398,3.6622,0.0,0.0,0.0,0.0,0.0,0.0,0.0,0.0,0.0,0.0,0.0,0.0,0.0,0.0,0.0,0.0,0.0,0.0,0.0,0.0,0.0,0.0,0.0,0.0,0.0,0.0,0.0,0.0,0.0,0.0,0.0,0.0,0.0,0.0,0.0,0.0,0.0,0.0,0.0,0.0,3.2891,3.2754,3.3144,3.4883,3.4101,3.3281,3.2832,3.1621,3.0332,2.9004,2.832,0.0,0.0,0.0,0.0,0.0,0.0,0.0,0.0,0.0,0.0,0.0,0.0,0.0,0.0,0.0,0.0,0.0,0.0,0.0,0.0,0.0,0.0,0.0,0.0,0.0,0.0,0.0,0.0,0.0,0.0,0.0,0.0,0.0,0.0,0.0,0.0,0.0,0.0,0.0,0.0,0.0,0.0,0.0,0.0,0.0,0.0,0.0,0.0,0.0,0.0,0.0,0.0,0.0,4.1133,4.1699,4.2656,4.2734,4.2578,4.2148,4.0371,3.8926,3.7891,3.8379,0.0,0.0,0.0,0.0,0.0,0.0,0.0,0.0,0.0,0.0,0.0,0.0,0.0,0.0,0.0,0.0,0.0,0.0,0.0,0.0,0.0,0.0,3.4687,3.5078,3.4922,3.4199,3.2363,0.0,0.0,0.0,0.0,0.0,0.0,0.0,0.0,0.0,0.0,0.0,3.2539,3.2383,3.2754,3.4316,3.3476,3.2734,3.2578,3.1601,3.043,2.9121,2.8633,2.8047,0.0,0.0,0.0,0.0,0.0,0.0,0.0,0.0,0.0,0.0,0.0,0.0,0.0,0.0,0.0,0.0,0.0,0.0,0.0,0.0,0.0,0.0,0.0,0.0,0.0,0.0,0.0,0.0,0.0,0.0,0.0,0.0,2.6464,2.6411,0.0,0.0,0.0,0.0,0.0,0.0,0.0,0.0,0.0,0.0,0.0,0.0,0.0,3.9471,3.834,4.1075,4.2578,4.2754,4.3516,4.3769,4.3555,4.3945,4.4101,4.4043,4.375,0.0,4.0019,3.9004,0.0,0.0,0.0,0.0,0.0,0.0,0.0,0.0,0.0,0.0,0.0,0.0,0.0,0.0,0.0,0.0,0.0,0.0,0.0,0.0,0.0,0.0,3.416,3.4238,3.4473,3.4531,3.3867,3.3242,3.2656,3.2168,3.1523,3.1035,0.0,0.0,0.0,0.0,0.0,0.0,3.2129,3.2207,3.2539,3.3496,3.3105,3.25,3.1758,3.1523,3.0879,2.957,2.9082,2.8613,2.8144,2.7715,0.0,0.0,0.0,0.0,0.0,0.0,0.0,0.0,0.0,0.0,0.0,0.0,0.0,0.0,0.0,0.0,0.0,0.0,0.0,0.0,0.0,0.0,0.0,0.0,0.0,0.0,0.0,0.0,0.0,2.8718,2.8297,2.7937,2.9064,2.9318,0.0,0.0,0.0,0.0,0.0,0.0,0.0,0.0,0.0,3.6465,4.0028,4.1711,4.1252,4.2949,4.418,4.4902,4.5293,4.5605,4.5898,4.6094,4.6191,4.6191,4.6191,4.5273,4.3613,4.1582,4.0312,3.957,0.0,0.0,0.0,0.0,3.8437,3.8437,3.9004,3.9043,3.8848,3.8906,0.0,0.0,0.0,0.0,0.0,0.0,0.0,3.4394,3.4277,3.4883,3.5586,3.582,3.6211,3.6328,3.5684,3.4863,3.3906,3.2754,3.2226,3.1894,3.166,3.1211,0.0,0.0,0.0,3.1191,3.2111,3.2229,3.2402,3.3008,3.2695,3.2187,3.1562,3.1309,3.0703,2.9704,2.916,2.8633,2.7969,2.7806,2.7885,0.0,0.0,0.0,0.0,0.0,0.0,0.0,0.0,0.0,0.0,0.0,0.0,0.0,0.0,0.0,0.0,0.0,0.0,0.0,0.0,0.0,0.0,0.0,0.0,0.0,0.0,0.0,0.0,2.9738,3.0038,2.9511,3.1474,3.2078,0.0,0.0,0.0,0.0,0.0,0.0,3.6272,3.9475,4.1067,4.0414,4.2677,4.3945,4.4062,4.4824,4.5742,4.6797,4.6797,4.7187,4.791,4.791,4.791,4.791,4.791,4.7422,4.6426,4.3828,4.2129,4.1113,4.0469,4.0078,3.9902,4.0254,4.0234,4.0137,4.0898,4.0957,4.0605,4.0039,3.9277,3.8281,3.6699,0.0,0.0,0.0,0.0,3.5117,3.5469,3.6113,3.6797,3.7324,3.7773,3.7851,3.7012,3.625,3.5215,3.3457,3.2949,3.2656,3.2246,3.1543,0.0,3.1172,3.1113,3.1289,3.1914,3.2187,3.2402,3.2617,3.2363,3.1953,3.1406,3.1074,3.0566,2.9785,2.9316,2.875,2.8027,2.7943,2.7871,2.7988,0.0,0.0,0.0,0.0,0.0,0.0,0.0,0.0,0.0,0.0,0.0,0.0,0.0,0.0,0.0,0.0,0.0,0.0,0.0,0.0,0.0,0.0,0.0,0.0,0.0,0.0,0.0,0.0,0.0,3.1113,3.1523,0.0,0.0,0.0,0.0,3.7442,3.8236,3.9801,4.2527,4.3219,4.3862,4.4655,4.5597,4.6328,4.6738,4.7187,4.7656,4.8105,4.8105,4.8359,4.8789,4.8789,4.8789,4.8789,4.8789,4.8301,4.7305,4.4707,4.3359,4.2832,4.1582,4.1328,4.168,4.1699,4.1933,4.2148,4.1426,4.1152,4.1191,4.1562,4.1094,4.0137,3.8809,3.8105,0.0,0.0,3.5957,3.5957,3.5976,3.6328,3.6875,3.7695,3.8223,3.8301,3.7441,3.6914,3.6094,3.4355,3.3359,3.2656,3.2246,0.0,3.1211,3.0391,3.0957,3.1504,3.1543,3.2266,3.2617,3.2246,3.2187,3.1836,3.0996,3.0898,3.0684,3.0195,2.9766,2.9336,2.8867,2.8476,2.8437,2.8848,2.8476,0.0,0.0,0.0,0.0,0.0,0.0,0.0,0.0,0.0,0.0,0.0,0.0,0.0,0.0,0.0,0.0,0.0,0.0,0.0,0.0,0.0,0.0,0.0,0.0,0.0,0.0,0.0,0.0,3.6395,3.8748,0.0,3.7149,3.8816,3.98,3.9341,4.1009,4.2754,4.4687,4.5156,4.5781,4.6641,4.7226,4.7598,4.7754,4.8183,4.8476,4.8633,4.8633,4.8711,4.8867,4.8867,4.8867,4.8867,4.8867,4.8516,4.7891,4.6699,4.5469,4.4219,4.3203,4.2891,4.3027,4.3027,4.3125,4.3203,4.291,4.2441,4.1777,4.0527,3.9551,3.8711,3.7969,3.7637,3.748,3.7305,3.7051,3.6973,3.7519,3.7578,3.7617,3.8203,3.8242,3.8008,3.7422,3.6973,3.6406,3.5508,3.4394,3.3476,3.3047,3.2617,3.2226,3.1914,3.1914,3.2031,3.2305,3.2598,3.2637,3.2207,3.2229,3.1816,3.0957,3.0625,3.0254,2.9824,2.9394,2.8965,2.8535,2.8379,2.8359,2.8516,2.8359,2.8418,0.0,0.0,0.0,0.0,0.0,0.0,0.0,0.0,0.0,0.0,0.0,0.0,0.0,0.0,0.0,0.0,0.0,0.0,0.0,0.0,0.0,0.0,0.0,0.0,0.0,3.6878,3.9105,3.9858,4.2582,4.3477,4.1294,4.2816,4.3485,4.2218,4.3753,4.5312,4.6465,4.6797,4.7266,4.7988,4.8281,4.8418,4.8418,4.8711,4.8867,4.8867,4.8867,4.8867,4.8867,4.8867,4.8867,4.8867,4.8867,4.8691,4.8379,4.7812,4.6914,4.5801,4.4922,4.4492,4.4375,4.4375,4.4375,4.4316,4.3867,4.3047,4.1973,4.0547,3.959,3.8945,3.8516,3.8281,3.8203,3.832,3.8047,3.7851,3.8437,3.8359,3.8184,3.832,3.8144,3.7773,3.7207,3.6875,3.6543,3.6094,3.5078,3.4141,3.3711,3.3164,3.2793,3.2793,3.2559,3.2539,3.2949,3.2871,3.2637,3.2207,3.2031,3.1601,3.0723,3.0527,3.0117,2.9394,2.9219,2.8887,2.832,2.8437,2.8496,2.8496,2.8359,2.8437,2.8711,0.0,0.0,0.0,0.0,0.0,0.0,0.0,0.0,0.0,0.0,0.0,0.0,0.0,0.0,0.0,0.0,0.0,0.0,0.0,0.0,0.0,0.0,0.0,3.6485,3.8581,4.0372,4.1147,4.2528,4.2946,4.2138,4.4385,4.5976,4.6348,4.6777,4.7363,4.8183,4.8223,4.8418,4.8848,4.8867,4.8867,4.8867,4.8867,4.8867,4.8867,4.8867,4.8867,4.8867,4.8867,4.8867,4.8867,4.8867,4.8848,4.875,4.793,4.7558,4.7461,4.6621,4.6055,4.5703,4.5683,4.5644,4.543,4.4141,4.2851,4.1797,4.1777,4.1504,4.1094,4.0664,4.0254,3.9844,3.9375,3.8945,3.8613,3.8594,3.8574,3.8457,3.8027,3.791,3.7656,3.6855,3.666,3.6523,3.6094,3.5312,3.459,3.416,3.3398,3.2851,3.2812,3.2812,0.0,3.3359,3.3047,3.2637,3.2207,3.1797,3.1172,3.0293,3.0625,3.0312,2.9004,2.9297,2.916,2.832,2.8691,2.8906,2.8906,2.8516,2.832,2.832,0.0,0.0,0.0,0.0,0.0,0.0,0.0,0.0,0.0,0.0,0.0,0.0,0.0,0.0,0.0,0.0,0.0,0.0,0.0,0.0,0.0,3.6826,3.8964,4.054,4.2398,4.3976,4.5182,4.672,4.7485,4.7016,4.8201,4.873,4.8203,4.8574,4.8769,4.8691,4.8672,4.873,4.894,4.8867,4.8867,4.8867,4.8867,4.8867,4.8867,4.8867,4.8867,4.8867,4.8867,4.8867,4.8867,4.8867,4.8496,4.791,4.7676,4.7207,4.6621,4.6387,4.623,4.6094,4.5781,4.5058,4.416,4.3476,4.2617,4.1758,4.1445,4.1269,4.1152,4.1035,4.0918,4.0723,4.0273,3.9863,3.9453,3.9121,3.8574,3.8066,3.7949,3.7461,3.6953,3.6719,3.6426,3.6152,3.6035,3.5586,3.5059,3.4609,3.4336,3.3965,3.334,3.3242,3.3184,3.2988,3.2871,3.2637,3.2207,3.207,3.1641,3.0781,3.0508,2.9961,2.8984,2.875,2.8535,2.8301,2.8398,2.8457,2.8457,2.8652,2.875,0.0,0.0,0.0,0.0,0.0,0.0,0.0,0.0,0.0,0.0,0.0,0.0,0.0,0.0,0.0,0.0,0.0,0.0,0.0,0.0,0.0,0.0,3.9573,4.2118,4.4032,4.5332,4.6562,4.7871,4.9082,4.9707,4.9433,4.9707,4.9687,4.918,4.9199,4.9141,4.8867,4.8867,4.8867,4.8867,4.8867,4.8867,4.8867,4.8867,4.8867,4.8867,4.8867,4.8867,4.8867,4.8867,4.8867,4.8867,4.8867,4.8476,4.7832,4.7656,4.7187,4.6543,0.0,0.0,0.0,0.0,4.4316,4.3125,4.2891,4.2246,4.1504,4.125,4.1172,4.1172,4.1172,4.0918,4.0586,4.0332,3.9824,3.9277,3.9004,3.8574,3.8144,3.7969,3.7559,3.709,3.6738,3.6465,3.623,3.6055,3.5684,0.0,3.4785,3.4551,3.4277,3.3769,3.3535,3.334,3.3086,3.2754,3.2363,3.1934,3.1738,3.1348,3.0664,3.0527,0.0,0.0,0.0,2.9004,2.8828,2.8828,0.0,0.0,0.0,2.8828,2.8652,2.8652,0.0,0.0,2.793,2.7695,0.0,0.0,0.0,0.0,0.0,0.0,0.0,0.0,0.0,0.0,0.0,0.0,0.0,0.0,0.0,0.0,4.25,4.5312,4.6914,4.7617,4.834,4.9394,4.9902,5.0195,5.0254,4.9941,4.9707,4.9609,4.9238,4.8965,4.8867,4.8867,0.0,0.0,0.0,4.8867,4.8867,4.8867,4.8867,4.8867,4.8867,4.8867,4.8867,4.8867,4.8867,4.8867,4.8867,4.8574,4.8105,4.7734,4.7266,4.6758,4.6367,4.5937,4.543,4.4629,4.3516,4.2422,4.2363,0.0,0.0,4.1172,4.1172,4.1172,4.1172,4.0605,3.9961,3.9902,3.9297,3.8633,3.8594,3.8535,3.8398,3.8027,3.7851,3.7578,3.6836,3.6641,3.6484,3.6094,3.5723,3.5293,3.4785,3.4355,3.4062,3.4004,3.3672,3.3398,3.3359,3.2656,3.2012,3.1621,3.1211,0.0,3.0312,3.0644,3.0508,2.9685,2.9922,2.9961,2.959,2.9626,2.9394,2.9004,2.8984,2.8789,2.8359,2.8359,2.834,2.8301,2.8301,2.8086,0.0,0.0,0.0,0.0,0.0,0.0,0.0,0.0,0.0,0.0,0.0,0.0,0.0,0.0,0.0,4.3543,4.558,4.7324,4.834,4.9473,5.0019,4.957,4.9902,5.0312,5.0644,5.0918,5.0781,5.0098,4.9961,4.9609,4.8906,4.8867,4.8867,4.8867,4.8867,4.8867,4.8867,4.8867,4.8867,4.8867,4.8867,0.0,4.8867,4.8867,4.8867,4.8867,4.8867,4.8418,4.7695,4.7617,4.6914,4.5918,4.584,4.5332,4.459,4.4043,4.3242,4.2383,4.2031,4.1601,4.1172,4.1172,4.1172,4.1172,4.1172,4.082,0.0,4.0,3.9512,3.9004,3.8652,3.832,3.8027,3.7949,3.7402,3.6875,3.6699,3.6387,3.6113,3.6035,3.5957,3.5644,3.4844,3.4355,3.3945,3.3594,3.3476,3.3301,3.2969,3.248,3.2148,3.2051,3.166,3.123,3.0801,3.084,3.0508,2.9685,2.9648,2.9648,2.957,2.9626,2.9587,2.9453,2.9453,2.9238,2.8789,2.8789,2.8633,2.8301,2.8301,2.8242,0.0,0.0,0.0,0.0,0.0,0.0,0.0,0.0,0.0,0.0,0.0,3.9687,4.0098,0.0,4.4551,4.6055,4.7383,4.8457,4.9101,4.9551,4.9844,4.9844,5.041,5.0898,5.1094,5.1113,5.0859,5.0234,4.998,4.957,4.8887,4.8867,4.8867,4.8867,4.8867,4.8867,4.8867,4.8867,4.8867,4.8867,4.8867,4.8867,4.8867,4.8867,4.8867,4.8848,4.8633,4.8164,4.7519,4.6894,4.5996,4.5019,4.4785,4.4433,4.3965,4.3301,4.2656,4.209,4.1875,4.1523,4.1172,4.1172,4.1172,4.1172,4.1172,4.0723,4.0156,3.9961,3.9414,3.8828,3.8633,3.8418,3.8203,3.7969,3.7598,3.7187,3.6758,3.6504,3.6289,3.6055,3.5859,3.5488,3.4824,3.4355,3.3926,3.3496,3.3418,3.3262,3.2851,3.2422,3.209,3.1875,3.1465,3.1113,3.0918,3.0898,3.0703,3.0254,3.0234,3.0137,2.9902,2.9883,2.9785,2.957,2.9626,2.9453,2.9238,2.9023,2.8809,2.8613,2.8613,2.8496,0.0,0.0,0.0,0.0,0.0,0.0,0.0,0.0,3.832,3.9258,4.0703,4.2031,4.2793,4.4922,4.6836,4.7695,4.8555,4.9199,4.9492,4.9297,4.9355,4.998,5.0723,5.123,5.1308,5.0996,5.0625,5.0215,4.9785,4.9375,4.9004,4.8906,4.8867,4.8867,4.8867,4.8867,4.8867,4.8867,4.8867,4.8867,4.8867,4.8867,4.8867,4.8867,4.8808,4.8711,4.8183,4.7773,4.7363,4.6172,4.5215,4.4453,4.3828,4.3535,4.3359,4.2598,4.209,4.1797,4.1699,4.1465,4.1172,4.1172,4.1172,4.1172,4.1172,4.0566,3.9902,3.9902,3.9258,3.8574,3.8574,3.8574,3.8457,3.8027,3.7851,3.7598,3.6836,3.6601,3.6445,3.6094,3.5742,3.5371,3.4902,3.4551,3.4121,3.3516,3.3418,3.3301,3.2969,3.2559,3.2129,3.168,3.1269,3.0976,3.0898,3.0898,3.0898,3.0898,3.0898,3.0723,3.0351,3.0332,3.0176,2.9844,2.9824,2.9785,2.9744,2.9336,2.9121,2.9043,2.9043,2.8769,3.6699,3.5918,3.5391,3.6797,3.6953,3.7519,0.0,0.0,4.1094,4.2324,4.3359,4.418,4.4648,4.6211,4.7715,4.8574,4.9453,4.9922,4.957,4.9824,4.9922,4.9629,5.0019,5.0469,5.084,5.084,5.0625,5.0215,4.9785,4.9512,4.9453,4.9082,4.8867,4.8867,4.8867,4.8867,4.8867,4.8867,4.8867,4.8867,4.8867,4.8867,4.8867,4.8867,4.8652,4.8242,4.7422,4.7051,4.6933,4.6035,4.5391,4.4844,4.3613,4.291,4.2519,4.2051,4.1836,4.1758,4.1367,4.1211,4.1172,4.1172,4.1172,4.1172,4.1172,4.0566,3.9902,3.9902,3.9258,3.8574,3.8574,3.8574,3.8457,3.8027,3.7637,3.7246,3.6777,3.6367,3.6074,3.6035,3.5976,3.582,3.5391,3.5273,3.4824,3.3613,3.3418,3.3398,3.3359,3.2988,3.2559,3.2148,3.1699,3.1289,3.0918,3.0898,3.0898,3.0898,3.0898,3.0859,3.082,3.082,3.0801,3.0742,3.0742,3.0547,3.0137,3.0078,2.9863,2.9492,2.9492,2.9062,3.6152,3.6426,3.6894,0.0,3.7754,3.9414,4.1367,4.1855,4.2344,4.3887,4.5098,4.5996,4.6426,4.7715,4.8906,4.9531,4.9726,4.9824,4.9902,4.9609,4.9258,4.8808,4.9375,4.9961,5.0391,5.0664,5.0527,4.9844,4.9863,4.9687,4.916,4.8965,4.8867,4.8867,4.8867,4.8867,4.8867,4.8867,4.8867,4.8867,4.8867,4.8867,4.8867,4.8867,4.8476,4.7832,4.7461,4.6738,4.5801,4.5449,4.4746,4.3808,4.3008,4.2441,4.2012,4.1582,4.1426,4.1406,4.123,4.1172,4.1172,4.1172,4.1172,4.1133,4.0879,4.0371,3.9844,3.957,3.9043,3.8574,3.8574,3.8574,3.8457,3.8027,3.7598,3.7246,3.707,3.6504,3.6094,3.6348,3.6191,3.5879,3.5469,3.5391,3.5039,3.3965,3.3809,3.3711,3.3457,3.3066,3.2539,3.1855,3.1621,3.1348,3.0918,3.0898,3.0898,3.0898,3.0898,3.0898,3.0898,3.0898,3.0898,3.0898,3.0898,3.0801,3.0605,3.0332,3.0098,2.9941,2.9941,2.9609,3.5723,0.0,0.0,3.7285,3.9082,4.1348,4.2441,4.3105,4.3926,4.543,4.6465,4.7246,4.7676,4.8633,4.9531,5.0078,4.9805,4.9687,5.0117,4.9219,4.8398,4.8066,4.8281,4.873,4.9394,5.0058,5.0195,4.957,4.9707,4.959,4.9062,4.8926,4.8867,4.8867,4.8867,4.8867,4.8867,4.8867,4.8867,4.8867,4.8867,4.8867,4.8848,4.8613,4.8164,4.7558,4.7207,4.6348,4.5176,4.4941,4.4219,4.3203,4.2637,4.2168,4.1758,4.1328,4.1172,4.1172,4.1172,4.1172,4.1172,4.1172,4.1172,4.1113,4.0801,4.041,3.998,3.9512,3.9082,3.873,3.8613,3.8574,3.8457,3.8027,3.7695,3.7441,3.7324,3.6816,3.6426,3.6641,3.6426,3.6074,3.5644,3.5566,3.5312,3.4551,3.4336,3.4043,3.3496,3.3066,3.2519,3.1777,3.1582,3.1348,3.0918,3.0898,3.0898,3.0898,3.0898,3.0898,3.0898,3.0898,3.0898,3.0898,3.0898,3.0898,3.0898,3.0547,3.0391,3.0391,3.0391,3.0215,0.0,0.0,3.7734,3.9375,4.1094,4.2812,4.4531,4.5586,4.6445,4.7324,4.7539,4.7695,4.8105,4.8574,4.916,5.0039,4.9805,4.9687,5.0117,4.8691,4.7617,4.7598,4.6523,4.6289,4.7539,4.8808,4.9551,4.9531,4.9141,4.9082,4.9492,4.9101,4.8867,4.8867,4.8867,4.8867,4.8867,4.8867,4.8867,4.8867,4.8867,4.8867,4.8828,4.7988,4.7598,4.7519,4.6269,4.5703,4.5586,4.4766,4.4121,4.3594,4.2754,4.2168,4.1758,4.1328,4.1172,4.1172,4.1172,4.1172,4.1172,4.1172,4.1172,4.1172,4.1152,4.084,4.041,4.0,3.9551,3.9082,3.8691,3.8574,3.8457,3.8027,3.791,3.7793,3.7383,3.7266,3.7148,3.6738,3.666,3.6504,3.6074,3.5996,3.5859,3.541,3.4961,3.4375,3.3535,3.3066,3.2637,3.2187,3.1777,3.1348,3.0918,3.0898,3.0898,3.0898,3.0898,3.0898,3.0898,3.0898,3.0898,3.0898,3.0898,3.0898,3.0898,3.0879,3.0859,3.0859,3.0859,3.0859,0.0,0.0,4.0566,4.1719,4.3516,4.5371,4.6816,4.7363,4.7578,4.7578,4.7129,4.6601,4.6172,4.6445,4.7031,4.7891,4.8613,4.9238,4.9687,4.9492,4.8555,4.6562,4.6933,0.0,4.5976,4.7305,4.8476,4.9043,4.9492,4.9551,4.9101,4.9219,4.916,4.8867,4.8867,4.8867,4.8867,4.8867,4.8867,4.8867,4.8867,4.8711,4.8418,4.8125,4.7695,4.7109,4.6406,4.5762,4.5176,4.4297,4.3516,4.2793,4.2226,4.1758,4.1367,4.123,4.1172,4.1172,4.1172,4.1172,4.1172,4.1172,4.1172,4.1113,4.084,4.0644,4.0371,3.9648,3.9316,3.9101,3.8691,3.8574,3.8535,3.8398,3.8144,3.7969,3.8105,3.7695,3.7266,3.7109,3.6855,3.6543,3.6094,3.6016,3.5781,3.5039,3.457,3.4062,3.3496,3.3301,3.3047,3.2637,3.2207,3.1777,3.1348,3.1055,3.0898,3.0898,3.0898,3.0898,3.0898,3.0898,3.0898,3.0898,3.0898,3.0898,3.0898,3.0898,3.0898,3.0898,3.0898,3.0898,0.0,4.0449,4.2969,4.3984,4.5625,4.7168,4.7832,4.7988,4.7734,4.6855,4.5976,4.5117,4.4258,4.3945,4.4316,4.5781,4.6465,4.7324,4.8848,4.8906,4.8242,4.6758,4.7012,4.6933,0.0,4.666,4.7539,4.8555,4.9297,4.9453,4.8887,4.9141,4.916,4.8867,4.8867,4.8867,4.8867,4.8867,4.8867,4.8867,4.8691,4.8476,4.8203,4.7891,4.7441,4.6894,4.6152,4.5527,4.4941,4.3906,4.3066,4.2383,4.1973,4.1543,4.1172,4.1172,4.1172,4.1172,4.1172,4.1172,4.1172,4.1172,4.1172,4.1113,4.084,4.0762,4.0566,3.9707,3.9453,3.9316,3.873,3.8574,3.8574,3.8574,3.8359,3.8223,3.8516,3.8144,3.7715,3.7559,3.7187,3.6758,3.6328,3.6113,3.5781,3.5059,3.4726,3.4277,3.3516,3.3555,3.3437,3.2851,3.2559,3.2207,3.1797,3.1367,3.1113,3.1113,3.0976,3.0898,3.0898,3.0898,3.0898,3.0898,3.0898,3.0898,3.0898,3.0898,3.0898,3.0898,3.0898,3.0898,4.0723,4.2891,4.4824,4.6094,4.7305,4.8105,4.7676,4.7519,4.6992,4.5254,4.416,4.3242,0.0,0.0,4.1328,4.3887,4.373,4.4473,4.7812,4.7266,4.6953,4.8066,4.6797,4.6308,4.7461,4.6855,4.6914,4.8144,4.8613,4.8867,4.8867,4.8887,4.8887,4.8867,4.8867,4.8867,4.8867,4.8867,4.8867,4.8848,4.8418,4.8203,4.8144,4.7305,4.6914,4.6797,4.5566,4.5,4.4863,4.3574,4.2793,4.2344,4.1933,4.1523,4.1172,4.1172,4.1172,4.1172,4.1172,4.1172,4.1172,4.1172,4.1172,4.1172,4.1172,4.1172,4.0996,4.0137,3.9902,3.9687,3.8809,3.8574,3.8574,3.8574,3.8574,3.8574,3.8574,3.8574,3.8437,3.8008,3.7559,3.7148,3.6738,3.6309,3.5879,3.5449,3.541,3.4941,3.3633,3.3809,3.375,3.291,3.2812,3.2637,3.2226,3.1797,3.1562,3.1562,3.1172,3.0957,3.0918,3.0918,3.0918,3.0898,3.0898,3.0898,3.0898,3.0898,3.0898,3.0898,3.0898,3.0898,4.2558,4.4629,4.6523,4.748,4.7969,4.8105,4.7676,4.6836,4.5566,4.3516,4.1914,4.041,0.0,0.0,0.0,4.2617,4.4902,0.0,4.8926,4.9453,0.0,4.832,4.8105,4.793,4.7617,4.7676,4.7988,4.8652,4.8789,4.8867,4.8867,4.918,4.9199,4.8867,4.8867,4.8867,4.8867,4.8867,4.8867,4.8848,4.8418,4.8047,4.7715,4.7168,4.6582,4.5957,4.5312,4.4648,4.3965,4.2988,4.2344,4.1914,4.1504,4.1269,4.1172,4.1172,4.1172,4.1172,4.1172,4.1172,4.1172,4.1172,4.1172,4.1172,4.1172,4.1172,4.0996,4.0137,3.9902,3.9687,3.8809,3.8574,3.8574,3.8574,3.8574,3.8574,3.8574,3.8574,3.8437,3.8008,3.7324,3.6797,3.668,3.6309,3.5879,3.5449,3.5664,3.5391,3.4082,3.4004,3.3867,3.332,3.2988,3.2754,3.2656,3.2246,3.2012,3.2012,3.1894,3.1699,3.1367,3.1367,3.1211,3.0898,3.0898,3.0898,3.0898,3.0898,3.0898,3.0898,3.0898,3.0898,4.4668,4.6289,4.7656,4.832,4.834,4.7851,4.6484,4.5332,4.375,4.1016,3.9394,3.8066,3.6719,3.7266,3.8594,0.0,0.0,0.0,4.8301,4.9238,4.959,0.0,4.9394,0.0,4.8769,4.8769,4.8965,4.9394,4.9082,4.8867,4.8867,4.9101,4.9121,4.8867,4.8867,4.8867,4.8867,4.8867,4.8867,4.8848,4.8223,4.7812,4.7558,4.6933,4.6289,4.5644,4.5215,4.4531,4.3633,4.2773,4.2187,4.1758,4.1348,4.1172,4.1172,4.1172,4.1172,4.1172,4.1172,4.1172,4.1172,4.1172,4.1172,4.1172,4.1172,4.1172,4.1035,4.0371,4.0039,3.9785,3.9277,3.9004,3.8906,3.9101,3.916,3.916,3.916,3.8984,3.8672,3.8047,3.7539,3.7168,3.6973,3.6738,3.6445,3.6016,3.6152,3.5898,3.4805,3.4648,3.4414,3.3769,3.3496,3.3281,3.3086,3.2676,3.2441,3.2441,3.2266,3.2051,3.1816,3.1621,3.1406,3.1172,3.0976,3.0898,3.0898,3.0898,3.0898,3.0898,3.0898,3.0898,4.6758,4.7773,4.8476,4.8848,4.8437,4.7305,4.4863,4.3398,4.1621,3.834,0.0,3.6074,3.5273,3.5312,3.6348,3.9023,0.0,4.3066,4.7246,4.8203,4.9043,5.0625,5.0488,5.0273,5.0332,4.9902,4.9785,5.0234,4.9394,4.8887,4.8945,4.8887,4.8867,4.8867,4.8867,4.8867,4.8867,4.8867,4.8828,4.8769,4.7969,4.7558,4.7461,4.666,4.6035,4.5566,4.5195,4.4492,4.3555,4.2754,4.2187,4.1758,4.1348,4.1172,4.1172,4.1172,4.1172,4.1172,4.1172,4.1172,4.1172,4.1172,4.1172,4.1172,4.1172,4.1172,4.1074,4.0644,4.0254,3.9961,3.9902,3.959,3.9394,3.9805,3.9902,3.9902,3.9902,3.957,3.9062,3.8242,3.8047,3.7871,3.7461,3.7324,3.7168,3.6816,3.6699,3.6406,3.5664,3.5469,3.5078,3.4238,3.416,3.3984,3.3535,3.3164,3.2949,3.2871,3.2539,3.2305,3.2246,3.1894,3.166,3.1601,3.125,3.1055,3.1055,3.1055,3.1055,3.1055,3.1055,3.1035,4.8262,4.8906,4.9316,4.9394,4.8008,4.6133,4.4258,4.1777,0.0,0.0,3.5371,3.4375,3.3867,3.4941,3.6992,4.0293,4.2519,4.5098,4.8691,4.957,5.0078,0.0,5.0742,5.084,5.1172,5.0527,5.0234,5.0664,4.9551,4.9023,4.9394,4.9062,4.8867,4.8867,4.8867,4.8867,4.8867,4.8867,4.8672,4.832,4.7812,4.7383,4.7031,4.6523,4.5879,4.5137,4.5058,4.4336,4.3144,4.2637,4.2187,4.1758,4.1348,4.1172,4.1172,4.1172,4.1172,4.1172,4.1172,4.1172,4.1172,4.1172,4.1172,4.1172,4.1172,4.1172,4.1074,4.0644,4.0469,4.0332,3.998,3.9844,3.9805,3.9883,3.9902,3.9902,3.9902,3.9824,3.9609,3.9082,3.8711,3.832,3.7891,3.7519,3.7266,3.7207,3.6894,3.6621,3.6465,3.584,3.5176,3.4648,3.459,3.4414,3.3984,3.3887,3.3691,3.334,3.3242,3.3047,3.2695,3.2617,3.2402,3.207,3.1992,3.1953,3.1953,3.1953,3.1953,3.1953,3.1953,3.1758,4.9023,4.9531,4.9805,4.959,4.8066,4.5879,4.3027,0.0,0.0,0.0,3.3984,3.3418,3.3418,3.4668,3.6445,3.8769,4.0586,4.3066,4.6973,4.7891,4.8808,5.0586,5.0996,5.1211,5.1406,5.1074,5.082,5.0801,5.0019,4.9531,4.9531,4.9101,4.8867,4.8867,4.8867,4.8867,4.8867,4.8867,4.875,4.8535,4.7891,4.7461,4.7246,4.6601,4.584,4.5019,4.5019,4.4277,4.3066,4.2851,4.2519,4.209,4.166,4.1504,4.1484,4.125,4.1172,4.1172,4.1172,4.1172,4.1172,4.1172,4.1172,4.1172,4.1172,4.1172,4.1133,4.0918,4.0703,4.0527,4.0547,4.0391,4.0273,4.0508,4.0566,4.0508,4.0273,4.0215,4.0098,3.9648,3.9394,3.9121,3.8672,3.8418,3.8144,3.7695,3.7461,3.7246,3.7031,3.6641,3.6055,3.5156,3.5059,3.4883,3.4434,3.4199,3.3984,3.3769,3.3555,3.332,3.3125,3.291,3.2695,3.25,3.2285,3.2229,3.2229,3.2229,3.2229,3.2229,3.2229,3.2051,4.9551,4.998,5.0215,4.9766,4.8086,4.5586,4.1992,3.9199,0.0,0.0,3.3008,3.2812,3.332,3.4336,3.5586,0.0,3.8379,4.0684,4.4941,4.6133,4.7598,0.0,5.1113,0.0,5.1426,5.1269,5.1055,5.082,5.0332,4.9844,4.9414,4.9043,4.8867,4.8867,4.8867,4.8867,4.8867,4.8867,4.8769,4.8574,4.791,4.748,4.7285,4.6504,4.5742,4.5019,4.4922,4.4258,4.3203,4.3125,4.2871,4.2519,4.1992,4.1797,4.1758,4.1328,4.1172,4.1172,4.1172,4.1172,4.1172,4.1172,4.1172,4.1172,4.1172,4.1172,4.1172,4.1172,4.0918,4.0742,4.1074,4.0918,4.0742,4.1094,4.1172,4.1074,4.0742,4.0664,4.0547,4.0117,4.0039,3.9883,3.9434,3.9355,3.9121,3.8437,3.8184,3.7949,3.7617,3.7422,3.6914,3.5898,3.5723,3.5488,3.5019,3.459,3.4277,3.4082,3.375,3.3555,3.3555,3.3164,3.2969,3.3066,3.2656,3.2441,3.2441,3.2441,3.2441,3.2441,3.2441,3.2383,5.0,5.043,5.0644,5.0215,4.7637,4.4492,4.1797,0.0,0.0,3.373,3.2793,3.248,3.3281,3.3848,3.4883,3.6953,3.8379,4.0586,4.4531,4.6465,4.8144,5.0019,0.0,0.0,5.1426,5.0742,5.043,5.0781,5.0058,4.9394,4.8945,4.8887,4.8867,4.8867,4.8867,4.8867,4.8867,4.8867,4.8476,4.7695,4.7617,4.7168,4.6406,4.5937,4.5469,4.5,4.4629,4.4141,4.3613,4.3242,4.3047,4.293,4.2109,4.1797,4.1758,4.1328,4.1172,4.1172,4.1172,4.1172,4.1172,4.1172,4.1172,4.1172,4.1172,4.1172,4.1172,4.1172,4.1152,4.1113,4.1172,4.1152,4.1133,4.1172,4.1172,4.1172,4.1113,4.1113,4.0976,4.0547,4.0469,4.0332,3.9902,3.9824,3.9805,3.9726,3.9023,3.8496,3.8457,3.7773,3.7246,3.7129,3.6777,3.6387,3.5937,3.5508,3.4922,3.4121,3.4043,3.4023,3.4023,3.3594,3.3555,3.3945,3.3535,3.3301,3.3301,3.3301,3.3301,3.3301,3.3301,3.3105,4.9785,5.0664,5.1016,5.0351,4.7773,4.4668,4.1816,0.0,3.5332,3.375,3.2949,3.2734,3.332,3.3555,3.4043,3.5176,0.0,0.0,4.0664,4.2187,4.4258,4.7812,4.8965,5.0,0.0,5.0898,5.041,5.0058,4.9473,4.9043,4.8867,4.8867,4.8867,4.8867,4.8867,4.8867,4.8867,4.8867,4.8555,4.7949,4.7695,4.7266,4.666,4.625,4.5683,4.5019,4.4844,4.4375,4.3691,4.3516,4.3301,4.3027,4.2402,4.2031,4.1758,4.1328,4.1172,4.1172,4.1172,4.1172,4.1172,4.1172,4.1172,4.1172,4.1172,4.1172,4.1172,4.1172,4.1172,4.1172,4.1172,4.1172,4.1172,4.1172,4.1172,4.1172,4.1172,4.1172,4.1113,4.0957,4.0918,4.0781,4.0351,4.0273,4.0195,3.9941,3.9355,3.8945,3.8945,3.8437,3.8066,3.8066,3.7226,3.6601,3.6426,3.5781,3.5234,3.4883,3.4609,3.4453,3.4453,3.4277,3.4277,3.4453,3.4277,3.418,3.418,3.418,3.4062,3.3809,3.3809,3.3574,4.873,5.0117,5.0859,5.0,4.7519,4.457,0.0,0.0,3.541,3.3926,3.3184,3.293,3.334,3.3418,3.3516,0.0,0.0,3.543,3.8184,3.9551,4.1738,4.5703,0.0,4.8105,5.0273,5.0566,5.0254,4.9394,4.9043,4.8867,4.8867,4.8867,4.8867,4.8867,4.8867,4.8867,4.8867,4.873,4.8457,4.8027,4.7598,4.7168,4.6738,4.6308,4.5723,4.5019,4.4902,4.4414,4.3711,4.3711,4.3457,4.3027,4.2598,4.2168,4.1758,4.1328,4.1172,4.1172,4.1172,4.1172,4.1172,4.1172,4.1172,4.1172,4.1172,4.1172,4.1172,4.1172,4.1172,4.1172,4.1172,4.1172,4.1172,4.1172,4.1172,4.1172,4.1172,4.1172,4.1172,4.1172,4.1172,4.1074,4.0762,4.0723,4.0605,4.0312,3.9883,3.959,3.959,3.9101,3.8769,3.8769,3.7734,3.6992,3.6875,3.6191,3.5664,3.541,3.5078,3.4902,3.4902,3.4766,3.4766,3.4902,3.4766,3.4707,3.4707,3.4707,3.4551,3.4258,3.4258,3.4023,4.6738,4.8535,4.998,4.9101,4.6621,4.3848,0.0,0.0,3.5156,3.4258,3.3379,3.293,3.334,3.3418,3.3418,3.3437,3.4531,0.0,3.8281,4.0059,4.1973,0.0,4.4805,4.5898,4.8027,4.9414,4.9824,4.8926,4.8867,4.8867,4.8867,4.8867,4.8867,4.8867,4.8867,4.8867,4.8867,4.8437,4.8008,4.7578,4.7148,4.6719,4.6289,4.5879,4.5449,4.5,4.459,4.4141,4.3711,4.3711,4.3457,4.3027,4.2598,4.2168,4.1758,4.1328,4.1172,4.1172,4.1172,4.1172,4.1172,4.1172,4.1172,4.1172,4.1172,4.1172,4.1172,4.1172,4.1172,4.1172,4.1172,4.1172,4.1172,4.1172,4.1172,4.1172,4.1172,4.1172,4.1172,4.1172,4.1172,4.1172,4.1172,4.1172,4.1172,4.1172,4.0781,4.0508,4.0508,3.9746,3.9199,3.9199,3.8418,3.7734,3.7324,3.6894,3.6289,3.5449,3.5391,3.5391,3.5391,3.4941,3.4922,3.5371,3.4941,3.4707,3.4707,3.4707,3.4707,3.4687,3.4687,3.4473,4.4258,4.5469,4.6152,4.5879,4.3769,4.1406,4.0117,0.0,3.5137,3.4258,3.3613,3.3262,3.3398,3.3418,3.3711,3.4629,3.5117,0.0,0.0,0.0,0.0,4.4101,4.7363,4.9433,4.9551,4.9941,4.9805,4.8926,4.8867,4.8867,4.8867,4.8867,4.8867,4.8867,4.8867,4.8711,4.8418,4.8574,4.8144,4.7129,4.7305,4.6992,4.6289,4.6172,4.5879,4.5449,4.5019,4.457,4.416,4.3828,4.3281,4.2617,4.248,4.1992,4.1348,4.123,4.1172,4.1172,4.1172,4.1172,4.1172,4.1172,4.1172,4.1172,4.1172,4.1172,4.1172,4.1172,4.1172,4.1172,4.1172,4.1172,4.1172,4.1172,4.1172,4.1172,4.1172,4.1172,4.1172,4.1172,4.1172,4.1172,4.1172,4.1172,4.1172,4.1172,4.0801,4.0527,4.0527,4.0019,3.9551,3.9238,3.8965,3.8516,3.7793,3.7344,3.6973,3.6719,3.6426,3.6269,3.6269,3.584,3.5664,3.582,3.5684,3.5605,3.5605,3.5605,3.5449,3.5176,3.4844,3.4473,0.0,4.332,4.3906,4.3906,4.207,0.0,0.0,3.7226,3.5234,3.4687,3.3965,3.3516,3.3848,3.3769,3.3945,3.4766,3.5176,3.5781,0.0,0.0,4.1308,4.4062,4.7832,4.9883,4.9043,4.9687,4.9805,4.8926,4.8867,4.8867,4.8867,4.8867,4.8867,4.8867,4.8867,4.8652,4.8203,4.832,4.7891,4.6933,4.7051,4.6738,4.6055,4.6055,4.5742,4.5176,4.4902,4.4531,0.0,4.3652,4.3047,4.2402,4.2246,4.1777,4.1172,4.1172,4.1172,4.1172,4.1172,4.1172,4.1172,4.1172,4.1172,4.1172,4.1172,4.1172,4.1172,4.1172,4.1172,4.1172,4.1172,4.1172,4.1172,4.1172,4.1172,4.1172,4.1172,4.1172,4.1172,4.1172,4.1172,4.1172,4.1172,4.1172,4.1172,4.1172,4.0937,4.0762,4.0762,4.0391,4.0019,3.9726,3.9394,3.8984,3.8457,3.7871,3.7461,3.7305,3.7051,3.6914,3.6914,3.6641,3.6504,3.6504,3.6348,3.6269,3.6269,3.6094,3.5879,3.5625,3.5332,3.4961,0.0,4.1816,0.0,0.0,0.0,0.0,0.0,3.7109,0.0,3.5351,3.4316,3.3691,3.4551,3.4355,3.4121,3.4238,3.4922,3.5762,3.668,3.8769,4.1328,4.4316,4.6836,4.8008,4.7109,4.8906,4.9785,4.8926,4.8867,4.8867,4.8867,4.8867,4.8848,4.8808,4.8808,4.8613,4.8164,4.7773,4.7324,4.6836,4.6465,4.6074,4.5625,4.5625,4.5195,4.4433,4.4375,4.4101,4.3672,4.3223,4.2773,4.2344,4.1953,4.1543,4.1172,4.1172,4.1172,4.1172,4.1172,4.1172,4.1172,4.1172,4.1172,4.1172,4.1172,4.1172,4.1172,4.1172,4.1172,4.1172,4.1172,4.1172,4.1172,4.1172,4.1172,4.1172,4.1172,4.1172,4.1172,4.1172,4.1172,4.1172,4.1172,4.1172,4.1172,4.1172,4.1172,4.1172,4.1172,4.082,4.0566,4.0527,3.9785,3.9277,3.9258,3.8496,3.7832,3.7422,3.7383,3.7383,3.7344,3.7324,3.7305,3.7305,3.6914,3.6719,3.6719,3.6309,3.6094,3.6074,3.6074,3.582,3.8945,0.0,3.8809,3.9473,3.8262,3.6992,0.0,3.6016,3.4863,3.4863,3.4101,3.3691,3.4551,3.4355,3.4512,3.584,3.5957,3.6406,3.791,4.1133,4.4336,4.6992,4.873,4.9238,4.8027,4.8984,4.9453,4.8906,4.8867,4.8867,4.8867,4.8867,4.8711,4.8379,4.8359,4.8144,4.7734,4.7637,4.7031,4.5976,4.6191,4.5898,4.5176,4.5176,4.5058,4.4844,4.416,4.3808,4.3652,4.2891,4.2324,4.1933,4.1836,4.1543,4.1172,4.1172,4.1172,4.1172,4.1172,4.1172,4.1172,4.1172,4.1172,4.1172,4.1172,4.1172,4.1172,4.1172,4.1172,4.1172,4.1172,4.1172,4.1172,4.1172,4.1172,4.1172,4.1172,4.1172,4.1172,4.1172,4.1172,4.1172,4.1172,4.1172,4.1172,4.1172,4.1172,4.1172,4.1172,4.1074,4.0898,4.0566,4.0332,4.0078,3.9766,3.9219,3.873,3.8301,3.8281,3.8125,3.7793,3.7461,3.7305,3.7305,3.7207,3.7148,3.7148,3.7051,3.6836,3.6523,3.6523,3.6113,3.8516,3.8086,3.7695,3.8164,3.7285,3.6328,3.6367,3.5508,3.4707,3.4707,3.4023,3.3691,3.4551,3.4355,3.4453,3.5586,3.5918,3.6894,3.9414,4.2266,4.5039,4.7617,4.8711,4.9141,4.8848,4.9238,4.9336,4.8887,4.8867,4.8867,4.8867,4.8672,4.8457,4.8223,4.7832,4.7519,4.7285,4.709,4.6543,4.5683,4.5703,4.5371,4.4726,4.4512,4.4316,4.4082,4.3418,4.3125,4.3066,4.2402,4.2012,4.1777,4.1582,4.1367,4.1172,4.1172,4.1172,4.1172,4.1172,4.1172,4.1172,4.1172,4.1172,4.1172,4.1172,4.1172,4.1172,4.1172,4.1172,4.1172,4.1172,4.1172,4.1172,4.1172,4.1172,4.1172,4.1172,4.1172,4.1172,4.1172,4.1172,4.1172,4.1172,4.1172,4.1172,4.1172,4.1172,4.1172,4.1172,4.1172,4.1074,4.084,4.0644,4.043,4.0195,3.9961,3.9629,3.9199,3.918,3.9082,3.8848,3.8398,3.7988,3.7598,3.7578,3.748,3.7305,3.7305,3.7187,3.6953,3.6758,3.6523,3.8574,3.8359,3.8105,3.8047,3.7344,3.6582,3.6211,3.5391,3.4707,3.4707,3.4023,3.3691,3.4551,3.4473,3.4434,3.4922,3.5957,3.7891,4.1289,4.3047,4.4902,4.7305,4.8008,4.8555,4.918,4.9355,4.9258,4.8887,4.8867,4.8867,4.8867,4.8437,4.8183,4.8105,4.7285,4.6797,4.6738,4.6387,4.5957,4.5488,4.5098,4.4668,4.418,4.3789,4.3379,4.2949,4.2519,4.2324,4.2305,4.1875,4.1699,4.166,4.1308,4.1172,4.1172,4.1172,4.1172,4.1172,4.1172,4.1172,4.1172,4.1172,4.1172,4.1172,4.1172,4.1172,4.1172,4.1172,4.1172,4.1172,4.1172,4.1172,4.1172,4.1172,4.1172,4.1172,4.1172,4.1172,4.1172,4.1172,4.1172,4.1172,4.1172,4.1172,4.1172,4.1172,4.1172,4.1172,4.1172,4.1172,4.1172,4.1172,4.084,4.0625,4.0625,4.0625,4.0469,4.0117,4.0019,3.9961,3.9902,3.9453,3.8887,3.8242,3.8164,3.7949,3.7578,3.7578,3.7519,3.7383,3.7031,3.7012,3.8574,3.8789,3.8926,3.8574,3.7559,3.666,3.6582,3.5605,3.4707,3.4707,3.4023,3.3691,3.4551,3.4961,3.5449,3.625,3.832,4.0918,4.4004,4.498,4.5918,4.7402,4.8281,4.8535,4.793,4.8535,4.8926,4.8867,4.8867,4.8867,4.8867,4.8437,4.8047,4.7695,4.6855,4.623,4.5879,4.5801,4.5371,4.459,4.4531,4.4062,4.3281,4.3203,4.293,4.25,4.207,4.1894,4.1855,4.1445,4.1269,4.1269,4.1191,4.1172,4.1172,4.1172,4.1172,4.1172,4.1172,4.1172,4.1172,4.1172,4.1172,4.1172,4.1172,4.1172,4.1172,4.1172,4.1172,4.1172,4.1172,4.1172,4.1172,4.1172,4.1172,4.1172,4.1172,4.1172,4.1172,4.1172,4.1172,4.1172,4.1172,4.1172,4.1172,4.1172,4.1172,4.1172,4.1172,4.1172,4.1172,4.1172,4.1113,4.1074,4.1074,4.1074,4.1055,4.0976,4.0625,4.0273,3.9902,3.9453,3.9316,3.959,3.9199,3.8984,3.8906,3.8906,3.8535,3.7832,3.7754,3.7578,3.8574,3.8555,3.8516,3.8574,3.7793,3.6758,3.582,3.4961,3.4434,3.4648,3.4023,3.3691,3.4551,3.5078,3.6133,3.8379,4.0527,4.2558,4.4394,4.5039,4.5801,4.707,4.7578,4.793,4.8242,4.8633,4.8867,4.8867,4.8633,4.8516,4.8516,4.7871,4.7324,4.6894,4.6289,4.5527,4.4629,4.4863,4.4668,4.4023,4.3789,4.334,4.2715,4.25,4.2285,4.207,4.1641,4.1465,4.1445,4.125,4.1172,4.1172,4.1172,4.1172,4.1172,4.1172,4.1172,4.1172,4.1172,4.1172,4.1172,4.1172,4.1172,4.1172,4.1172,4.1172,4.1172,4.1172,4.1172,4.1172,4.1172,4.1172,4.1172,4.1172,4.1172,4.1172,4.1172,4.1172,4.1172,4.1172,4.1172,4.1172,4.1172,4.1172,4.1172,4.1172,4.1172,4.1172,4.1172,4.1172,4.1172,4.1172,4.1172,4.1172,4.1172,4.1172,4.1172,4.1172,4.0976,4.0684,4.0254,4.0039,3.9902,3.9902,3.9687,3.957,3.957,3.9316,3.9004,3.8594,3.8144,3.7812,3.8457,3.8262,3.8066,3.7988,3.7559,3.6875,3.584,3.5117,3.4824,3.5351,3.4863,3.4492,3.5059,3.5859,3.748,4.0605,4.2558,4.4062,4.5117,4.5547,4.6172,4.7246,4.7383,4.7773,4.8769,4.8867,4.8867,4.8867,4.8457,4.8203,4.8203,4.7305,4.6641,4.6308,4.5703,4.4844,4.3711,4.3965,4.3867,4.3398,4.3183,4.2793,4.2266,4.1953,4.1758,4.1641,4.1308,4.1172,4.1172,4.1172,4.1172,4.1172,4.1172,4.1172,4.1172,4.1172,4.1172,4.1172,4.1172,4.1172,4.1172,4.1172,4.1172,4.1172,4.1172,4.1172,4.1172,4.1172,4.1172,4.1172,4.1172,4.1172,4.1172,4.1172,4.1172,4.1172,4.1172,4.1172,4.1172,4.1172,4.1172,4.1172,4.1172,4.1172,4.1172,4.1172,4.1172,4.1172,4.1172,4.1172,4.1172,4.1172,4.1172,4.1172,4.1172,4.1172,4.1172,4.1172,4.1172,4.1035,4.0684,4.0586,4.043,4.0195,4.0098,4.0039,4.0039,3.9687,3.9394,3.918,3.8535,3.8125,3.8086,3.8242,3.8164,3.6601,3.6465,3.6992,3.8047,3.7363,3.6719,3.7519,3.7324,3.6914,3.6582,3.8203,4.0293,4.2539,4.4355,4.6055,4.7695,4.7949,4.8164,4.8652,4.8711,4.875,4.8848,4.8867,4.8867,4.8867,4.8457,4.8203,4.8203,4.7031,4.6328,4.6308,4.5117,4.4238,4.3711,4.3359,4.2949,4.2519,4.2891,4.2656,4.1836,4.1816,4.1582,4.1211,4.1191,4.1172,4.1172,4.1172,4.1172,4.1172,4.1172,4.1172,4.1172,4.1172,4.1172,4.1172,4.1172,4.1172,4.1172,4.1172,4.1172,4.1172,4.1172,4.1172,4.1172,4.1172,4.1172,4.1172,4.1172,4.1172,4.1172,4.1172,4.1172,4.1172,4.1172,4.1172,4.1172,4.1172,4.1172,4.1172,4.1172,4.1172,4.1172,4.1172,4.1172,4.1172,4.1172,4.1172,4.1172,4.1172,4.1172,4.1172,4.1172,4.1172,4.1172,4.1172,4.1172,4.1152,4.1133,4.0742,4.0703,4.1074,4.0684,4.0469,4.0469,4.0449,4.0,3.9199,3.9141,3.8691,3.8047,3.8047,3.7949,3.7051,3.6738,3.6875,3.7617,3.7402,3.7383,3.8496,3.8379,3.8047,3.7891,3.9414,4.1308,4.3164,4.5156,4.6875,4.8047,4.8437,4.8672,4.8848,4.8867,4.8867,4.8867,4.8613,4.8457,4.8457,4.7558,4.7031,4.7031,4.6055,4.5254,4.4707,4.4219,4.3496,4.2519,4.2617,4.2324,4.166,4.209,4.1973,4.1406,4.1406,4.1328,4.1172,4.1172,4.1172,4.1172,4.1172,4.1172,4.1172,4.1172,4.1172,4.1172,4.1172,4.1172,4.1172,4.1172,4.1172,4.1172,4.1172,4.1172,4.1172,4.1172,4.1172,4.1172,4.1172,4.1172,4.1172,4.1172,4.1172,4.1172,4.1172,4.1172,4.1172,4.1172,4.1172,4.1172,4.1172,4.1172,4.1172,4.1172,4.1172,4.1172,4.1172,4.1172,4.1172,4.1172,4.1172,4.1172,4.1172,4.1172,4.1172,4.1172,4.1172,4.1172,4.1172,4.1172,4.1172,4.1172,4.1016,4.1016,4.1172,4.1016,4.0918,4.0918,4.0644,4.0351,4.0019,3.9453,3.8887,3.748,3.7226,3.7051,3.6758,3.6582,3.6758,3.7871,3.8125,3.8516,3.9922,3.9668,3.9277,3.9551,4.0449,4.1738,4.3437,4.5527,4.7187,4.791,4.8496,4.875,4.8476,4.8574,4.8594,4.8476,4.8183,4.7949,4.7812,4.6875,4.6191,4.5918,4.5078,4.4277,4.3535,4.3379,4.2812,4.1816,4.209,4.1875,4.1172,4.1465,4.1445,4.1172,4.1172,4.1172,4.1172,4.1172,4.1172,4.1172,4.1172,4.1172,4.1172,4.1172,4.1172,4.1172,4.1172,4.1172,4.1172,4.1172,4.1172,4.1172,4.1172,4.1172,4.1172,4.1172,4.1172,4.1172,4.1172,4.1172,4.1172,4.1172,4.1172,4.1172,4.1172,4.1172,4.1172,4.1172,4.1172,4.1172,4.1172,4.1172,4.1172,4.1172,4.1172,4.1172,4.1172,4.1172,4.1172,4.1172,4.1172,4.1172,4.1172,4.1172,4.1172,4.1172,4.1172,4.1172,4.1172,4.1172,4.1172,4.1172,4.1172,4.1172,4.1172,4.1172,4.1172,4.1172,4.0879,4.0664,4.0508,3.9902,3.9238,3.625,3.5723,3.541,3.541,3.5723,3.6719,3.9316,3.9902,4.0391,4.209,4.1426,4.0801,4.1641,4.1465,4.1738,4.3418,4.5508,4.707,4.7519,4.8301,4.8535,4.7676,4.7949,4.8027,4.7617,4.7578,4.7383,4.6953,4.6523,4.5898,4.5058,4.418,4.3496,4.3086,4.2656,4.2226,4.1797,4.1797,4.1582,4.1172,4.1172,4.1172,4.1172,4.1172,4.1172,4.1172,4.1172,4.1172,4.1172,4.1172,4.1172,4.1172,4.1172,4.1172,4.1172,4.1172,4.1172,4.1172,4.1172,4.1172,4.1172,4.1172,4.1172,4.1172,4.1172,4.1172,4.1172,4.1172,4.1172,4.1172,4.1172,4.1172,4.1172,4.1172,4.1172,4.1172,4.1172,4.1172,4.1172,4.1172,4.1172,4.1172,4.1172,4.1172,4.1172,4.1172,4.1172,4.1172,4.1172,4.1172,4.1172,4.1172,4.1172,4.1172,4.1172,4.1172,4.1172,4.1172,4.1172,4.1172,4.1172,4.1172,4.1172,4.1172,4.1172,4.1172,4.1172,4.1172,4.0957,4.0527,4.0527,3.9824,3.6699,3.6387,3.6289,3.6289,3.6601,3.7441,3.9434,4.0117,4.0898,4.291,4.2539,4.1855,4.1797,4.1933,4.2324,4.3125,4.4824,4.6289,4.7012,4.7598,4.7871,4.7617,4.7695,4.7598,4.7168,4.6855,4.6504,4.6074,4.5078,4.4355,4.4121,4.3281,4.2617,4.2187,4.2051,4.1777,4.1367,4.1367,4.1308,4.1172,4.1172,4.1172,4.1172,4.1172,4.1172,4.1172,4.1172,4.1172,4.1172,4.1172,4.1172,4.1172,4.1172,4.1172,4.1172,4.1172,4.1172,4.1172,4.1172,4.1172,4.1172,4.1172,4.1172,4.1172,4.1172,4.1172,4.1172,4.1172,4.1172,4.1172,4.1172,4.1172,4.1172,4.1172,4.1172,4.1172,4.1172,4.1172,4.1172,4.1172,4.1172,4.1172,4.1172,4.1172,4.1172,4.1172,4.1172,4.1172,4.1172,4.1172,4.1172,4.1172,4.1172,4.1172,4.1172,4.1172,4.1172,4.1172,4.1172,4.1172,4.1172,4.1172,4.1172,4.1172,4.1172,4.1172,4.1172,4.1172,4.1113,4.0976,4.0664,4.0312,3.5918,3.5644,3.5762,3.6289,3.6855,3.7793,3.9707,4.0996,4.2246,4.3887,4.3125,4.2266,4.2519,4.2207,4.2246,4.3164,4.4512,4.5586,4.6094,4.6699,4.6953,4.6601,4.6719,4.666,4.6211,4.5801,4.5371,4.4922,4.4004,4.3301,4.2969,4.2461,4.1992,4.1562,4.1543,4.1426,4.1172,4.1172,4.1172,4.1172,4.1172,4.1172,4.1172,4.1172,4.1172,4.1172,4.1172,4.1172,4.1172,4.1172,4.1172,4.1172,4.1172,4.1172,4.1172,4.1172,4.1172,4.1172,4.1172,4.1172,4.1172,4.1172,4.1172,4.1172,4.1172,4.1172,4.1172,4.1172,4.1172,4.1172,4.1172,4.1172,4.1172,4.1172,4.1172,4.1172,4.1172,4.1172,4.1172,4.1172,4.1172,4.1172,4.1172,4.1308,4.1367,4.1191,4.1172,4.1172,4.1172,4.1172,4.1172,4.1172,4.1172,4.1172,4.1172,4.1172,4.1172,4.1172,4.1172,4.1172,4.1172,4.1172,4.1172,4.1172,4.1172,4.1172,4.1172,4.1172,4.1172,4.1172,4.0898,4.0684,3.4512,3.4199,3.4512,3.5801,3.6894,3.8184,4.0176,4.2168,4.3808,4.4629,4.3281,4.2305,4.3379,4.2324,4.1797,4.334,4.4297,4.4863,4.4902,4.5605,4.582,4.5,4.5293,4.5371,4.4902,4.4492,4.4082,4.3633,4.3203,4.2617,4.1836,4.1758,4.1562,4.1191,4.1172,4.1172,4.1172,4.1133,4.1133,4.1172,4.1133,4.1133,4.1172,4.1172,4.1172,4.1172,4.1172,4.1172,4.1172,4.1172,4.1172,4.1172,4.1172,4.1172,4.1172,4.1172,4.1172,4.1172,4.1172,4.1172,4.1172,4.1172,4.1172,4.1172,4.1172,4.1172,4.1172,4.1172,4.1172,4.1172,4.1172,4.1172,4.1172,4.1172,4.1172,4.1172,4.1172,4.1172,4.1172,4.1172,4.1172,4.1172,4.1172,4.1484,4.1621,4.123,4.1211,4.123,4.123,4.1269,4.1269,4.123,4.123,4.1211,4.1172,4.1172,4.1172,4.1172,4.1172,4.1172,4.1172,4.1172,4.1172,4.1172,4.1172,4.1172,4.1172,4.1172,4.1172,4.1172,4.1172,4.0957,3.5176,3.5117,3.541,3.6699,3.8691,4.0547,4.1348,4.2129,4.2754,4.2949,4.3144,4.3164,4.2773,4.2402,4.2266,4.2637,4.3144,4.3613,4.3945,4.4453,4.4609,4.4062,4.4394,4.4355,4.3574,4.3418,4.3183,4.2734,4.2305,4.1992,4.1816,4.1484,4.1269,4.1172,4.1172,4.1172,4.1172,4.084,4.084,4.1172,4.082,4.084,4.1172,4.1172,4.1172,4.1172,4.1172,4.1172,4.1172,4.1172,4.1172,4.1172,4.1172,4.1172,4.1172,4.1172,4.1172,4.1172,4.1172,4.1172,4.1172,4.1172,4.1172,4.1172,4.1172,4.1172,4.1172,4.1172,4.1172,4.1172,4.1172,4.1172,4.1172,4.1172,4.1172,4.1172,4.1172,4.1172,4.1172,4.1172,4.1172,4.1172,4.1172,4.125,4.1269,4.1191,4.1445,4.166,4.166,4.1953,4.2031,4.1699,4.166,4.1523,4.1211,4.1172,4.1172,4.1172,4.1172,4.1172,4.1172,4.1172,4.1172,4.1172,4.1172,4.1172,4.1172,4.1172,4.1172,4.1172,4.1172,4.1133,3.4629,3.4902,3.584,3.7734,3.9707,4.123,4.1445,4.1816,4.207,4.1875,4.2344,4.2715,4.248,4.2266,4.2187,4.2402,4.2617,4.2851,4.3066,4.3301,4.3359,4.3125,4.3301,4.3281,4.2812,4.2578,4.2383,4.2148,4.1738,4.1504,4.1504,4.1289,4.1172,4.1172,4.0976,4.0859,4.0859,4.043,4.0332,4.0566,4.0527,4.0762,4.1172,4.1172,4.1172,4.1172,4.1172,4.1172,4.1172,4.1172,4.1172,4.1172,4.1172,4.1172,4.1172,4.1172,4.1172,4.1172,4.1172,4.1172,4.1172,4.1172,4.1172,4.1172,4.1172,4.1172,4.1172,4.1172,4.1172,4.1172,4.1172,4.1172,4.1172,4.1172,4.1172,4.1172,4.1172,4.1172,4.1172,4.1172,4.1172,4.1172,4.1172,4.1348,4.1543,4.1738,4.1953,4.2109,4.2109,4.2285,4.2344,4.2129,4.2109,4.1933,4.1504,4.1484,4.1387,4.1191,4.1172,4.1172,4.1172,4.1172,4.1172,4.1172,4.1172,4.1172,4.1172,4.1172,4.1172,4.1172,4.1172,4.1172,3.3945,3.4609,3.6191,3.8594,4.0137,4.1074,4.1152,4.1445,4.1601,4.125,4.1504,4.1894,4.2148,4.1933,4.1816,4.2148,4.2207,4.2207,4.2207,4.2266,4.2285,4.2226,4.2266,4.2285,4.2207,4.1894,4.1699,4.1699,4.1367,4.1172,4.1172,4.1094,4.1055,4.1055,4.0644,4.041,4.041,4.0,3.9824,3.9902,4.0332,4.0762,4.1172,4.1172,4.1172,4.1172,4.1172,4.1172,4.1172,4.1172,4.1172,4.1172,4.1172,4.1172,4.1172,4.1172,4.1172,4.1172,4.1172,4.1172,4.1172,4.1172,4.1172,4.1172,4.1172,4.1172,4.1172,4.1172,4.1172,4.1172,4.1172,4.1172,4.1172,4.1172,4.1172,4.1172,4.1172,4.1172,4.1172,4.1172,4.1172,4.1172,4.1172,4.1465,4.1836,4.2266,4.2383,4.2461,4.2519,4.2598,4.2617,4.2539,4.2539,4.2344,4.1836,4.1875,4.1699,4.1211,4.125,4.125,4.1172,4.1172,4.1172,4.1172,4.1172,4.1172,4.1172,4.1172,4.1172,4.1172,4.1172,4.1172,3.457,0.0,3.6934,0.0,3.9902,4.0703,0.0,0.0,4.125,4.1191,4.1504,4.1699,4.1387,4.1289,4.1269,4.1328,4.1348,4.1348,4.1348,4.166,4.1758,4.1387,4.166,4.1738,4.1387,4.1289,4.125,4.125,4.1211,4.1172,4.1172,4.082,4.0605,4.0605,4.0195,3.998,3.998,3.9531,3.9492,3.9902,4.0332,4.0762,4.1172,4.1172,4.1172,4.1172,4.1172,4.1172,4.1172,4.1172,4.1172,4.1172,4.1172,4.1172,4.1172,4.1172,4.1172,4.1172,4.1172,4.1172,4.1172,4.1172,4.1172,4.1172,4.1172,4.1172,4.1172,4.1172,4.1172,4.1172,4.1172,4.1172,4.1172,4.1172,4.1172,4.1172,4.1172,4.1172,4.1172,4.1172,4.1172,4.1172,4.1172,4.1211,4.1406,4.1816,4.2187,4.2558,4.2949,4.3301,4.3398,4.3027,4.2988,4.2676,4.1875,4.2129,4.2012,4.123,4.1523,4.1562,4.1191,4.1172,4.1172,4.1172,4.1172,4.1172,4.1172,4.1172,4.1172,4.1172,4.1172,4.1172,3.5156,3.5312,3.6035,0.0,3.8965,3.9609,4.0293,4.0449,4.0449,4.0449,4.0605,4.082,4.1113,4.1172,4.1172,4.1172,4.1172,4.1172,4.1172,4.1328,4.1387,4.1191,4.1348,4.1387,4.1191,4.1172,4.1172,4.1172,4.1172,4.1074,4.082,4.0625,4.041,4.0176,3.9746,3.9512,3.9512,3.9062,3.9199,3.9902,4.0332,4.0762,4.1172,4.1172,4.1172,4.1172,4.0918,4.0801,4.0801,4.0801,4.0801,4.084,4.1074,4.1172,4.1172,4.1172,4.1172,4.1172,4.1172,4.1172,4.1172,4.1172,4.1172,4.1172,4.1172,4.1172,4.1172,4.1172,4.1172,4.1172,4.1172,4.1172,4.1172,4.1172,4.1172,4.1172,4.1172,4.1172,4.1172,4.1172,4.1367,4.1445,4.1211,4.1367,4.166,4.209,4.2519,4.2949,4.3379,4.3594,4.3633,4.3457,4.3437,4.3183,4.2558,4.2676,4.2519,4.1914,4.2051,4.207,4.1894,4.166,4.1523,4.1523,4.1289,4.1172,4.1172,4.1172,4.1172,4.1172,4.1172,4.1172,0.0,0.0,3.5254,3.6875,3.7695,3.832,0.0,0.0,3.959,3.9707,3.9824,4.0059,4.0566,4.0762,4.084,4.084,4.084,4.084,4.084,4.0937,4.0976,4.0859,4.1035,4.1094,4.0879,4.1055,4.1074,4.0859,4.0937,4.082,4.0391,4.0254,4.0039,3.9726,3.9277,3.9043,3.9043,3.8828,3.918,4.0059,4.0371,4.0762,4.1172,4.1172,4.1172,4.1152,4.0703,4.0527,4.0508,4.041,4.043,4.0547,4.0879,4.1074,4.1172,4.1172,4.1172,4.1172,4.1172,4.1172,4.1172,4.1172,4.1172,4.1172,4.1172,4.1172,4.1172,4.1172,4.1172,4.1172,4.1172,4.1172,4.1211,4.1308,4.125,4.1211,4.1308,4.1328,4.1367,4.1465,4.1738,4.1855,4.1543,4.166,4.1973,4.2519,4.2773,4.3105,4.3633,4.3711,4.3711,4.3711,4.3711,4.3535,4.3105,4.3183,4.3008,4.2461,4.2539,4.25,4.2285,4.1973,4.1758,4.1641,4.1328,4.1172,4.1172,4.1172,4.1172,4.1172,4.1172,4.1172,0.0,3.4746,0.0,3.5488,3.6152,3.6992,0.0,0.0,3.875,3.916,3.959,3.9766,3.9375,3.9668,3.9961,3.9961,3.9961,3.9961,3.9961,4.0312,4.041,4.0019,4.0684,4.0859,4.0039,4.0703,4.084,4.0019,4.0332,4.0371,3.9961,3.9512,3.9258,3.9238,3.8828,3.8613,3.8613,3.8984,3.9609,4.0488,4.0508,4.0762,4.1172,4.1172,4.1172,4.1152,4.0703,4.0527,4.0488,4.0098,4.0156,4.0527,4.0547,4.0801,4.1172,4.1172,4.1172,4.1172,4.1172,4.1172,4.1172,4.1172,4.1172,4.1172,4.1172,4.1172,4.1172,4.1172,4.1172,4.1172,4.1172,4.1172,4.1269,4.168,4.1465,4.1289,4.168,4.1758,4.1894,4.2285,4.2383,4.2383,4.2363,4.2051,4.209,4.293,4.2715,4.2754,4.3594,4.3711,4.3711,4.3711,4.3711,4.3535,4.3105,4.3437,4.332,4.248,4.2812,4.2676,4.1875,4.1816,4.1621,4.1211,4.1191,4.1172,4.1172,4.1172,4.1172,4.1172,4.1172,4.1172,0.0,0.0,0.0,3.5254,3.541,3.5644,3.6504,3.7031,3.7402,3.7539,3.793,3.8184,3.8008,3.8789,3.9453,3.9453,3.9219,3.9238,3.9824,3.9531,3.9434,3.9844,3.9902,3.9902,3.9902,4.0176,4.0234,3.9922,4.0039,3.9922,3.9473,3.9297,3.9082,3.8809,3.8652,3.8711,3.8965,3.9414,3.9941,4.0527,4.0801,4.1016,4.1172,4.1172,4.1016,4.0723,4.0312,4.0117,4.0078,3.9629,3.9551,3.9726,4.0293,4.0625,4.0781,4.1074,4.1172,4.1172,4.1172,4.1172,4.1172,4.1172,4.1172,4.1172,4.1172,4.1172,4.1172,4.1172,4.1172,4.1172,4.1172,4.1172,4.1289,4.1699,4.168,4.1777,4.2461,4.2402,4.2246,4.2402,4.2656,4.2754,4.248,4.2305,4.2402,4.2988,4.2949,4.3047,4.3633,4.3711,4.3711,4.3711,4.3711,4.3633,4.3496,4.3613,4.3574,4.3262,4.3398,4.334,4.3027,4.2754,4.2558,4.2402,4.1855,4.1445,4.1172,4.1172,4.1172,4.1172,4.1172,4.1172,3.5762,0.0,0.0,0.0,3.4824,3.4648,3.5234,3.5703,3.6016,3.6016,3.6465,3.6836,3.668,3.7344,3.8066,3.8496,3.8203,3.8184,3.8926,3.8633,3.8516,3.8965,3.9004,3.9062,3.9219,3.9492,3.9551,3.9258,3.9492,3.9394,3.8809,3.8906,3.8867,3.8594,3.8574,3.8769,3.9199,3.9668,4.0098,4.0527,4.0976,4.1172,4.1172,4.1172,4.0937,4.0508,4.0078,3.9805,3.9648,3.9336,3.9297,3.9512,4.0234,4.0605,4.0781,4.1074,4.1172,4.1172,4.1172,4.1172,4.1172,4.1172,4.1172,4.1172,4.1172,4.1172,4.1172,4.1172,4.1172,4.1172,4.1172,4.1387,4.1621,4.1758,4.2012,4.2383,4.2949,4.2851,4.2676,4.2832,4.3086,4.3203,4.291,4.2734,4.2793,4.3223,4.3164,4.3223,4.3652,4.3711,4.3711,4.3711,4.3711,4.3711,4.3711,4.3711,4.3711,4.3711,4.3711,4.3633,4.3496,4.3086,4.2793,4.2656,4.209,4.166,4.1387,4.1387,4.1308,4.1172,4.1308,4.1308,0.0,0.0,0.0,0.0,0.0,0.0,3.4082,0.0,3.4687,3.4687,3.5371,3.5859,3.5449,3.5351,3.5742,3.7012,3.6875,3.6758,3.7207,3.7598,3.7695,3.7324,3.8008,3.834,3.7949,3.8652,3.8809,3.7969,3.8691,3.8809,3.7969,3.834,3.8574,3.8574,3.8574,3.8769,3.9199,3.9668,4.0098,4.0527,4.0976,4.1172,4.1172,4.1172,4.0918,4.0488,4.0059,3.9609,3.9199,3.9199,3.9473,3.9922,4.0351,4.0781,4.1152,4.1172,4.1172,4.1172,4.1172,4.1172,4.1172,4.1172,4.1172,4.1172,4.1172,4.1172,4.1172,4.1172,4.1172,4.1172,4.1172,4.1797,4.2305,4.1914,4.2461,4.3086,4.3105,4.3105,4.3223,4.3633,4.3711,4.3711,4.3711,4.3359,4.3242,4.3633,4.3359,4.3242,4.3652,4.3711,4.3711,4.373,4.3711,4.3711,4.373,4.3711,4.3711,4.3711,4.3711,4.3516,4.3105,4.2695,4.2266,4.1855,4.1836,4.1836,4.1836,4.1816,4.1582,4.1211,4.1601,4.1562,3.7168,0.0,0.0,0.0,0.0,0.0,0.0,0.0,3.4238,3.4238,3.4687,3.5019,3.4902,3.4394,3.4277,3.5254,3.5312,3.5508,3.6269,3.5918,3.5898,3.6738,3.6777,3.6934,3.7422,3.7676,3.7734,3.748,3.7969,3.8164,3.793,3.834,3.8574,3.8574,3.8574,3.8769,3.9199,3.9668,4.0098,4.0527,4.0976,4.1172,4.1172,4.084,4.0469,4.0039,3.959,3.9316,3.9199,3.9199,3.9277,3.9473,4.0234,4.0586,4.0742,4.1055,4.1172,4.1172,4.1172,4.1172,4.1172,4.1172,4.1172,4.1172,4.1172,4.1172,4.1172,4.1172,4.1172,4.1172,4.1172,4.1562,4.2031,4.2207,4.2676,4.3164,4.3457,4.3535,4.3574,4.3691,4.3711,4.3711,4.3711,4.3613,4.3574,4.3691,4.3613,4.3574,4.3691,4.3711,4.3828,4.418,4.3906,4.3848,4.418,4.3906,4.3711,4.3711,4.3711,4.3652,4.3535,4.3418,4.3301,4.3183,4.2871,4.2715,4.2715,4.2109,4.1738,4.1621,4.1426,4.1289,3.8281,3.7598,3.6992,3.6641,0.0,0.0,3.4199,3.4082,3.3926,3.3442,3.3613,3.3848,3.3672,3.3242,3.3125,3.3789,3.3906,3.4277,3.5312,3.5019,3.498,3.5762,3.5625,3.5742,3.6445,3.666,3.6758,3.6758,3.748,3.8008,3.8184,3.8437,3.8574,3.8574,3.8574,3.8691,3.8945,3.9375,3.9824,4.0273,4.0703,4.0996,4.1172,4.0918,4.0469,3.9883,3.9609,3.9375,3.9219,3.9414,3.959,3.9824,4.0527,4.0801,4.082,4.1074,4.1172,4.1172,4.1172,4.1172,4.1172,4.1172,4.1172,4.1172,4.1172,4.1172,4.1172,4.1172,4.1172,4.1211,4.1387,4.1758,4.2168,4.2598,4.3027,4.3398,4.3652,4.3711,4.3711,4.3711,4.3711,4.3711,4.3711,4.3711,4.3711,4.3711,4.3711,4.3711,4.3711,4.3711,4.3887,4.4355,4.3984,4.3887,4.4355,4.3965,4.3711,4.3711,4.3711,4.3711,4.3711,4.3535,4.3437,4.3437,4.3203,4.3086,4.3086,4.2578,4.2246,4.2051,4.1621,4.1348,3.9394,3.8965,3.8457,3.7637,3.6797,0.0,3.457,3.4258,3.3867,3.2637,3.2676,3.2812,3.2383,3.2266,3.2383,3.2793,3.2832,3.3203,3.4394,3.4551,3.457,3.4629,3.4629,3.4805,3.5273,3.5703,3.5957,3.5957,3.7129,3.8066,3.8555,3.8574,3.8574,3.8574,3.8574,3.8574,3.8574,3.8984,3.9414,3.9824,4.0254,4.0684,4.1094,4.0996,4.0586,3.9961,3.9863,3.9609,3.9316,3.9766,4.0195,4.0566,4.0996,4.1172,4.1172,4.1172,4.1172,4.1172,4.1172,4.1172,4.1172,4.1172,4.1172,4.1172,4.1172,4.1172,4.1172,4.1172,4.1172,4.1269,4.1699,4.2109,4.2539,4.2969,4.3359,4.3652,4.3691,4.3672,4.3652,4.3691,4.3711,4.3711,4.3711,4.3711,4.3711,4.3711,4.3711,4.3711,4.3711,4.3711,4.3906,4.4414,4.4062,4.3965,4.4433,4.4043,4.3769,4.3711,4.3711,4.3711,4.3711,4.334,4.3144,4.3144,4.3144,4.3144,4.3144,4.3105,4.2851,4.2422,4.1992,4.1601,3.9883,3.9434,3.8965,3.8457,3.7676,0.0,3.5859,3.5371,3.4863,3.3906,3.3769,3.3691,3.3262,3.291,3.2812,3.3242,3.3008,3.3008,3.3594,3.3672,3.3809,3.416,3.4199,3.4355,3.4785,3.5254,3.5508,3.5508,3.6699,3.7754,3.8535,3.8574,3.8574,3.8574,3.8574,3.8574,3.8574,3.8984,3.9258,3.9336,3.9805,4.0234,4.0625,3.9902,3.9883,4.0351,3.9648,3.9492,3.9785,4.0234,4.0449,4.0566,4.0996,4.1172,4.1172,4.1172,4.1172,4.1172,4.1172,4.1172,4.1172,4.1172,4.1172,4.1172,4.1172,4.1172,4.1172,4.1172,4.1172,4.1269,4.1699,4.2109,4.2539,4.2969,4.3144,4.3301,4.3633,4.3437,4.3301,4.3633,4.3711,4.3711,4.3711,4.3711,4.3711,4.3711,4.3711,4.3711,4.3711,4.3711,4.4004,4.4824,4.4512,4.4433,4.4863,4.4512,4.4101,4.373,4.3711,4.3711,4.3711,4.3633,4.3574,4.3574,4.3574,4.3574,4.3574,4.3242,4.2851,4.2422,4.1992,4.1758,4.0586,4.0195,3.9766,3.9336,3.8574,0.0,0.0,3.6172,3.5391,3.4297,3.3906,3.3555,3.291,3.2617,3.2617,3.3047,3.293,3.2949,3.3359,3.3418,3.3496,3.373,3.375,3.3828,3.4043,3.4668,3.541,3.6269,3.7129,3.7891,3.8535,3.8574,3.8574,3.8574,3.8574,3.8574,3.8574,3.8789,3.9004,3.9199,3.9434,3.9785,4.0195,3.9746,3.9668,3.9844,3.9394,3.9473,3.9902,3.9883,4.0117,4.0566,4.0996,4.1035,4.0879,4.1094,4.1172,4.1172,4.1172,4.1172,4.1172,4.1172,4.1172,4.1172,4.1172,4.1172,4.1172,4.1172,4.1172,4.1269,4.1699,4.2109,4.2539,4.2969,4.3242,4.3437,4.3652,4.3535,4.3457,4.3672,4.3711,4.3711,4.3711,4.3711,4.3711,4.3711,4.3711,4.3711,4.3711,4.3711,4.3965,4.4648,4.4316,4.4316,4.4961,4.4433,4.4043,4.4043,4.3828,4.3711,4.3711,4.3711,4.3711,4.3711,4.3711,4.3711,4.3711,4.3496,4.3164,4.2734,4.2305,4.1992,4.1172,4.0918,4.0547,4.0117,3.9414,3.8594,0.0,0.0,0.0,3.4707,0.0,0.0,0.0,0.0,0.0,3.2754,0.0,0.0,0.0,3.3379,0.0,3.3418,3.3418,3.3457,3.3535,3.4238,3.5391,3.7051,3.7422,3.7812,3.8418,3.8379,3.8398,3.8574,3.8496,3.8496,3.8574,3.8574,3.875,3.9082,3.9082,3.9375,3.9883,3.9805,3.9648,3.9453,3.9375,3.9492,3.9746,3.9453,3.9707,4.0312,4.084,4.084,4.0586,4.1016,4.1172,4.1172,4.1172,4.1172,4.1172,4.1172,4.1172,4.1172,4.1172,4.1172,4.1172,4.1172,4.1172,4.1269,4.1699,4.2109,4.2539,4.2969,4.334,4.3613,4.3691,4.3633,4.3613,4.3691,4.3711,4.3711,4.3711,4.3711,4.3711,4.3711,4.3711,4.3711,4.3711,4.3711,4.3887,4.4355,4.4062,4.416,4.4961,4.4375,4.4082,4.4375,4.4043,4.3789,4.3711,4.3711,4.375,4.3828,4.375,4.3711,4.3711,4.3711,4.3535,4.3183,4.2754,4.2363,4.1172,4.1133,4.0996,4.0566,4.0098,3.9512,3.8633,0.0,3.7344,3.6055,0.0,0.0,0.0,0.0,0.0,0.0,0.0,0.0,3.291,3.3184,3.3418,3.3418,3.3418,3.3574,3.3965,3.4414,3.5273,3.6641,3.6426,3.6758,3.793,3.7656,3.7793,3.8555,3.8203,3.8184,3.8574,3.8574,3.8594,3.8652,3.8652,3.9082,3.9883,3.9473,3.9687,4.0351,3.998,3.9609,3.9316,3.9668,3.9629,3.9434,4.0273,4.0566,4.0586,4.1016,4.1172,4.1172,4.1172,4.1172,4.1172,4.1172,4.1172,4.1172,4.1172,4.1172,4.1172,4.1172,4.1172,4.1269,4.1699,4.2109,4.2539,4.2969,4.3105,4.3242,4.3633,4.3418,4.3262,4.3633,4.3711,4.3711,4.3711,4.3711,4.3711,4.3711,4.3711,4.3711,4.3711,4.3711,4.3887,4.4355,4.4355,4.4512,4.498,4.4941,4.4746,4.4414,4.4355,4.4141,4.373,4.3711,4.3906,4.4316,4.3906,4.3711,4.3711,4.3711,4.3691,4.3633,4.3203,4.2988,4.1172,4.1172,4.1133,4.0957,4.0391,3.9805,3.9434,3.8613,3.7695,3.6914,0.0,0.0,0.0,0.0,0.0,0.0,3.3691,0.0,0.0,0.0,3.3418,3.3418,0.0,0.0,3.4375,3.4844,3.5547,3.6582,3.6719,3.7109,3.7891,3.7754,3.7832,3.8184,3.8027,3.8008,3.8203,3.8457,3.8574,3.8574,3.8828,3.9141,3.9492,3.957,3.9805,4.0137,3.9687,3.9531,3.957,3.9258,3.9316,3.9648,4.0019,4.0312,4.0586,4.1016,4.1172,4.1172,4.1172,4.1172,4.1172,4.1172,4.1172,4.1172,4.1172,4.1172,4.1172,4.1172,4.1172,4.1211,4.1387,4.1933,4.248,4.2656,4.3086,4.3496,4.3672,4.3574,4.3496,4.3672,4.3711,4.3711,4.3711,4.3711,4.3711,4.3711,4.3711,4.3711,4.3711,4.3711,4.3789,4.3984,4.3984,4.418,4.4629,4.4414,4.4297,4.4394,4.4394,4.4316,4.4121,4.4336,4.457,4.4766,4.457,4.4355,4.4101,4.4355,4.4846,4.5535,4.3914,4.3086,4.1172,4.1172,4.1172,4.1172,4.0625,4.0059,4.0059,3.9238,3.8301,3.7754,3.6973,0.0,0.0,0.0,0.0,0.0,0.0,3.3887,0.0,3.334,0.0,0.0,0.0,0.0,0.0,3.4824,3.5391,3.625,3.6484,3.6875,3.7539,3.7578,3.7676,3.791,3.793,3.7988,3.8105,3.8418,3.8574,3.8574,3.9004,3.9277,3.9414,3.9863,4.0059,4.0039,3.959,3.9512,3.9648,3.9004,3.9199,3.9902,4.0019,4.0332,4.0742,4.1055,4.1172,4.1172,4.1172,4.1172,4.1172,4.1172,4.1172,4.1172,4.1172,4.1172,4.1327,4.183,4.1618,4.1327,4.183,4.2623,4.3121,4.2582,4.3473,4.4412,4.3774,4.3711,4.3711,4.3711,4.3711,4.375,4.3867,4.3887,4.3887,4.3887,4.3887,4.3887,4.3887,4.3789,4.3711,4.3711,4.3711,4.3945,4.4531,4.416,4.4082,4.4551,4.4453,4.4512,4.4746,4.4922,4.5078,4.5195,4.498,4.4707,4.4394,4.5139,4.594,4.6807,4.456,4.3687,4.1172,4.1172,4.1172,4.1172,4.084,4.0508,4.0508,4.0156,3.959,3.8711,3.7851,3.6992,3.6152,0.0,0.0,0.0,0.0,0.0,0.0,0.0,0.0,0.0,0.0,0.0,0.0,3.4101,3.4473,3.5371,3.5019,3.5351,3.6641,3.6719,3.709,3.7891,3.793,3.8125,3.8555,3.8574,3.8574,3.8574,3.9004,3.9434,3.9883,4.0312,4.0508,4.0469,4.0059,3.9629,3.9219,3.9199,3.9453,3.9941,4.0351,4.0781,4.1152,4.1172,4.1172,4.1172,4.1172,4.1172,4.1172,4.1172,4.1172,4.1172,4.1172,4.1172,4.1618,4.3511,4.2637,4.1618,4.3511,4.4789,4.4935,4.2882,4.4562,4.6142,4.4103,4.3711,4.3711,4.3711,4.3711,4.3848,4.4297,4.4375,4.4375,4.4375,4.4375,4.4375,4.4375,4.3984,4.3711,4.3711,4.3711,4.4062,4.4941,4.4629,4.4551,4.498,4.4629,4.4766,4.5605,4.5234,4.5234,4.5644,4.4844,4.4414,4.4394,4.5943,4.6727,4.6786,4.5118,4.516,4.1172,4.1172,4.1172,4.1172,4.0644,4.0098,4.0098,3.9766,3.9277,3.8691,3.8105,3.7539,0.0,0.0,0.0,0.0,0.0,0.0,0.0,0.0,0.0,0.0,0.0,0.0,0.0,0.0,3.4316,3.4883,3.5078,3.5469,3.6191,3.6777,3.7226,3.75,3.7773,3.7988,3.8144,3.8437,3.8574,3.8594,3.9316,3.9746,3.9922,4.0625,4.0801,4.0508,4.0078,3.9629,3.9199,3.9199,3.9473,3.9941,4.0351,4.0781,4.1172,4.1172,4.1172,4.1172,4.1172,4.1172,4.1172,4.1172,4.1172,4.1172,4.1172,4.1172,4.1327,4.1985,4.2637,4.3365,4.4398,4.6072,4.7071,4.5308,4.6939,4.836,4.6223,4.5758,4.5758,4.5758,4.4658,4.375,4.3906,4.4433,4.4824,4.4824,4.457,4.4492,4.4785,4.416,4.3926,4.4512,4.4336,4.4394,4.498,4.4902,4.4766,4.4629,4.5,4.5234,4.5254,4.5644,4.5801,4.5683,4.5664,4.6015,4.6885,4.7672,4.9108,5.0916,4.9235,4.7852,4.1172,4.1172,4.1172,4.1172,4.0762,4.0312,4.0156,3.9883,3.9551,3.9141,3.8574,3.8027,0.0,0.0,0.0,0.0,0.0,0.0,0.0,3.375,0.0,0.0,0.0,0.0,0.0,3.3926,3.4023,3.4434,3.4746,3.5176,3.5762,3.6601,3.7148,3.7285,3.7851,3.8164,3.8164,3.8437,3.8574,3.8594,3.9297,3.9726,3.9922,4.0469,4.0644,4.0508,4.0078,3.9726,3.9453,3.9609,3.9844,4.0156,4.0586,4.0918,4.1172,4.1172,4.1172,4.1172,4.1172,4.1172,4.1172,4.1172,4.1172,4.1172,4.1172,4.1172,4.1463,4.2866,4.3663,4.4558,4.6514,4.8276,4.9246,4.7648,4.924,5.053,4.8439,4.7326,4.7027,4.7804,4.5677,4.3998,4.4858,4.4897,4.5039,4.5757,4.5173,4.5218,4.6781,4.5015,4.4214,4.576,4.5035,4.457,4.5,4.5176,4.5137,4.4863,4.5371,4.5547,4.5273,4.5937,4.6666,4.744,4.7087,4.7932,4.9854,5.0224,5.1301,5.31,5.2032,5.059]}]]